<?xml version="1.0" encoding="UTF-8" standalone="no" ?>
<gpx xmlns="http://www.topografix.com/GPX/1/1" xmlns:xsi="http://www.w3.org/2001/XMLSchema-instance" xsi:schemaLocation="http://www.topografix.com/GPX/1/1 http://www.topografix.com/GPX/1/1/gpx.xsd" version="1.1" creator="VisuGPX - https://www.visugpx.com">
  <metadata>
    <name>NAOURS</name>
    <desc><![CDATA[Rando Naours]]></desc>
  </metadata>
  <trk>
    <name><![CDATA[NAOURS_1]]></name>
    <trkseg>
      <trkpt lat="50.03752" lon="2.2733">
        <ele>-35.8</ele>
        <time>2014-05-18T11:50:55.7</time>
      </trkpt>
      <trkpt lat="50.03752" lon="2.2733">
        <ele>-35.8</ele>
        <time>2014-05-18T11:52:38.84</time>
      </trkpt>
      <trkpt lat="50.03765" lon="2.27321">
        <ele>-38.7</ele>
        <time>2014-05-18T11:52:42.82</time>
      </trkpt>
      <trkpt lat="50.03775" lon="2.27314">
        <ele>-36.2</ele>
        <time>2014-05-18T11:52:45.82</time>
      </trkpt>
      <trkpt lat="50.03783" lon="2.27312">
        <ele>-34.3</ele>
        <time>2014-05-18T11:52:50.82</time>
      </trkpt>
      <trkpt lat="50.0379" lon="2.2731">
        <ele>-34.3</ele>
        <time>2014-05-18T11:52:56.83</time>
      </trkpt>
      <trkpt lat="50.03797" lon="2.27308">
        <ele>-35.2</ele>
        <time>2014-05-18T11:53:03.82</time>
      </trkpt>
      <trkpt lat="50.03802" lon="2.27308">
        <ele>-36.5</ele>
        <time>2014-05-18T11:53:10.83</time>
      </trkpt>
      <trkpt lat="50.03803" lon="2.2731">
        <ele>-38.1</ele>
        <time>2014-05-18T11:53:17.83</time>
      </trkpt>
      <trkpt lat="50.03808" lon="2.27307">
        <ele>-37.9</ele>
        <time>2014-05-18T11:53:24.83</time>
      </trkpt>
      <trkpt lat="50.03813" lon="2.27312">
        <ele>-36.2</ele>
        <time>2014-05-18T11:53:31.83</time>
      </trkpt>
      <trkpt lat="50.03821" lon="2.27314">
        <ele>-36.2</ele>
        <time>2014-05-18T11:53:37.83</time>
      </trkpt>
      <trkpt lat="50.03824" lon="2.2732">
        <ele>-34.9</ele>
        <time>2014-05-18T11:53:44.82</time>
      </trkpt>
      <trkpt lat="50.03829" lon="2.27315">
        <ele>-36.3</ele>
        <time>2014-05-18T11:53:51.82</time>
      </trkpt>
      <trkpt lat="50.03824" lon="2.27324">
        <ele>-35.9</ele>
        <time>2014-05-18T11:53:55.20</time>
      </trkpt>
      <trkpt lat="50.03829" lon="2.27326">
        <ele>-32.6</ele>
        <time>2014-05-18T11:54:02.96</time>
      </trkpt>
      <trkpt lat="50.03834" lon="2.27322">
        <ele>-25.7</ele>
        <time>2014-05-18T11:54:09.82</time>
      </trkpt>
      <trkpt lat="50.0382" lon="2.27324">
        <ele>-4.6</ele>
        <time>2014-05-18T11:54:16.82</time>
      </trkpt>
      <trkpt lat="50.03818" lon="2.27312">
        <ele>4.6</ele>
        <time>2014-05-18T11:54:19.83</time>
      </trkpt>
      <trkpt lat="50.03823" lon="2.27307">
        <ele>14.5</ele>
        <time>2014-05-18T11:54:26.82</time>
      </trkpt>
      <trkpt lat="50.03831" lon="2.27302">
        <ele>17.7</ele>
        <time>2014-05-18T11:54:32.82</time>
      </trkpt>
      <trkpt lat="50.03834" lon="2.273">
        <ele>21.6</ele>
        <time>2014-05-18T11:54:39.83</time>
      </trkpt>
      <trkpt lat="50.03831" lon="2.27305">
        <ele>24.7</ele>
        <time>2014-05-18T11:54:46.85</time>
      </trkpt>
      <trkpt lat="50.03834" lon="2.27301">
        <ele>26.9</ele>
        <time>2014-05-18T11:54:53.83</time>
      </trkpt>
      <trkpt lat="50.03834" lon="2.27301">
        <ele>27.1</ele>
        <time>2014-05-18T11:55:00.82</time>
      </trkpt>
      <trkpt lat="50.03833" lon="2.27299">
        <ele>30.2</ele>
        <time>2014-05-18T11:55:07.82</time>
      </trkpt>
      <trkpt lat="50.03832" lon="2.27299">
        <ele>32.1</ele>
        <time>2014-05-18T11:55:14.82</time>
      </trkpt>
      <trkpt lat="50.03831" lon="2.27298">
        <ele>33.2</ele>
        <time>2014-05-18T11:55:21.82</time>
      </trkpt>
      <trkpt lat="50.03834" lon="2.27288">
        <ele>44.4</ele>
        <time>2014-05-18T11:55:24.83</time>
      </trkpt>
      <trkpt lat="50.03834" lon="2.27274">
        <ele>46.5</ele>
        <time>2014-05-18T11:55:30.80</time>
      </trkpt>
      <trkpt lat="50.03833" lon="2.27264">
        <ele>52.6</ele>
        <time>2014-05-18T11:55:37.80</time>
      </trkpt>
      <trkpt lat="50.03831" lon="2.27278">
        <ele>55.2</ele>
        <time>2014-05-18T11:55:40.80</time>
      </trkpt>
      <trkpt lat="50.0383" lon="2.27272">
        <ele>55.5</ele>
        <time>2014-05-18T11:55:47.85</time>
      </trkpt>
      <trkpt lat="50.03826" lon="2.27262">
        <ele>56.5</ele>
        <time>2014-05-18T11:55:54.80</time>
      </trkpt>
      <trkpt lat="50.03824" lon="2.27247">
        <ele>56.2</ele>
        <time>2014-05-18T11:55:56.80</time>
      </trkpt>
      <trkpt lat="50.03823" lon="2.27235">
        <ele>57.3</ele>
        <time>2014-05-18T11:56:00.83</time>
      </trkpt>
      <trkpt lat="50.03821" lon="2.27223">
        <ele>57.8</ele>
        <time>2014-05-18T11:56:03.79</time>
      </trkpt>
      <trkpt lat="50.03824" lon="2.27211">
        <ele>58.1</ele>
        <time>2014-05-18T11:56:08.80</time>
      </trkpt>
      <trkpt lat="50.03827" lon="2.27198">
        <ele>56.5</ele>
        <time>2014-05-18T11:56:11.80</time>
      </trkpt>
      <trkpt lat="50.03832" lon="2.27195">
        <ele>55.7</ele>
        <time>2014-05-18T11:56:18.80</time>
      </trkpt>
      <trkpt lat="50.03838" lon="2.27186">
        <ele>56.4</ele>
        <time>2014-05-18T11:56:25.80</time>
      </trkpt>
      <trkpt lat="50.03845" lon="2.27182">
        <ele>58.7</ele>
        <time>2014-05-18T11:56:32.80</time>
      </trkpt>
      <trkpt lat="50.0385" lon="2.27176">
        <ele>60.5</ele>
        <time>2014-05-18T11:56:39.80</time>
      </trkpt>
      <trkpt lat="50.03857" lon="2.27171">
        <ele>63.2</ele>
        <time>2014-05-18T11:56:46.80</time>
      </trkpt>
      <trkpt lat="50.03864" lon="2.27164">
        <ele>65</ele>
        <time>2014-05-18T11:56:53.80</time>
      </trkpt>
      <trkpt lat="50.0387" lon="2.27159">
        <ele>66.6</ele>
        <time>2014-05-18T11:57:00.80</time>
      </trkpt>
      <trkpt lat="50.03878" lon="2.27158">
        <ele>68.1</ele>
        <time>2014-05-18T11:57:07.79</time>
      </trkpt>
      <trkpt lat="50.03884" lon="2.27153">
        <ele>69.4</ele>
        <time>2014-05-18T11:57:14.79</time>
      </trkpt>
      <trkpt lat="50.03891" lon="2.2715">
        <ele>70.6</ele>
        <time>2014-05-18T11:57:21.80</time>
      </trkpt>
      <trkpt lat="50.03898" lon="2.27148">
        <ele>71.7</ele>
        <time>2014-05-18T11:57:28.80</time>
      </trkpt>
      <trkpt lat="50.03905" lon="2.27147">
        <ele>73.1</ele>
        <time>2014-05-18T11:57:35.79</time>
      </trkpt>
      <trkpt lat="50.0391" lon="2.27138">
        <ele>74.8</ele>
        <time>2014-05-18T11:57:41.79</time>
      </trkpt>
      <trkpt lat="50.03919" lon="2.27134">
        <ele>75.6</ele>
        <time>2014-05-18T11:57:47.79</time>
      </trkpt>
      <trkpt lat="50.03926" lon="2.27129">
        <ele>76.3</ele>
        <time>2014-05-18T11:57:52.80</time>
      </trkpt>
      <trkpt lat="50.03932" lon="2.27122">
        <ele>76.7</ele>
        <time>2014-05-18T11:57:56.79</time>
      </trkpt>
      <trkpt lat="50.03939" lon="2.27118">
        <ele>77.6</ele>
        <time>2014-05-18T11:58:02.79</time>
      </trkpt>
      <trkpt lat="50.03945" lon="2.27112">
        <ele>78.2</ele>
        <time>2014-05-18T11:58:09.80</time>
      </trkpt>
      <trkpt lat="50.03952" lon="2.27111">
        <ele>79.4</ele>
        <time>2014-05-18T11:58:16.80</time>
      </trkpt>
      <trkpt lat="50.03959" lon="2.27109">
        <ele>80.4</ele>
        <time>2014-05-18T11:58:23.79</time>
      </trkpt>
      <trkpt lat="50.03966" lon="2.27104">
        <ele>80.1</ele>
        <time>2014-05-18T11:58:28.80</time>
      </trkpt>
      <trkpt lat="50.03974" lon="2.271">
        <ele>79.9</ele>
        <time>2014-05-18T11:58:34.80</time>
      </trkpt>
      <trkpt lat="50.0398" lon="2.27098">
        <ele>80.5</ele>
        <time>2014-05-18T11:58:41.79</time>
      </trkpt>
      <trkpt lat="50.03987" lon="2.271">
        <ele>81.3</ele>
        <time>2014-05-18T11:58:48.79</time>
      </trkpt>
      <trkpt lat="50.03995" lon="2.27102">
        <ele>80.8</ele>
        <time>2014-05-18T11:58:53.79</time>
      </trkpt>
      <trkpt lat="50.04003" lon="2.27101">
        <ele>80.6</ele>
        <time>2014-05-18T11:58:58.80</time>
      </trkpt>
      <trkpt lat="50.04009" lon="2.27099">
        <ele>81</ele>
        <time>2014-05-18T11:59:05.79</time>
      </trkpt>
      <trkpt lat="50.04014" lon="2.271">
        <ele>81.6</ele>
        <time>2014-05-18T11:59:12.79</time>
      </trkpt>
      <trkpt lat="50.0402" lon="2.27094">
        <ele>82.3</ele>
        <time>2014-05-18T11:59:19.80</time>
      </trkpt>
      <trkpt lat="50.04025" lon="2.27093">
        <ele>82.5</ele>
        <time>2014-05-18T11:59:26.79</time>
      </trkpt>
      <trkpt lat="50.04029" lon="2.27092">
        <ele>83.3</ele>
        <time>2014-05-18T11:59:33.78</time>
      </trkpt>
      <trkpt lat="50.04035" lon="2.27087">
        <ele>84.3</ele>
        <time>2014-05-18T11:59:40.79</time>
      </trkpt>
      <trkpt lat="50.04043" lon="2.27087">
        <ele>85.2</ele>
        <time>2014-05-18T11:59:47.79</time>
      </trkpt>
      <trkpt lat="50.0405" lon="2.27089">
        <ele>85.9</ele>
        <time>2014-05-18T11:59:54.79</time>
      </trkpt>
      <trkpt lat="50.04058" lon="2.27091">
        <ele>85.9</ele>
        <time>2014-05-18T11:59:59.79</time>
      </trkpt>
      <trkpt lat="50.04062" lon="2.27092">
        <ele>86.4</ele>
        <time>2014-05-18T12:00:06.79</time>
      </trkpt>
      <trkpt lat="50.04068" lon="2.27093">
        <ele>87.2</ele>
        <time>2014-05-18T12:00:13.79</time>
      </trkpt>
      <trkpt lat="50.04075" lon="2.2709">
        <ele>87.9</ele>
        <time>2014-05-18T12:00:19.79</time>
      </trkpt>
      <trkpt lat="50.04083" lon="2.27085">
        <ele>88.5</ele>
        <time>2014-05-18T12:00:25.84</time>
      </trkpt>
      <trkpt lat="50.0409" lon="2.27085">
        <ele>89.3</ele>
        <time>2014-05-18T12:00:32.79</time>
      </trkpt>
      <trkpt lat="50.04097" lon="2.27088">
        <ele>90.1</ele>
        <time>2014-05-18T12:00:39.79</time>
      </trkpt>
      <trkpt lat="50.04103" lon="2.27087">
        <ele>90.9</ele>
        <time>2014-05-18T12:00:46.79</time>
      </trkpt>
      <trkpt lat="50.0411" lon="2.27083">
        <ele>91.7</ele>
        <time>2014-05-18T12:00:52.79</time>
      </trkpt>
      <trkpt lat="50.04116" lon="2.2708">
        <ele>92.6</ele>
        <time>2014-05-18T12:00:59.79</time>
      </trkpt>
      <trkpt lat="50.04124" lon="2.2708">
        <ele>93.6</ele>
        <time>2014-05-18T12:01:05.79</time>
      </trkpt>
      <trkpt lat="50.04129" lon="2.27081">
        <ele>94.3</ele>
        <time>2014-05-18T12:01:12.79</time>
      </trkpt>
      <trkpt lat="50.04135" lon="2.27082">
        <ele>94.9</ele>
        <time>2014-05-18T12:01:19.79</time>
      </trkpt>
      <trkpt lat="50.04139" lon="2.27083">
        <ele>95.7</ele>
        <time>2014-05-18T12:01:26.79</time>
      </trkpt>
      <trkpt lat="50.04143" lon="2.27081">
        <ele>96.2</ele>
        <time>2014-05-18T12:01:33.79</time>
      </trkpt>
      <trkpt lat="50.04148" lon="2.27082">
        <ele>96.5</ele>
        <time>2014-05-18T12:01:40.79</time>
      </trkpt>
      <trkpt lat="50.04155" lon="2.27081">
        <ele>97.1</ele>
        <time>2014-05-18T12:01:47.79</time>
      </trkpt>
      <trkpt lat="50.04163" lon="2.2708">
        <ele>97.7</ele>
        <time>2014-05-18T12:01:52.79</time>
      </trkpt>
      <trkpt lat="50.0417" lon="2.27077">
        <ele>98.4</ele>
        <time>2014-05-18T12:01:56.79</time>
      </trkpt>
      <trkpt lat="50.04178" lon="2.27077">
        <ele>99</ele>
        <time>2014-05-18T12:02:01.79</time>
      </trkpt>
      <trkpt lat="50.04187" lon="2.27075">
        <ele>99.1</ele>
        <time>2014-05-18T12:02:07.79</time>
      </trkpt>
      <trkpt lat="50.04194" lon="2.27073">
        <ele>99.7</ele>
        <time>2014-05-18T12:02:13.80</time>
      </trkpt>
      <trkpt lat="50.04202" lon="2.27069">
        <ele>100.1</ele>
        <time>2014-05-18T12:02:20.79</time>
      </trkpt>
      <trkpt lat="50.0421" lon="2.27072">
        <ele>100.6</ele>
        <time>2014-05-18T12:02:25.80</time>
      </trkpt>
      <trkpt lat="50.04217" lon="2.27074">
        <ele>101.6</ele>
        <time>2014-05-18T12:02:32.79</time>
      </trkpt>
      <trkpt lat="50.04224" lon="2.27075">
        <ele>102</ele>
        <time>2014-05-18T12:02:39.80</time>
      </trkpt>
      <trkpt lat="50.0423" lon="2.27073">
        <ele>102.7</ele>
        <time>2014-05-18T12:02:46.80</time>
      </trkpt>
      <trkpt lat="50.04236" lon="2.2707">
        <ele>101.3</ele>
        <time>2014-05-18T12:02:53.79</time>
      </trkpt>
      <trkpt lat="50.04242" lon="2.27072">
        <ele>100.9</ele>
        <time>2014-05-18T12:03:00.79</time>
      </trkpt>
      <trkpt lat="50.04247" lon="2.27076">
        <ele>102.3</ele>
        <time>2014-05-18T12:03:07.79</time>
      </trkpt>
      <trkpt lat="50.04255" lon="2.27079">
        <ele>102.4</ele>
        <time>2014-05-18T12:03:14.79</time>
      </trkpt>
      <trkpt lat="50.04262" lon="2.2709">
        <ele>102.4</ele>
        <time>2014-05-18T12:03:18.80</time>
      </trkpt>
      <trkpt lat="50.04269" lon="2.27094">
        <ele>103.1</ele>
        <time>2014-05-18T12:03:24.79</time>
      </trkpt>
      <trkpt lat="50.04276" lon="2.27095">
        <ele>103.9</ele>
        <time>2014-05-18T12:03:31.80</time>
      </trkpt>
      <trkpt lat="50.04284" lon="2.27094">
        <ele>104.1</ele>
        <time>2014-05-18T12:03:37.79</time>
      </trkpt>
      <trkpt lat="50.04291" lon="2.271">
        <ele>104.9</ele>
        <time>2014-05-18T12:03:42.79</time>
      </trkpt>
      <trkpt lat="50.04298" lon="2.27102">
        <ele>106.2</ele>
        <time>2014-05-18T12:03:49.79</time>
      </trkpt>
      <trkpt lat="50.04306" lon="2.27104">
        <ele>107.1</ele>
        <time>2014-05-18T12:03:55.79</time>
      </trkpt>
      <trkpt lat="50.04313" lon="2.27105">
        <ele>107.6</ele>
        <time>2014-05-18T12:04:01.79</time>
      </trkpt>
      <trkpt lat="50.0432" lon="2.27108">
        <ele>108.1</ele>
        <time>2014-05-18T12:04:08.79</time>
      </trkpt>
      <trkpt lat="50.04328" lon="2.2711">
        <ele>108.7</ele>
        <time>2014-05-18T12:04:14.79</time>
      </trkpt>
      <trkpt lat="50.04335" lon="2.27113">
        <ele>108.8</ele>
        <time>2014-05-18T12:04:19.79</time>
      </trkpt>
      <trkpt lat="50.04343" lon="2.27114">
        <ele>108.7</ele>
        <time>2014-05-18T12:04:25.79</time>
      </trkpt>
      <trkpt lat="50.04349" lon="2.27118">
        <ele>109.2</ele>
        <time>2014-05-18T12:04:32.79</time>
      </trkpt>
      <trkpt lat="50.04356" lon="2.27121">
        <ele>109.7</ele>
        <time>2014-05-18T12:04:39.79</time>
      </trkpt>
      <trkpt lat="50.04363" lon="2.27126">
        <ele>110.3</ele>
        <time>2014-05-18T12:04:46.79</time>
      </trkpt>
      <trkpt lat="50.04371" lon="2.27125">
        <ele>110.6</ele>
        <time>2014-05-18T12:04:52.79</time>
      </trkpt>
      <trkpt lat="50.04379" lon="2.27127">
        <ele>110.8</ele>
        <time>2014-05-18T12:04:59.79</time>
      </trkpt>
      <trkpt lat="50.04386" lon="2.27133">
        <ele>111.3</ele>
        <time>2014-05-18T12:05:05.79</time>
      </trkpt>
      <trkpt lat="50.04392" lon="2.27141">
        <ele>112.3</ele>
        <time>2014-05-18T12:05:11.79</time>
      </trkpt>
      <trkpt lat="50.04399" lon="2.27142">
        <ele>112.6</ele>
        <time>2014-05-18T12:05:17.79</time>
      </trkpt>
      <trkpt lat="50.04407" lon="2.27144">
        <ele>112.5</ele>
        <time>2014-05-18T12:05:23.79</time>
      </trkpt>
      <trkpt lat="50.04415" lon="2.27143">
        <ele>111.9</ele>
        <time>2014-05-18T12:05:29.79</time>
      </trkpt>
      <trkpt lat="50.04422" lon="2.27147">
        <ele>110.8</ele>
        <time>2014-05-18T12:05:36.79</time>
      </trkpt>
      <trkpt lat="50.04429" lon="2.2715">
        <ele>111.2</ele>
        <time>2014-05-18T12:05:43.79</time>
      </trkpt>
      <trkpt lat="50.04437" lon="2.27148">
        <ele>112.1</ele>
        <time>2014-05-18T12:05:50.79</time>
      </trkpt>
      <trkpt lat="50.04444" lon="2.27148">
        <ele>111.9</ele>
        <time>2014-05-18T12:05:55.79</time>
      </trkpt>
      <trkpt lat="50.04453" lon="2.2715">
        <ele>112.1</ele>
        <time>2014-05-18T12:06:00.79</time>
      </trkpt>
      <trkpt lat="50.0446" lon="2.27149">
        <ele>112</ele>
        <time>2014-05-18T12:06:06.79</time>
      </trkpt>
      <trkpt lat="50.04466" lon="2.2715">
        <ele>111.2</ele>
        <time>2014-05-18T12:06:13.79</time>
      </trkpt>
      <trkpt lat="50.04473" lon="2.27151">
        <ele>111.6</ele>
        <time>2014-05-18T12:06:18.80</time>
      </trkpt>
      <trkpt lat="50.04481" lon="2.2715">
        <ele>111.2</ele>
        <time>2014-05-18T12:06:25.79</time>
      </trkpt>
      <trkpt lat="50.04489" lon="2.27148">
        <ele>110.2</ele>
        <time>2014-05-18T12:06:31.79</time>
      </trkpt>
      <trkpt lat="50.04497" lon="2.27149">
        <ele>109</ele>
        <time>2014-05-18T12:06:37.79</time>
      </trkpt>
      <trkpt lat="50.04504" lon="2.27146">
        <ele>108.3</ele>
        <time>2014-05-18T12:06:43.79</time>
      </trkpt>
      <trkpt lat="50.04513" lon="2.27146">
        <ele>107.7</ele>
        <time>2014-05-18T12:06:50.79</time>
      </trkpt>
      <trkpt lat="50.0452" lon="2.2715">
        <ele>108.8</ele>
        <time>2014-05-18T12:06:56.79</time>
      </trkpt>
      <trkpt lat="50.04527" lon="2.27154">
        <ele>108.7</ele>
        <time>2014-05-18T12:07:03.79</time>
      </trkpt>
      <trkpt lat="50.04535" lon="2.27154">
        <ele>109.3</ele>
        <time>2014-05-18T12:07:08.79</time>
      </trkpt>
      <trkpt lat="50.04543" lon="2.27151">
        <ele>109.4</ele>
        <time>2014-05-18T12:07:14.79</time>
      </trkpt>
      <trkpt lat="50.0455" lon="2.27153">
        <ele>109.8</ele>
        <time>2014-05-18T12:07:21.79</time>
      </trkpt>
      <trkpt lat="50.04557" lon="2.27158">
        <ele>109.2</ele>
        <time>2014-05-18T12:07:28.79</time>
      </trkpt>
      <trkpt lat="50.04564" lon="2.27161">
        <ele>109.8</ele>
        <time>2014-05-18T12:07:35.79</time>
      </trkpt>
      <trkpt lat="50.04572" lon="2.27164">
        <ele>112.5</ele>
        <time>2014-05-18T12:07:42.79</time>
      </trkpt>
      <trkpt lat="50.0458" lon="2.27166">
        <ele>113</ele>
        <time>2014-05-18T12:07:49.79</time>
      </trkpt>
      <trkpt lat="50.04584" lon="2.27167">
        <ele>113.7</ele>
        <time>2014-05-18T12:07:56.79</time>
      </trkpt>
      <trkpt lat="50.04585" lon="2.27168">
        <ele>113.8</ele>
        <time>2014-05-18T12:08:03.79</time>
      </trkpt>
      <trkpt lat="50.04593" lon="2.27168">
        <ele>114.7</ele>
        <time>2014-05-18T12:08:05.81</time>
      </trkpt>
      <trkpt lat="50.046" lon="2.27163">
        <ele>114.6</ele>
        <time>2014-05-18T12:08:10.81</time>
      </trkpt>
      <trkpt lat="50.04608" lon="2.27159">
        <ele>114.5</ele>
        <time>2014-05-18T12:08:15.79</time>
      </trkpt>
      <trkpt lat="50.04616" lon="2.2716">
        <ele>114.5</ele>
        <time>2014-05-18T12:08:21.79</time>
      </trkpt>
      <trkpt lat="50.04624" lon="2.27161">
        <ele>114.1</ele>
        <time>2014-05-18T12:08:27.79</time>
      </trkpt>
      <trkpt lat="50.04632" lon="2.27162">
        <ele>114</ele>
        <time>2014-05-18T12:08:33.79</time>
      </trkpt>
      <trkpt lat="50.0464" lon="2.27159">
        <ele>114.4</ele>
        <time>2014-05-18T12:08:39.79</time>
      </trkpt>
      <trkpt lat="50.04647" lon="2.27163">
        <ele>114.1</ele>
        <time>2014-05-18T12:08:46.79</time>
      </trkpt>
      <trkpt lat="50.04655" lon="2.2716">
        <ele>114.3</ele>
        <time>2014-05-18T12:08:51.79</time>
      </trkpt>
      <trkpt lat="50.04662" lon="2.2716">
        <ele>114</ele>
        <time>2014-05-18T12:08:58.79</time>
      </trkpt>
      <trkpt lat="50.0467" lon="2.27161">
        <ele>113.4</ele>
        <time>2014-05-18T12:09:04.79</time>
      </trkpt>
      <trkpt lat="50.04678" lon="2.27161">
        <ele>113.6</ele>
        <time>2014-05-18T12:09:11.79</time>
      </trkpt>
      <trkpt lat="50.04686" lon="2.27161">
        <ele>114</ele>
        <time>2014-05-18T12:09:16.79</time>
      </trkpt>
      <trkpt lat="50.04692" lon="2.27161">
        <ele>114.5</ele>
        <time>2014-05-18T12:09:23.79</time>
      </trkpt>
      <trkpt lat="50.04699" lon="2.27162">
        <ele>115.4</ele>
        <time>2014-05-18T12:09:29.79</time>
      </trkpt>
      <trkpt lat="50.04707" lon="2.27164">
        <ele>115.7</ele>
        <time>2014-05-18T12:09:35.79</time>
      </trkpt>
      <trkpt lat="50.04714" lon="2.27165">
        <ele>115.8</ele>
        <time>2014-05-18T12:09:40.81</time>
      </trkpt>
      <trkpt lat="50.04722" lon="2.27162">
        <ele>116.6</ele>
        <time>2014-05-18T12:09:47.79</time>
      </trkpt>
      <trkpt lat="50.04729" lon="2.27164">
        <ele>116.9</ele>
        <time>2014-05-18T12:09:54.79</time>
      </trkpt>
      <trkpt lat="50.04737" lon="2.27164">
        <ele>116.5</ele>
        <time>2014-05-18T12:10:01.79</time>
      </trkpt>
      <trkpt lat="50.04745" lon="2.27163">
        <ele>117</ele>
        <time>2014-05-18T12:10:06.79</time>
      </trkpt>
      <trkpt lat="50.04753" lon="2.27164">
        <ele>117.8</ele>
        <time>2014-05-18T12:10:13.79</time>
      </trkpt>
      <trkpt lat="50.04759" lon="2.27161">
        <ele>119.1</ele>
        <time>2014-05-18T12:10:20.79</time>
      </trkpt>
      <trkpt lat="50.04767" lon="2.27162">
        <ele>119.7</ele>
        <time>2014-05-18T12:10:27.79</time>
      </trkpt>
      <trkpt lat="50.04774" lon="2.27161">
        <ele>119</ele>
        <time>2014-05-18T12:10:33.79</time>
      </trkpt>
      <trkpt lat="50.04782" lon="2.27156">
        <ele>119.7</ele>
        <time>2014-05-18T12:10:40.79</time>
      </trkpt>
      <trkpt lat="50.04789" lon="2.27152">
        <ele>118.8</ele>
        <time>2014-05-18T12:10:47.79</time>
      </trkpt>
      <trkpt lat="50.04795" lon="2.27146">
        <ele>118.6</ele>
        <time>2014-05-18T12:10:53.79</time>
      </trkpt>
      <trkpt lat="50.04802" lon="2.27137">
        <ele>119.3</ele>
        <time>2014-05-18T12:10:59.79</time>
      </trkpt>
      <trkpt lat="50.04807" lon="2.27129">
        <ele>119.5</ele>
        <time>2014-05-18T12:11:05.79</time>
      </trkpt>
      <trkpt lat="50.04814" lon="2.27129">
        <ele>119.3</ele>
        <time>2014-05-18T12:11:12.79</time>
      </trkpt>
      <trkpt lat="50.04819" lon="2.27123">
        <ele>119.7</ele>
        <time>2014-05-18T12:11:19.83</time>
      </trkpt>
      <trkpt lat="50.04825" lon="2.27114">
        <ele>119.6</ele>
        <time>2014-05-18T12:11:25.79</time>
      </trkpt>
      <trkpt lat="50.04831" lon="2.27111">
        <ele>119.3</ele>
        <time>2014-05-18T12:11:32.79</time>
      </trkpt>
      <trkpt lat="50.04836" lon="2.27109">
        <ele>118.6</ele>
        <time>2014-05-18T12:11:39.79</time>
      </trkpt>
      <trkpt lat="50.04844" lon="2.27105">
        <ele>118.1</ele>
        <time>2014-05-18T12:11:43.79</time>
      </trkpt>
      <trkpt lat="50.04851" lon="2.27104">
        <ele>117</ele>
        <time>2014-05-18T12:11:48.79</time>
      </trkpt>
      <trkpt lat="50.04859" lon="2.27107">
        <ele>116.9</ele>
        <time>2014-05-18T12:11:53.79</time>
      </trkpt>
      <trkpt lat="50.04866" lon="2.27112">
        <ele>117.8</ele>
        <time>2014-05-18T12:11:59.79</time>
      </trkpt>
      <trkpt lat="50.04873" lon="2.27117">
        <ele>117.1</ele>
        <time>2014-05-18T12:12:06.79</time>
      </trkpt>
      <trkpt lat="50.0488" lon="2.27121">
        <ele>117.1</ele>
        <time>2014-05-18T12:12:13.79</time>
      </trkpt>
      <trkpt lat="50.04888" lon="2.27119">
        <ele>120.3</ele>
        <time>2014-05-18T12:12:19.79</time>
      </trkpt>
      <trkpt lat="50.04896" lon="2.27117">
        <ele>121.6</ele>
        <time>2014-05-18T12:12:26.79</time>
      </trkpt>
      <trkpt lat="50.04904" lon="2.27119">
        <ele>123.1</ele>
        <time>2014-05-18T12:12:31.79</time>
      </trkpt>
      <trkpt lat="50.04912" lon="2.27119">
        <ele>123.5</ele>
        <time>2014-05-18T12:12:37.79</time>
      </trkpt>
      <trkpt lat="50.04919" lon="2.27116">
        <ele>123.9</ele>
        <time>2014-05-18T12:12:44.79</time>
      </trkpt>
      <trkpt lat="50.04927" lon="2.27117">
        <ele>124.2</ele>
        <time>2014-05-18T12:12:51.82</time>
      </trkpt>
      <trkpt lat="50.04935" lon="2.27114">
        <ele>125</ele>
        <time>2014-05-18T12:12:57.79</time>
      </trkpt>
      <trkpt lat="50.04942" lon="2.27114">
        <ele>125.5</ele>
        <time>2014-05-18T12:13:04.79</time>
      </trkpt>
      <trkpt lat="50.04949" lon="2.27113">
        <ele>126</ele>
        <time>2014-05-18T12:13:10.81</time>
      </trkpt>
      <trkpt lat="50.04957" lon="2.27108">
        <ele>126</ele>
        <time>2014-05-18T12:13:17.79</time>
      </trkpt>
      <trkpt lat="50.04964" lon="2.27106">
        <ele>124.9</ele>
        <time>2014-05-18T12:13:24.79</time>
      </trkpt>
      <trkpt lat="50.04971" lon="2.27102">
        <ele>124.5</ele>
        <time>2014-05-18T12:13:30.79</time>
      </trkpt>
      <trkpt lat="50.04978" lon="2.27097">
        <ele>124.2</ele>
        <time>2014-05-18T12:13:36.79</time>
      </trkpt>
      <trkpt lat="50.04986" lon="2.27094">
        <ele>125</ele>
        <time>2014-05-18T12:13:43.79</time>
      </trkpt>
      <trkpt lat="50.04994" lon="2.2709">
        <ele>124.6</ele>
        <time>2014-05-18T12:13:49.79</time>
      </trkpt>
      <trkpt lat="50.05001" lon="2.27085">
        <ele>124.3</ele>
        <time>2014-05-18T12:13:55.79</time>
      </trkpt>
      <trkpt lat="50.05008" lon="2.27081">
        <ele>124.1</ele>
        <time>2014-05-18T12:14:02.79</time>
      </trkpt>
      <trkpt lat="50.05015" lon="2.27075">
        <ele>123.7</ele>
        <time>2014-05-18T12:14:08.79</time>
      </trkpt>
      <trkpt lat="50.05021" lon="2.2707">
        <ele>124.4</ele>
        <time>2014-05-18T12:14:14.79</time>
      </trkpt>
      <trkpt lat="50.05028" lon="2.27063">
        <ele>125.4</ele>
        <time>2014-05-18T12:14:21.79</time>
      </trkpt>
      <trkpt lat="50.05035" lon="2.27056">
        <ele>125.3</ele>
        <time>2014-05-18T12:14:27.79</time>
      </trkpt>
      <trkpt lat="50.05042" lon="2.2705">
        <ele>125.5</ele>
        <time>2014-05-18T12:14:33.79</time>
      </trkpt>
      <trkpt lat="50.05048" lon="2.27046">
        <ele>125.8</ele>
        <time>2014-05-18T12:14:38.79</time>
      </trkpt>
      <trkpt lat="50.05056" lon="2.2704">
        <ele>125.4</ele>
        <time>2014-05-18T12:14:45.79</time>
      </trkpt>
      <trkpt lat="50.05064" lon="2.27035">
        <ele>125.5</ele>
        <time>2014-05-18T12:14:52.79</time>
      </trkpt>
      <trkpt lat="50.05071" lon="2.27029">
        <ele>125.6</ele>
        <time>2014-05-18T12:14:59.79</time>
      </trkpt>
      <trkpt lat="50.05078" lon="2.27024">
        <ele>126.1</ele>
        <time>2014-05-18T12:15:06.79</time>
      </trkpt>
      <trkpt lat="50.05084" lon="2.27018">
        <ele>126.8</ele>
        <time>2014-05-18T12:15:12.79</time>
      </trkpt>
      <trkpt lat="50.05092" lon="2.27014">
        <ele>127.6</ele>
        <time>2014-05-18T12:15:19.79</time>
      </trkpt>
      <trkpt lat="50.05097" lon="2.27008">
        <ele>127.8</ele>
        <time>2014-05-18T12:15:26.79</time>
      </trkpt>
      <trkpt lat="50.05104" lon="2.27001">
        <ele>128</ele>
        <time>2014-05-18T12:15:33.79</time>
      </trkpt>
      <trkpt lat="50.05111" lon="2.26997">
        <ele>128.4</ele>
        <time>2014-05-18T12:15:40.79</time>
      </trkpt>
      <trkpt lat="50.05119" lon="2.26992">
        <ele>128.4</ele>
        <time>2014-05-18T12:15:46.79</time>
      </trkpt>
      <trkpt lat="50.05126" lon="2.26989">
        <ele>128.2</ele>
        <time>2014-05-18T12:15:52.79</time>
      </trkpt>
      <trkpt lat="50.05134" lon="2.26985">
        <ele>128.2</ele>
        <time>2014-05-18T12:15:58.79</time>
      </trkpt>
      <trkpt lat="50.05142" lon="2.26984">
        <ele>128.2</ele>
        <time>2014-05-18T12:16:04.79</time>
      </trkpt>
      <trkpt lat="50.05151" lon="2.26981">
        <ele>128.4</ele>
        <time>2014-05-18T12:16:11.79</time>
      </trkpt>
      <trkpt lat="50.05157" lon="2.26977">
        <ele>128.5</ele>
        <time>2014-05-18T12:16:17.85</time>
      </trkpt>
      <trkpt lat="50.05164" lon="2.26976">
        <ele>128.7</ele>
        <time>2014-05-18T12:16:22.85</time>
      </trkpt>
      <trkpt lat="50.05171" lon="2.26972">
        <ele>128.8</ele>
        <time>2014-05-18T12:16:28.79</time>
      </trkpt>
      <trkpt lat="50.05178" lon="2.26967">
        <ele>129.1</ele>
        <time>2014-05-18T12:16:35.79</time>
      </trkpt>
      <trkpt lat="50.05184" lon="2.26962">
        <ele>129.5</ele>
        <time>2014-05-18T12:16:42.79</time>
      </trkpt>
      <trkpt lat="50.05191" lon="2.26957">
        <ele>129.7</ele>
        <time>2014-05-18T12:16:48.79</time>
      </trkpt>
      <trkpt lat="50.05199" lon="2.26954">
        <ele>129.9</ele>
        <time>2014-05-18T12:16:54.79</time>
      </trkpt>
      <trkpt lat="50.05206" lon="2.2695">
        <ele>130</ele>
        <time>2014-05-18T12:17:00.79</time>
      </trkpt>
      <trkpt lat="50.05214" lon="2.26947">
        <ele>130.2</ele>
        <time>2014-05-18T12:17:07.79</time>
      </trkpt>
      <trkpt lat="50.05221" lon="2.26942">
        <ele>130.5</ele>
        <time>2014-05-18T12:17:14.79</time>
      </trkpt>
      <trkpt lat="50.05229" lon="2.26939">
        <ele>130.8</ele>
        <time>2014-05-18T12:17:19.79</time>
      </trkpt>
      <trkpt lat="50.05238" lon="2.26936">
        <ele>130.8</ele>
        <time>2014-05-18T12:17:26.79</time>
      </trkpt>
      <trkpt lat="50.05244" lon="2.26931">
        <ele>130.7</ele>
        <time>2014-05-18T12:17:32.79</time>
      </trkpt>
      <trkpt lat="50.05252" lon="2.26928">
        <ele>130.9</ele>
        <time>2014-05-18T12:17:38.79</time>
      </trkpt>
      <trkpt lat="50.0526" lon="2.26926">
        <ele>131</ele>
        <time>2014-05-18T12:17:45.79</time>
      </trkpt>
      <trkpt lat="50.05268" lon="2.26922">
        <ele>131.1</ele>
        <time>2014-05-18T12:17:51.79</time>
      </trkpt>
      <trkpt lat="50.05275" lon="2.26917">
        <ele>131.1</ele>
        <time>2014-05-18T12:17:57.79</time>
      </trkpt>
      <trkpt lat="50.05283" lon="2.26913">
        <ele>131.1</ele>
        <time>2014-05-18T12:18:04.79</time>
      </trkpt>
      <trkpt lat="50.0529" lon="2.26909">
        <ele>131.1</ele>
        <time>2014-05-18T12:18:11.80</time>
      </trkpt>
      <trkpt lat="50.05298" lon="2.26904">
        <ele>131</ele>
        <time>2014-05-18T12:18:17.79</time>
      </trkpt>
      <trkpt lat="50.05305" lon="2.26901">
        <ele>131</ele>
        <time>2014-05-18T12:18:23.80</time>
      </trkpt>
      <trkpt lat="50.05313" lon="2.26897">
        <ele>131</ele>
        <time>2014-05-18T12:18:29.79</time>
      </trkpt>
      <trkpt lat="50.05321" lon="2.26896">
        <ele>131.3</ele>
        <time>2014-05-18T12:18:35.79</time>
      </trkpt>
      <trkpt lat="50.05328" lon="2.26892">
        <ele>131.6</ele>
        <time>2014-05-18T12:18:41.80</time>
      </trkpt>
      <trkpt lat="50.05335" lon="2.2689">
        <ele>131.9</ele>
        <time>2014-05-18T12:18:46.79</time>
      </trkpt>
      <trkpt lat="50.05342" lon="2.26885">
        <ele>132.7</ele>
        <time>2014-05-18T12:18:53.79</time>
      </trkpt>
      <trkpt lat="50.05349" lon="2.2688">
        <ele>132.8</ele>
        <time>2014-05-18T12:18:59.79</time>
      </trkpt>
      <trkpt lat="50.05358" lon="2.26877">
        <ele>132.8</ele>
        <time>2014-05-18T12:19:05.79</time>
      </trkpt>
      <trkpt lat="50.05365" lon="2.26872">
        <ele>133.7</ele>
        <time>2014-05-18T12:19:12.79</time>
      </trkpt>
      <trkpt lat="50.05373" lon="2.26868">
        <ele>134.4</ele>
        <time>2014-05-18T12:19:19.79</time>
      </trkpt>
      <trkpt lat="50.05381" lon="2.26865">
        <ele>134.8</ele>
        <time>2014-05-18T12:19:24.79</time>
      </trkpt>
      <trkpt lat="50.05389" lon="2.26861">
        <ele>134.8</ele>
        <time>2014-05-18T12:19:31.79</time>
      </trkpt>
      <trkpt lat="50.05396" lon="2.26859">
        <ele>134.8</ele>
        <time>2014-05-18T12:19:37.79</time>
      </trkpt>
      <trkpt lat="50.05404" lon="2.26858">
        <ele>134.1</ele>
        <time>2014-05-18T12:19:42.79</time>
      </trkpt>
      <trkpt lat="50.0541" lon="2.26852">
        <ele>132.6</ele>
        <time>2014-05-18T12:19:49.79</time>
      </trkpt>
      <trkpt lat="50.05418" lon="2.26849">
        <ele>131.7</ele>
        <time>2014-05-18T12:19:54.79</time>
      </trkpt>
      <trkpt lat="50.05425" lon="2.26846">
        <ele>130.8</ele>
        <time>2014-05-18T12:20:01.79</time>
      </trkpt>
      <trkpt lat="50.05432" lon="2.26843">
        <ele>130.2</ele>
        <time>2014-05-18T12:20:07.79</time>
      </trkpt>
      <trkpt lat="50.0544" lon="2.26839">
        <ele>129.9</ele>
        <time>2014-05-18T12:20:13.79</time>
      </trkpt>
      <trkpt lat="50.05447" lon="2.26835">
        <ele>129.8</ele>
        <time>2014-05-18T12:20:20.79</time>
      </trkpt>
      <trkpt lat="50.05455" lon="2.26833">
        <ele>129.7</ele>
        <time>2014-05-18T12:20:25.79</time>
      </trkpt>
      <trkpt lat="50.05463" lon="2.2683">
        <ele>129.3</ele>
        <time>2014-05-18T12:20:31.79</time>
      </trkpt>
      <trkpt lat="50.0547" lon="2.26826">
        <ele>129</ele>
        <time>2014-05-18T12:20:38.79</time>
      </trkpt>
      <trkpt lat="50.05478" lon="2.26824">
        <ele>129</ele>
        <time>2014-05-18T12:20:44.79</time>
      </trkpt>
      <trkpt lat="50.05484" lon="2.2682">
        <ele>129.3</ele>
        <time>2014-05-18T12:20:50.79</time>
      </trkpt>
      <trkpt lat="50.05493" lon="2.26815">
        <ele>129.5</ele>
        <time>2014-05-18T12:20:56.79</time>
      </trkpt>
      <trkpt lat="50.055" lon="2.26813">
        <ele>129.6</ele>
        <time>2014-05-18T12:21:02.79</time>
      </trkpt>
      <trkpt lat="50.05507" lon="2.26809">
        <ele>129.3</ele>
        <time>2014-05-18T12:21:07.79</time>
      </trkpt>
      <trkpt lat="50.05513" lon="2.26804">
        <ele>128.7</ele>
        <time>2014-05-18T12:21:14.79</time>
      </trkpt>
      <trkpt lat="50.0552" lon="2.268">
        <ele>128.6</ele>
        <time>2014-05-18T12:21:20.79</time>
      </trkpt>
      <trkpt lat="50.05528" lon="2.26797">
        <ele>128.5</ele>
        <time>2014-05-18T12:21:25.83</time>
      </trkpt>
      <trkpt lat="50.05535" lon="2.26793">
        <ele>128.7</ele>
        <time>2014-05-18T12:21:31.80</time>
      </trkpt>
      <trkpt lat="50.05543" lon="2.26789">
        <ele>128.7</ele>
        <time>2014-05-18T12:21:36.79</time>
      </trkpt>
      <trkpt lat="50.0555" lon="2.26786">
        <ele>128.7</ele>
        <time>2014-05-18T12:21:43.79</time>
      </trkpt>
      <trkpt lat="50.05558" lon="2.26784">
        <ele>128.8</ele>
        <time>2014-05-18T12:21:48.79</time>
      </trkpt>
      <trkpt lat="50.05565" lon="2.2678">
        <ele>129.1</ele>
        <time>2014-05-18T12:21:55.79</time>
      </trkpt>
      <trkpt lat="50.05572" lon="2.26779">
        <ele>129.1</ele>
        <time>2014-05-18T12:22:02.79</time>
      </trkpt>
      <trkpt lat="50.05579" lon="2.26775">
        <ele>129.3</ele>
        <time>2014-05-18T12:22:08.79</time>
      </trkpt>
      <trkpt lat="50.05585" lon="2.2677">
        <ele>130</ele>
        <time>2014-05-18T12:22:14.79</time>
      </trkpt>
      <trkpt lat="50.05592" lon="2.26762">
        <ele>130.9</ele>
        <time>2014-05-18T12:22:21.80</time>
      </trkpt>
      <trkpt lat="50.05598" lon="2.26754">
        <ele>131.7</ele>
        <time>2014-05-18T12:22:27.79</time>
      </trkpt>
      <trkpt lat="50.05601" lon="2.2675">
        <ele>132</ele>
        <time>2014-05-18T12:22:34.79</time>
      </trkpt>
      <trkpt lat="50.05604" lon="2.26748">
        <ele>131.8</ele>
        <time>2014-05-18T12:22:41.80</time>
      </trkpt>
      <trkpt lat="50.05609" lon="2.26751">
        <ele>131.6</ele>
        <time>2014-05-18T12:22:48.79</time>
      </trkpt>
      <trkpt lat="50.05612" lon="2.26748">
        <ele>132.3</ele>
        <time>2014-05-18T12:22:55.79</time>
      </trkpt>
      <trkpt lat="50.05618" lon="2.26748">
        <ele>132.3</ele>
        <time>2014-05-18T12:23:02.79</time>
      </trkpt>
      <trkpt lat="50.05621" lon="2.26748">
        <ele>132.6</ele>
        <time>2014-05-18T12:23:09.79</time>
      </trkpt>
      <trkpt lat="50.05623" lon="2.26747">
        <ele>133.9</ele>
        <time>2014-05-18T12:23:16.79</time>
      </trkpt>
      <trkpt lat="50.05627" lon="2.26749">
        <ele>135.3</ele>
        <time>2014-05-18T12:23:23.79</time>
      </trkpt>
      <trkpt lat="50.05627" lon="2.26747">
        <ele>135.4</ele>
        <time>2014-05-18T12:23:30.79</time>
      </trkpt>
      <trkpt lat="50.05632" lon="2.26741">
        <ele>134.4</ele>
        <time>2014-05-18T12:23:32.81</time>
      </trkpt>
      <trkpt lat="50.05633" lon="2.26741">
        <ele>133.8</ele>
        <time>2014-05-18T12:23:39.86</time>
      </trkpt>
      <trkpt lat="50.05632" lon="2.26737">
        <ele>132.8</ele>
        <time>2014-05-18T12:23:41.80</time>
      </trkpt>
      <trkpt lat="50.05633" lon="2.26742">
        <ele>133.2</ele>
        <time>2014-05-18T12:23:48.78</time>
      </trkpt>
      <trkpt lat="50.05634" lon="2.26735">
        <ele>134.8</ele>
        <time>2014-05-18T12:23:55.78</time>
      </trkpt>
      <trkpt lat="50.05631" lon="2.26732">
        <ele>135</ele>
        <time>2014-05-18T12:24:02.79</time>
      </trkpt>
      <trkpt lat="50.05632" lon="2.26737">
        <ele>134.7</ele>
        <time>2014-05-18T12:24:09.78</time>
      </trkpt>
      <trkpt lat="50.05632" lon="2.26737">
        <ele>135.3</ele>
        <time>2014-05-18T12:24:16.78</time>
      </trkpt>
      <trkpt lat="50.05631" lon="2.26725">
        <ele>135.1</ele>
        <time>2014-05-18T12:24:20.82</time>
      </trkpt>
      <trkpt lat="50.05632" lon="2.26722">
        <ele>135.2</ele>
        <time>2014-05-18T12:24:27.78</time>
      </trkpt>
      <trkpt lat="50.05625" lon="2.26731">
        <ele>136</ele>
        <time>2014-05-18T12:24:31.80</time>
      </trkpt>
      <trkpt lat="50.05623" lon="2.26733">
        <ele>136.4</ele>
        <time>2014-05-18T12:24:38.79</time>
      </trkpt>
      <trkpt lat="50.05623" lon="2.2673">
        <ele>136.1</ele>
        <time>2014-05-18T12:24:45.78</time>
      </trkpt>
      <trkpt lat="50.05624" lon="2.26729">
        <ele>135.8</ele>
        <time>2014-05-18T12:24:52.78</time>
      </trkpt>
      <trkpt lat="50.05627" lon="2.26716">
        <ele>135.5</ele>
        <time>2014-05-18T12:24:54.80</time>
      </trkpt>
      <trkpt lat="50.05628" lon="2.2671">
        <ele>135.8</ele>
        <time>2014-05-18T12:25:01.78</time>
      </trkpt>
      <trkpt lat="50.05628" lon="2.2671">
        <ele>136.2</ele>
        <time>2014-05-18T12:25:08.78</time>
      </trkpt>
      <trkpt lat="50.05626" lon="2.26717">
        <ele>136.6</ele>
        <time>2014-05-18T12:25:15.78</time>
      </trkpt>
      <trkpt lat="50.05628" lon="2.26721">
        <ele>135.4</ele>
        <time>2014-05-18T12:25:22.78</time>
      </trkpt>
      <trkpt lat="50.05628" lon="2.2672">
        <ele>134.6</ele>
        <time>2014-05-18T12:25:29.78</time>
      </trkpt>
      <trkpt lat="50.05625" lon="2.26714">
        <ele>132.9</ele>
        <time>2014-05-18T12:25:36.78</time>
      </trkpt>
      <trkpt lat="50.05627" lon="2.26719">
        <ele>132.8</ele>
        <time>2014-05-18T12:25:43.80</time>
      </trkpt>
      <trkpt lat="50.05629" lon="2.2672">
        <ele>133.5</ele>
        <time>2014-05-18T12:25:50.78</time>
      </trkpt>
      <trkpt lat="50.05624" lon="2.26729">
        <ele>134.9</ele>
        <time>2014-05-18T12:25:53.80</time>
      </trkpt>
      <trkpt lat="50.05622" lon="2.2673">
        <ele>134.8</ele>
        <time>2014-05-18T12:26:00.78</time>
      </trkpt>
      <trkpt lat="50.05625" lon="2.26734">
        <ele>134.9</ele>
        <time>2014-05-18T12:26:07.78</time>
      </trkpt>
      <trkpt lat="50.05625" lon="2.26737">
        <ele>135.1</ele>
        <time>2014-05-18T12:26:14.78</time>
      </trkpt>
      <trkpt lat="50.05626" lon="2.26743">
        <ele>136.1</ele>
        <time>2014-05-18T12:26:17.80</time>
      </trkpt>
      <trkpt lat="50.05633" lon="2.26738">
        <ele>134.2</ele>
        <time>2014-05-18T12:26:18.71</time>
      </trkpt>
      <trkpt lat="50.05637" lon="2.26734">
        <ele>133.8</ele>
        <time>2014-05-18T12:26:25.71</time>
      </trkpt>
      <trkpt lat="50.05639" lon="2.26734">
        <ele>133.8</ele>
        <time>2014-05-18T12:26:32.71</time>
      </trkpt>
      <trkpt lat="50.0564" lon="2.26727">
        <ele>134.5</ele>
        <time>2014-05-18T12:26:35.71</time>
      </trkpt>
      <trkpt lat="50.05637" lon="2.26723">
        <ele>133.3</ele>
        <time>2014-05-18T12:26:42.71</time>
      </trkpt>
      <trkpt lat="50.05622" lon="2.2673">
        <ele>135.4</ele>
        <time>2014-05-18T12:26:44.71</time>
      </trkpt>
      <trkpt lat="50.0563" lon="2.26738">
        <ele>136.5</ele>
        <time>2014-05-18T12:26:51.73</time>
      </trkpt>
      <trkpt lat="50.05628" lon="2.26743">
        <ele>136.6</ele>
        <time>2014-05-18T12:26:58.71</time>
      </trkpt>
      <trkpt lat="50.05635" lon="2.26728">
        <ele>137.5</ele>
        <time>2014-05-18T12:27:02.71</time>
      </trkpt>
      <trkpt lat="50.05628" lon="2.26731">
        <ele>138.5</ele>
        <time>2014-05-18T12:27:05.80</time>
      </trkpt>
      <trkpt lat="50.05642" lon="2.26719">
        <ele>138.3</ele>
        <time>2014-05-18T12:27:07.77</time>
      </trkpt>
      <trkpt lat="50.05649" lon="2.26718">
        <ele>138.4</ele>
        <time>2014-05-18T12:27:14.75</time>
      </trkpt>
      <trkpt lat="50.05652" lon="2.26718">
        <ele>138.4</ele>
        <time>2014-05-18T12:27:21.75</time>
      </trkpt>
      <trkpt lat="50.05659" lon="2.26723">
        <ele>138.5</ele>
        <time>2014-05-18T12:27:24.75</time>
      </trkpt>
      <trkpt lat="50.05654" lon="2.26725">
        <ele>138.5</ele>
        <time>2014-05-18T12:27:31.75</time>
      </trkpt>
      <trkpt lat="50.05645" lon="2.26714">
        <ele>138.8</ele>
        <time>2014-05-18T12:27:38.77</time>
      </trkpt>
      <trkpt lat="50.0563" lon="2.26721">
        <ele>139.9</ele>
        <time>2014-05-18T12:27:41.77</time>
      </trkpt>
      <trkpt lat="50.05642" lon="2.26719">
        <ele>140.5</ele>
        <time>2014-05-18T12:27:48.75</time>
      </trkpt>
      <trkpt lat="50.05635" lon="2.26719">
        <ele>140.9</ele>
        <time>2014-05-18T12:27:51.73</time>
      </trkpt>
      <trkpt lat="50.05644" lon="2.26717">
        <ele>140.4</ele>
        <time>2014-05-18T12:27:57.73</time>
      </trkpt>
      <trkpt lat="50.05649" lon="2.26713">
        <ele>140.2</ele>
        <time>2014-05-18T12:28:04.73</time>
      </trkpt>
      <trkpt lat="50.05642" lon="2.26713">
        <ele>143.7</ele>
        <time>2014-05-18T12:28:11.75</time>
      </trkpt>
      <trkpt lat="50.05634" lon="2.26699">
        <ele>143.9</ele>
        <time>2014-05-18T12:28:14.76</time>
      </trkpt>
      <trkpt lat="50.05633" lon="2.26694">
        <ele>143.8</ele>
        <time>2014-05-18T12:28:21.73</time>
      </trkpt>
      <trkpt lat="50.05642" lon="2.26699">
        <ele>143.9</ele>
        <time>2014-05-18T12:28:24.75</time>
      </trkpt>
      <trkpt lat="50.05634" lon="2.26705">
        <ele>145.8</ele>
        <time>2014-05-18T12:28:26.76</time>
      </trkpt>
      <trkpt lat="50.05631" lon="2.2671">
        <ele>146.2</ele>
        <time>2014-05-18T12:28:33.73</time>
      </trkpt>
      <trkpt lat="50.05631" lon="2.26711">
        <ele>146.1</ele>
        <time>2014-05-18T12:28:39.76</time>
      </trkpt>
      <trkpt lat="50.05631" lon="2.26713">
        <ele>147.5</ele>
        <time>2014-05-18T12:28:46.76</time>
      </trkpt>
      <trkpt lat="50.05628" lon="2.26722">
        <ele>148</ele>
        <time>2014-05-18T12:28:47.75</time>
      </trkpt>
      <trkpt lat="50.05626" lon="2.26726">
        <ele>147.8</ele>
        <time>2014-05-18T12:28:54.73</time>
      </trkpt>
      <trkpt lat="50.0562" lon="2.26731">
        <ele>147.8</ele>
        <time>2014-05-18T12:29:01.73</time>
      </trkpt>
      <trkpt lat="50.05615" lon="2.26734">
        <ele>148</ele>
        <time>2014-05-18T12:29:08.73</time>
      </trkpt>
      <trkpt lat="50.05609" lon="2.26731">
        <ele>148.1</ele>
        <time>2014-05-18T12:29:15.73</time>
      </trkpt>
      <trkpt lat="50.05601" lon="2.26731">
        <ele>147.4</ele>
        <time>2014-05-18T12:29:22.73</time>
      </trkpt>
      <trkpt lat="50.05598" lon="2.26725">
        <ele>147.3</ele>
        <time>2014-05-18T12:29:29.73</time>
      </trkpt>
      <trkpt lat="50.05604" lon="2.26721">
        <ele>147.5</ele>
        <time>2014-05-18T12:29:36.73</time>
      </trkpt>
      <trkpt lat="50.05604" lon="2.26712">
        <ele>147.6</ele>
        <time>2014-05-18T12:29:43.75</time>
      </trkpt>
      <trkpt lat="50.05604" lon="2.26703">
        <ele>147.7</ele>
        <time>2014-05-18T12:29:50.73</time>
      </trkpt>
      <trkpt lat="50.05604" lon="2.26697">
        <ele>147.6</ele>
        <time>2014-05-18T12:29:57.73</time>
      </trkpt>
      <trkpt lat="50.05605" lon="2.26687">
        <ele>147.5</ele>
        <time>2014-05-18T12:30:04.73</time>
      </trkpt>
      <trkpt lat="50.05604" lon="2.26674">
        <ele>147.2</ele>
        <time>2014-05-18T12:30:10.73</time>
      </trkpt>
      <trkpt lat="50.05602" lon="2.26662">
        <ele>147.2</ele>
        <time>2014-05-18T12:30:16.73</time>
      </trkpt>
      <trkpt lat="50.05599" lon="2.26652">
        <ele>147.3</ele>
        <time>2014-05-18T12:30:22.73</time>
      </trkpt>
      <trkpt lat="50.05599" lon="2.2664">
        <ele>147.4</ele>
        <time>2014-05-18T12:30:29.73</time>
      </trkpt>
      <trkpt lat="50.05596" lon="2.26629">
        <ele>147.4</ele>
        <time>2014-05-18T12:30:35.73</time>
      </trkpt>
      <trkpt lat="50.05595" lon="2.26618">
        <ele>147.5</ele>
        <time>2014-05-18T12:30:41.73</time>
      </trkpt>
      <trkpt lat="50.05596" lon="2.26605">
        <ele>147.1</ele>
        <time>2014-05-18T12:30:44.73</time>
      </trkpt>
      <trkpt lat="50.05595" lon="2.26593">
        <ele>146.9</ele>
        <time>2014-05-18T12:30:49.73</time>
      </trkpt>
      <trkpt lat="50.05595" lon="2.26582">
        <ele>146.8</ele>
        <time>2014-05-18T12:30:55.73</time>
      </trkpt>
      <trkpt lat="50.05592" lon="2.26571">
        <ele>146.6</ele>
        <time>2014-05-18T12:31:01.75</time>
      </trkpt>
      <trkpt lat="50.05591" lon="2.2656">
        <ele>146.4</ele>
        <time>2014-05-18T12:31:06.73</time>
      </trkpt>
      <trkpt lat="50.0559" lon="2.26546">
        <ele>146.1</ele>
        <time>2014-05-18T12:31:13.73</time>
      </trkpt>
      <trkpt lat="50.05592" lon="2.26534">
        <ele>145.7</ele>
        <time>2014-05-18T12:31:20.73</time>
      </trkpt>
      <trkpt lat="50.0559" lon="2.26523">
        <ele>145.3</ele>
        <time>2014-05-18T12:31:25.73</time>
      </trkpt>
      <trkpt lat="50.0559" lon="2.26511">
        <ele>144.9</ele>
        <time>2014-05-18T12:31:31.73</time>
      </trkpt>
      <trkpt lat="50.05588" lon="2.265">
        <ele>144.7</ele>
        <time>2014-05-18T12:31:37.73</time>
      </trkpt>
      <trkpt lat="50.05588" lon="2.26488">
        <ele>144.4</ele>
        <time>2014-05-18T12:31:44.73</time>
      </trkpt>
      <trkpt lat="50.05587" lon="2.26479">
        <ele>144.3</ele>
        <time>2014-05-18T12:31:51.73</time>
      </trkpt>
      <trkpt lat="50.05585" lon="2.26471">
        <ele>144.4</ele>
        <time>2014-05-18T12:31:58.73</time>
      </trkpt>
      <trkpt lat="50.05585" lon="2.26462">
        <ele>144.6</ele>
        <time>2014-05-18T12:32:05.73</time>
      </trkpt>
      <trkpt lat="50.05587" lon="2.26451">
        <ele>144.7</ele>
        <time>2014-05-18T12:32:12.73</time>
      </trkpt>
      <trkpt lat="50.05585" lon="2.26439">
        <ele>144.7</ele>
        <time>2014-05-18T12:32:18.73</time>
      </trkpt>
      <trkpt lat="50.05583" lon="2.26427">
        <ele>144.5</ele>
        <time>2014-05-18T12:32:24.73</time>
      </trkpt>
      <trkpt lat="50.05583" lon="2.26416">
        <ele>144.5</ele>
        <time>2014-05-18T12:32:30.73</time>
      </trkpt>
      <trkpt lat="50.05583" lon="2.26403">
        <ele>144.4</ele>
        <time>2014-05-18T12:32:37.73</time>
      </trkpt>
      <trkpt lat="50.05582" lon="2.26391">
        <ele>144.2</ele>
        <time>2014-05-18T12:32:42.73</time>
      </trkpt>
      <trkpt lat="50.05582" lon="2.26379">
        <ele>144.1</ele>
        <time>2014-05-18T12:32:48.73</time>
      </trkpt>
      <trkpt lat="50.05583" lon="2.26366">
        <ele>144</ele>
        <time>2014-05-18T12:32:54.73</time>
      </trkpt>
      <trkpt lat="50.0558" lon="2.26355">
        <ele>143.8</ele>
        <time>2014-05-18T12:33:00.73</time>
      </trkpt>
      <trkpt lat="50.05579" lon="2.26343">
        <ele>143.8</ele>
        <time>2014-05-18T12:33:05.73</time>
      </trkpt>
      <trkpt lat="50.05579" lon="2.26331">
        <ele>143.8</ele>
        <time>2014-05-18T12:33:11.73</time>
      </trkpt>
      <trkpt lat="50.05579" lon="2.26319">
        <ele>143.9</ele>
        <time>2014-05-18T12:33:15.78</time>
      </trkpt>
      <trkpt lat="50.05578" lon="2.26307">
        <ele>144.1</ele>
        <time>2014-05-18T12:33:21.73</time>
      </trkpt>
      <trkpt lat="50.0558" lon="2.26295">
        <ele>144.8</ele>
        <time>2014-05-18T12:33:27.73</time>
      </trkpt>
      <trkpt lat="50.0558" lon="2.26281">
        <ele>145.4</ele>
        <time>2014-05-18T12:33:34.73</time>
      </trkpt>
      <trkpt lat="50.05577" lon="2.2627">
        <ele>146.1</ele>
        <time>2014-05-18T12:33:39.73</time>
      </trkpt>
      <trkpt lat="50.05577" lon="2.2626">
        <ele>146.2</ele>
        <time>2014-05-18T12:33:46.73</time>
      </trkpt>
      <trkpt lat="50.05578" lon="2.26248">
        <ele>146.5</ele>
        <time>2014-05-18T12:33:52.73</time>
      </trkpt>
      <trkpt lat="50.05579" lon="2.26236">
        <ele>146.8</ele>
        <time>2014-05-18T12:33:58.76</time>
      </trkpt>
      <trkpt lat="50.05574" lon="2.26226">
        <ele>146</ele>
        <time>2014-05-18T12:34:02.73</time>
      </trkpt>
      <trkpt lat="50.05569" lon="2.26216">
        <ele>145</ele>
        <time>2014-05-18T12:34:07.73</time>
      </trkpt>
      <trkpt lat="50.05565" lon="2.26206">
        <ele>144.3</ele>
        <time>2014-05-18T12:34:13.75</time>
      </trkpt>
      <trkpt lat="50.05559" lon="2.26195">
        <ele>143.7</ele>
        <time>2014-05-18T12:34:20.73</time>
      </trkpt>
      <trkpt lat="50.05556" lon="2.26185">
        <ele>143.6</ele>
        <time>2014-05-18T12:34:26.73</time>
      </trkpt>
      <trkpt lat="50.05552" lon="2.26176">
        <ele>142.5</ele>
        <time>2014-05-18T12:34:31.73</time>
      </trkpt>
      <trkpt lat="50.05549" lon="2.26165">
        <ele>140.9</ele>
        <time>2014-05-18T12:34:38.73</time>
      </trkpt>
      <trkpt lat="50.05544" lon="2.26156">
        <ele>139.7</ele>
        <time>2014-05-18T12:34:44.73</time>
      </trkpt>
      <trkpt lat="50.0554" lon="2.26146">
        <ele>138.5</ele>
        <time>2014-05-18T12:34:49.73</time>
      </trkpt>
      <trkpt lat="50.05536" lon="2.26134">
        <ele>136.9</ele>
        <time>2014-05-18T12:34:56.73</time>
      </trkpt>
      <trkpt lat="50.05534" lon="2.26123">
        <ele>135.4</ele>
        <time>2014-05-18T12:35:03.73</time>
      </trkpt>
      <trkpt lat="50.05531" lon="2.26112">
        <ele>134.4</ele>
        <time>2014-05-18T12:35:09.73</time>
      </trkpt>
      <trkpt lat="50.05528" lon="2.26098">
        <ele>132.6</ele>
        <time>2014-05-18T12:35:16.73</time>
      </trkpt>
      <trkpt lat="50.05525" lon="2.26089">
        <ele>131.8</ele>
        <time>2014-05-18T12:35:20.73</time>
      </trkpt>
      <trkpt lat="50.05524" lon="2.26077">
        <ele>130</ele>
        <time>2014-05-18T12:35:27.73</time>
      </trkpt>
      <trkpt lat="50.05521" lon="2.26066">
        <ele>128.7</ele>
        <time>2014-05-18T12:35:33.73</time>
      </trkpt>
      <trkpt lat="50.05517" lon="2.26056">
        <ele>127</ele>
        <time>2014-05-18T12:35:39.82</time>
      </trkpt>
      <trkpt lat="50.05512" lon="2.26045">
        <ele>125.6</ele>
        <time>2014-05-18T12:35:46.73</time>
      </trkpt>
      <trkpt lat="50.0551" lon="2.26033">
        <ele>124.1</ele>
        <time>2014-05-18T12:35:53.73</time>
      </trkpt>
      <trkpt lat="50.05506" lon="2.26023">
        <ele>123</ele>
        <time>2014-05-18T12:35:58.73</time>
      </trkpt>
      <trkpt lat="50.05503" lon="2.26012">
        <ele>122.1</ele>
        <time>2014-05-18T12:36:05.73</time>
      </trkpt>
      <trkpt lat="50.055" lon="2.26001">
        <ele>121.6</ele>
        <time>2014-05-18T12:36:11.73</time>
      </trkpt>
      <trkpt lat="50.05498" lon="2.2599">
        <ele>121.3</ele>
        <time>2014-05-18T12:36:18.73</time>
      </trkpt>
      <trkpt lat="50.05493" lon="2.25979">
        <ele>120.8</ele>
        <time>2014-05-18T12:36:23.73</time>
      </trkpt>
      <trkpt lat="50.05489" lon="2.25968">
        <ele>120.4</ele>
        <time>2014-05-18T12:36:30.73</time>
      </trkpt>
      <trkpt lat="50.05489" lon="2.25957">
        <ele>119.7</ele>
        <time>2014-05-18T12:36:35.73</time>
      </trkpt>
      <trkpt lat="50.05487" lon="2.25945">
        <ele>118.5</ele>
        <time>2014-05-18T12:36:41.73</time>
      </trkpt>
      <trkpt lat="50.05485" lon="2.25934">
        <ele>117.5</ele>
        <time>2014-05-18T12:36:46.75</time>
      </trkpt>
      <trkpt lat="50.05483" lon="2.25923">
        <ele>116.1</ele>
        <time>2014-05-18T12:36:53.73</time>
      </trkpt>
      <trkpt lat="50.05477" lon="2.25915">
        <ele>115.9</ele>
        <time>2014-05-18T12:36:58.73</time>
      </trkpt>
      <trkpt lat="50.05469" lon="2.25913">
        <ele>115.4</ele>
        <time>2014-05-18T12:37:03.73</time>
      </trkpt>
      <trkpt lat="50.05462" lon="2.25913">
        <ele>114.8</ele>
        <time>2014-05-18T12:37:09.73</time>
      </trkpt>
      <trkpt lat="50.05454" lon="2.2591">
        <ele>114.2</ele>
        <time>2014-05-18T12:37:15.73</time>
      </trkpt>
      <trkpt lat="50.05449" lon="2.25903">
        <ele>115</ele>
        <time>2014-05-18T12:37:22.73</time>
      </trkpt>
      <trkpt lat="50.05445" lon="2.25892">
        <ele>115.7</ele>
        <time>2014-05-18T12:37:28.73</time>
      </trkpt>
      <trkpt lat="50.05443" lon="2.25882">
        <ele>116.3</ele>
        <time>2014-05-18T12:37:34.73</time>
      </trkpt>
      <trkpt lat="50.05441" lon="2.25871">
        <ele>116.4</ele>
        <time>2014-05-18T12:37:40.73</time>
      </trkpt>
      <trkpt lat="50.05438" lon="2.2586">
        <ele>116.4</ele>
        <time>2014-05-18T12:37:45.73</time>
      </trkpt>
      <trkpt lat="50.05436" lon="2.25849">
        <ele>116.6</ele>
        <time>2014-05-18T12:37:52.73</time>
      </trkpt>
      <trkpt lat="50.05433" lon="2.25837">
        <ele>116.6</ele>
        <time>2014-05-18T12:37:59.73</time>
      </trkpt>
      <trkpt lat="50.05431" lon="2.25826">
        <ele>116.8</ele>
        <time>2014-05-18T12:38:05.73</time>
      </trkpt>
      <trkpt lat="50.05429" lon="2.25814">
        <ele>116.9</ele>
        <time>2014-05-18T12:38:10.73</time>
      </trkpt>
      <trkpt lat="50.05426" lon="2.25802">
        <ele>116.7</ele>
        <time>2014-05-18T12:38:17.73</time>
      </trkpt>
      <trkpt lat="50.05422" lon="2.25791">
        <ele>117</ele>
        <time>2014-05-18T12:38:23.73</time>
      </trkpt>
      <trkpt lat="50.05419" lon="2.2578">
        <ele>117</ele>
        <time>2014-05-18T12:38:28.73</time>
      </trkpt>
      <trkpt lat="50.05415" lon="2.2577">
        <ele>117</ele>
        <time>2014-05-18T12:38:34.73</time>
      </trkpt>
      <trkpt lat="50.05413" lon="2.25758">
        <ele>116.9</ele>
        <time>2014-05-18T12:38:40.73</time>
      </trkpt>
      <trkpt lat="50.05411" lon="2.25745">
        <ele>116.6</ele>
        <time>2014-05-18T12:38:47.73</time>
      </trkpt>
      <trkpt lat="50.05411" lon="2.25735">
        <ele>117.1</ele>
        <time>2014-05-18T12:38:54.73</time>
      </trkpt>
      <trkpt lat="50.05409" lon="2.25723">
        <ele>117.2</ele>
        <time>2014-05-18T12:39:00.73</time>
      </trkpt>
      <trkpt lat="50.05407" lon="2.2571">
        <ele>117.7</ele>
        <time>2014-05-18T12:39:07.73</time>
      </trkpt>
      <trkpt lat="50.05404" lon="2.25699">
        <ele>118</ele>
        <time>2014-05-18T12:39:12.73</time>
      </trkpt>
      <trkpt lat="50.05402" lon="2.25688">
        <ele>117.5</ele>
        <time>2014-05-18T12:39:19.73</time>
      </trkpt>
      <trkpt lat="50.05401" lon="2.25677">
        <ele>117.7</ele>
        <time>2014-05-18T12:39:26.73</time>
      </trkpt>
      <trkpt lat="50.054" lon="2.25667">
        <ele>117.8</ele>
        <time>2014-05-18T12:39:31.73</time>
      </trkpt>
      <trkpt lat="50.05397" lon="2.25654">
        <ele>118.2</ele>
        <time>2014-05-18T12:39:38.73</time>
      </trkpt>
      <trkpt lat="50.05395" lon="2.25643">
        <ele>118.3</ele>
        <time>2014-05-18T12:39:43.73</time>
      </trkpt>
      <trkpt lat="50.05393" lon="2.25634">
        <ele>119.2</ele>
        <time>2014-05-18T12:39:50.73</time>
      </trkpt>
      <trkpt lat="50.05391" lon="2.25621">
        <ele>119.3</ele>
        <time>2014-05-18T12:39:55.73</time>
      </trkpt>
      <trkpt lat="50.05389" lon="2.25609">
        <ele>119.6</ele>
        <time>2014-05-18T12:40:02.73</time>
      </trkpt>
      <trkpt lat="50.05386" lon="2.25598">
        <ele>119.6</ele>
        <time>2014-05-18T12:40:08.73</time>
      </trkpt>
      <trkpt lat="50.05383" lon="2.25588">
        <ele>119.3</ele>
        <time>2014-05-18T12:40:14.73</time>
      </trkpt>
      <trkpt lat="50.05379" lon="2.25577">
        <ele>119.1</ele>
        <time>2014-05-18T12:40:21.73</time>
      </trkpt>
      <trkpt lat="50.05377" lon="2.25565">
        <ele>119</ele>
        <time>2014-05-18T12:40:28.73</time>
      </trkpt>
      <trkpt lat="50.05376" lon="2.25553">
        <ele>119.3</ele>
        <time>2014-05-18T12:40:33.73</time>
      </trkpt>
      <trkpt lat="50.05375" lon="2.25542">
        <ele>120.1</ele>
        <time>2014-05-18T12:40:38.73</time>
      </trkpt>
      <trkpt lat="50.05373" lon="2.2553">
        <ele>119.9</ele>
        <time>2014-05-18T12:40:45.73</time>
      </trkpt>
      <trkpt lat="50.05371" lon="2.25519">
        <ele>120.2</ele>
        <time>2014-05-18T12:40:51.75</time>
      </trkpt>
      <trkpt lat="50.05369" lon="2.25507">
        <ele>120.1</ele>
        <time>2014-05-18T12:40:57.73</time>
      </trkpt>
      <trkpt lat="50.05366" lon="2.25496">
        <ele>120</ele>
        <time>2014-05-18T12:41:03.73</time>
      </trkpt>
      <trkpt lat="50.05364" lon="2.25484">
        <ele>119.6</ele>
        <time>2014-05-18T12:41:09.73</time>
      </trkpt>
      <trkpt lat="50.05362" lon="2.25472">
        <ele>119.8</ele>
        <time>2014-05-18T12:41:16.73</time>
      </trkpt>
      <trkpt lat="50.05359" lon="2.25461">
        <ele>119.6</ele>
        <time>2014-05-18T12:41:22.73</time>
      </trkpt>
      <trkpt lat="50.05356" lon="2.2545">
        <ele>119.5</ele>
        <time>2014-05-18T12:41:27.73</time>
      </trkpt>
      <trkpt lat="50.05354" lon="2.25439">
        <ele>119.5</ele>
        <time>2014-05-18T12:41:33.73</time>
      </trkpt>
      <trkpt lat="50.05353" lon="2.25427">
        <ele>119.1</ele>
        <time>2014-05-18T12:41:40.73</time>
      </trkpt>
      <trkpt lat="50.05352" lon="2.25416">
        <ele>119.2</ele>
        <time>2014-05-18T12:41:46.73</time>
      </trkpt>
      <trkpt lat="50.05348" lon="2.25403">
        <ele>119</ele>
        <time>2014-05-18T12:41:52.73</time>
      </trkpt>
      <trkpt lat="50.05347" lon="2.25391">
        <ele>119</ele>
        <time>2014-05-18T12:41:57.73</time>
      </trkpt>
      <trkpt lat="50.05343" lon="2.2538">
        <ele>118.9</ele>
        <time>2014-05-18T12:42:04.73</time>
      </trkpt>
      <trkpt lat="50.05342" lon="2.2537">
        <ele>119.1</ele>
        <time>2014-05-18T12:42:11.73</time>
      </trkpt>
      <trkpt lat="50.05339" lon="2.25358">
        <ele>119.3</ele>
        <time>2014-05-18T12:42:17.73</time>
      </trkpt>
      <trkpt lat="50.05336" lon="2.25347">
        <ele>119.7</ele>
        <time>2014-05-18T12:42:23.73</time>
      </trkpt>
      <trkpt lat="50.05335" lon="2.25336">
        <ele>120.1</ele>
        <time>2014-05-18T12:42:29.73</time>
      </trkpt>
      <trkpt lat="50.05332" lon="2.25324">
        <ele>120.6</ele>
        <time>2014-05-18T12:42:36.73</time>
      </trkpt>
      <trkpt lat="50.0533" lon="2.25312">
        <ele>121.1</ele>
        <time>2014-05-18T12:42:41.73</time>
      </trkpt>
      <trkpt lat="50.05329" lon="2.25299">
        <ele>121.6</ele>
        <time>2014-05-18T12:42:48.73</time>
      </trkpt>
      <trkpt lat="50.0533" lon="2.25288">
        <ele>122.3</ele>
        <time>2014-05-18T12:42:54.73</time>
      </trkpt>
      <trkpt lat="50.05335" lon="2.25277">
        <ele>123.2</ele>
        <time>2014-05-18T12:43:00.73</time>
      </trkpt>
      <trkpt lat="50.05336" lon="2.25266">
        <ele>123.6</ele>
        <time>2014-05-18T12:43:07.73</time>
      </trkpt>
      <trkpt lat="50.05335" lon="2.25253">
        <ele>124.2</ele>
        <time>2014-05-18T12:43:14.73</time>
      </trkpt>
      <trkpt lat="50.05334" lon="2.25241">
        <ele>123.8</ele>
        <time>2014-05-18T12:43:20.73</time>
      </trkpt>
      <trkpt lat="50.05332" lon="2.25229">
        <ele>124.1</ele>
        <time>2014-05-18T12:43:27.73</time>
      </trkpt>
      <trkpt lat="50.05329" lon="2.25218">
        <ele>124.6</ele>
        <time>2014-05-18T12:43:32.73</time>
      </trkpt>
      <trkpt lat="50.05327" lon="2.25207">
        <ele>125</ele>
        <time>2014-05-18T12:43:39.73</time>
      </trkpt>
      <trkpt lat="50.05324" lon="2.25195">
        <ele>125.3</ele>
        <time>2014-05-18T12:43:45.73</time>
      </trkpt>
      <trkpt lat="50.05324" lon="2.25183">
        <ele>125.5</ele>
        <time>2014-05-18T12:43:51.73</time>
      </trkpt>
      <trkpt lat="50.05322" lon="2.25172">
        <ele>125.9</ele>
        <time>2014-05-18T12:43:56.73</time>
      </trkpt>
      <trkpt lat="50.05321" lon="2.25161">
        <ele>126.2</ele>
        <time>2014-05-18T12:44:02.73</time>
      </trkpt>
      <trkpt lat="50.05319" lon="2.25148">
        <ele>125.8</ele>
        <time>2014-05-18T12:44:09.73</time>
      </trkpt>
      <trkpt lat="50.05317" lon="2.25137">
        <ele>125.9</ele>
        <time>2014-05-18T12:44:14.73</time>
      </trkpt>
      <trkpt lat="50.05313" lon="2.25127">
        <ele>125.7</ele>
        <time>2014-05-18T12:44:21.73</time>
      </trkpt>
      <trkpt lat="50.05312" lon="2.25113">
        <ele>125.8</ele>
        <time>2014-05-18T12:44:27.73</time>
      </trkpt>
      <trkpt lat="50.05308" lon="2.25102">
        <ele>125.9</ele>
        <time>2014-05-18T12:44:33.73</time>
      </trkpt>
      <trkpt lat="50.05307" lon="2.2509">
        <ele>126.9</ele>
        <time>2014-05-18T12:44:40.73</time>
      </trkpt>
      <trkpt lat="50.05304" lon="2.2508">
        <ele>127.1</ele>
        <time>2014-05-18T12:44:46.73</time>
      </trkpt>
      <trkpt lat="50.05301" lon="2.25069">
        <ele>127.1</ele>
        <time>2014-05-18T12:44:51.73</time>
      </trkpt>
      <trkpt lat="50.053" lon="2.25058">
        <ele>126.8</ele>
        <time>2014-05-18T12:44:58.73</time>
      </trkpt>
      <trkpt lat="50.05297" lon="2.25047">
        <ele>127</ele>
        <time>2014-05-18T12:45:04.73</time>
      </trkpt>
      <trkpt lat="50.05294" lon="2.25036">
        <ele>127.1</ele>
        <time>2014-05-18T12:45:09.73</time>
      </trkpt>
      <trkpt lat="50.05293" lon="2.25024">
        <ele>127.3</ele>
        <time>2014-05-18T12:45:14.73</time>
      </trkpt>
      <trkpt lat="50.05293" lon="2.25016">
        <ele>127.1</ele>
        <time>2014-05-18T12:45:21.73</time>
      </trkpt>
      <trkpt lat="50.0529" lon="2.25004">
        <ele>127</ele>
        <time>2014-05-18T12:45:27.73</time>
      </trkpt>
      <trkpt lat="50.05288" lon="2.24993">
        <ele>126.5</ele>
        <time>2014-05-18T12:45:33.73</time>
      </trkpt>
      <trkpt lat="50.05285" lon="2.24982">
        <ele>126.4</ele>
        <time>2014-05-18T12:45:39.73</time>
      </trkpt>
      <trkpt lat="50.05283" lon="2.24971">
        <ele>125.8</ele>
        <time>2014-05-18T12:45:45.73</time>
      </trkpt>
      <trkpt lat="50.0528" lon="2.24959">
        <ele>125.5</ele>
        <time>2014-05-18T12:45:50.73</time>
      </trkpt>
      <trkpt lat="50.05278" lon="2.24948">
        <ele>125.4</ele>
        <time>2014-05-18T12:45:56.73</time>
      </trkpt>
      <trkpt lat="50.05275" lon="2.24936">
        <ele>125</ele>
        <time>2014-05-18T12:46:02.73</time>
      </trkpt>
      <trkpt lat="50.05272" lon="2.24924">
        <ele>124.7</ele>
        <time>2014-05-18T12:46:08.73</time>
      </trkpt>
      <trkpt lat="50.05271" lon="2.24912">
        <ele>124.9</ele>
        <time>2014-05-18T12:46:15.73</time>
      </trkpt>
      <trkpt lat="50.05268" lon="2.249">
        <ele>125.1</ele>
        <time>2014-05-18T12:46:21.73</time>
      </trkpt>
      <trkpt lat="50.05267" lon="2.24887">
        <ele>124.9</ele>
        <time>2014-05-18T12:46:27.74</time>
      </trkpt>
      <trkpt lat="50.05266" lon="2.24875">
        <ele>125</ele>
        <time>2014-05-18T12:46:33.73</time>
      </trkpt>
      <trkpt lat="50.05265" lon="2.24863">
        <ele>125.3</ele>
        <time>2014-05-18T12:46:40.73</time>
      </trkpt>
      <trkpt lat="50.05264" lon="2.24851">
        <ele>125.6</ele>
        <time>2014-05-18T12:46:46.73</time>
      </trkpt>
      <trkpt lat="50.05265" lon="2.2484">
        <ele>125.6</ele>
        <time>2014-05-18T12:46:52.73</time>
      </trkpt>
      <trkpt lat="50.05265" lon="2.24828">
        <ele>125.9</ele>
        <time>2014-05-18T12:46:57.73</time>
      </trkpt>
      <trkpt lat="50.05265" lon="2.24815">
        <ele>126.7</ele>
        <time>2014-05-18T12:47:03.73</time>
      </trkpt>
      <trkpt lat="50.05266" lon="2.24803">
        <ele>127.2</ele>
        <time>2014-05-18T12:47:09.73</time>
      </trkpt>
      <trkpt lat="50.05268" lon="2.24793">
        <ele>127.1</ele>
        <time>2014-05-18T12:47:14.73</time>
      </trkpt>
      <trkpt lat="50.05269" lon="2.2478">
        <ele>127.2</ele>
        <time>2014-05-18T12:47:20.73</time>
      </trkpt>
      <trkpt lat="50.05269" lon="2.24769">
        <ele>126.8</ele>
        <time>2014-05-18T12:47:25.73</time>
      </trkpt>
      <trkpt lat="50.0527" lon="2.24757">
        <ele>126.6</ele>
        <time>2014-05-18T12:47:30.73</time>
      </trkpt>
      <trkpt lat="50.0527" lon="2.24745">
        <ele>126.9</ele>
        <time>2014-05-18T12:47:36.73</time>
      </trkpt>
      <trkpt lat="50.0527" lon="2.24733">
        <ele>127.1</ele>
        <time>2014-05-18T12:47:43.73</time>
      </trkpt>
      <trkpt lat="50.0527" lon="2.24721">
        <ele>127.3</ele>
        <time>2014-05-18T12:47:48.73</time>
      </trkpt>
      <trkpt lat="50.05269" lon="2.24708">
        <ele>128</ele>
        <time>2014-05-18T12:47:55.73</time>
      </trkpt>
      <trkpt lat="50.0527" lon="2.24696">
        <ele>128.1</ele>
        <time>2014-05-18T12:48:01.73</time>
      </trkpt>
      <trkpt lat="50.05273" lon="2.24684">
        <ele>128.8</ele>
        <time>2014-05-18T12:48:07.74</time>
      </trkpt>
      <trkpt lat="50.0527" lon="2.24672">
        <ele>129.4</ele>
        <time>2014-05-18T12:48:12.73</time>
      </trkpt>
      <trkpt lat="50.0527" lon="2.24661">
        <ele>130.7</ele>
        <time>2014-05-18T12:48:19.77</time>
      </trkpt>
      <trkpt lat="50.0527" lon="2.24649">
        <ele>130.5</ele>
        <time>2014-05-18T12:48:24.73</time>
      </trkpt>
      <trkpt lat="50.0527" lon="2.2464">
        <ele>130.2</ele>
        <time>2014-05-18T12:48:31.73</time>
      </trkpt>
      <trkpt lat="50.05269" lon="2.24626">
        <ele>129.7</ele>
        <time>2014-05-18T12:48:37.73</time>
      </trkpt>
      <trkpt lat="50.05268" lon="2.24615">
        <ele>129.2</ele>
        <time>2014-05-18T12:48:41.73</time>
      </trkpt>
      <trkpt lat="50.05268" lon="2.24603">
        <ele>129</ele>
        <time>2014-05-18T12:48:46.73</time>
      </trkpt>
      <trkpt lat="50.05267" lon="2.2459">
        <ele>128.3</ele>
        <time>2014-05-18T12:48:53.73</time>
      </trkpt>
      <trkpt lat="50.05266" lon="2.24578">
        <ele>128.3</ele>
        <time>2014-05-18T12:48:58.73</time>
      </trkpt>
      <trkpt lat="50.05265" lon="2.24566">
        <ele>127.9</ele>
        <time>2014-05-18T12:49:05.73</time>
      </trkpt>
      <trkpt lat="50.05265" lon="2.24554">
        <ele>127.6</ele>
        <time>2014-05-18T12:49:11.73</time>
      </trkpt>
      <trkpt lat="50.05266" lon="2.24542">
        <ele>127.3</ele>
        <time>2014-05-18T12:49:17.73</time>
      </trkpt>
      <trkpt lat="50.05266" lon="2.24529">
        <ele>127.2</ele>
        <time>2014-05-18T12:49:22.73</time>
      </trkpt>
      <trkpt lat="50.05266" lon="2.24517">
        <ele>127.2</ele>
        <time>2014-05-18T12:49:28.73</time>
      </trkpt>
      <trkpt lat="50.05265" lon="2.24504">
        <ele>127.4</ele>
        <time>2014-05-18T12:49:35.73</time>
      </trkpt>
      <trkpt lat="50.05265" lon="2.24491">
        <ele>126.8</ele>
        <time>2014-05-18T12:49:42.73</time>
      </trkpt>
      <trkpt lat="50.05264" lon="2.24479">
        <ele>126.5</ele>
        <time>2014-05-18T12:49:48.73</time>
      </trkpt>
      <trkpt lat="50.05266" lon="2.24467">
        <ele>126.4</ele>
        <time>2014-05-18T12:49:54.73</time>
      </trkpt>
      <trkpt lat="50.05265" lon="2.24455">
        <ele>125.7</ele>
        <time>2014-05-18T12:50:01.73</time>
      </trkpt>
      <trkpt lat="50.05265" lon="2.24443">
        <ele>124.9</ele>
        <time>2014-05-18T12:50:06.73</time>
      </trkpt>
      <trkpt lat="50.05266" lon="2.24431">
        <ele>124.6</ele>
        <time>2014-05-18T12:50:11.73</time>
      </trkpt>
      <trkpt lat="50.05265" lon="2.24419">
        <ele>124.4</ele>
        <time>2014-05-18T12:50:18.73</time>
      </trkpt>
      <trkpt lat="50.05266" lon="2.24406">
        <ele>124.2</ele>
        <time>2014-05-18T12:50:24.73</time>
      </trkpt>
      <trkpt lat="50.05265" lon="2.24394">
        <ele>124.2</ele>
        <time>2014-05-18T12:50:30.73</time>
      </trkpt>
      <trkpt lat="50.05266" lon="2.24381">
        <ele>124.3</ele>
        <time>2014-05-18T12:50:37.73</time>
      </trkpt>
      <trkpt lat="50.05267" lon="2.24368">
        <ele>124.6</ele>
        <time>2014-05-18T12:50:43.73</time>
      </trkpt>
      <trkpt lat="50.05269" lon="2.24357">
        <ele>124.3</ele>
        <time>2014-05-18T12:50:48.73</time>
      </trkpt>
      <trkpt lat="50.0527" lon="2.24346">
        <ele>124.1</ele>
        <time>2014-05-18T12:50:55.73</time>
      </trkpt>
      <trkpt lat="50.05268" lon="2.24334">
        <ele>124</ele>
        <time>2014-05-18T12:51:02.73</time>
      </trkpt>
      <trkpt lat="50.05267" lon="2.24322">
        <ele>123.7</ele>
        <time>2014-05-18T12:51:09.73</time>
      </trkpt>
      <trkpt lat="50.05268" lon="2.24312">
        <ele>123.6</ele>
        <time>2014-05-18T12:51:16.73</time>
      </trkpt>
      <trkpt lat="50.05265" lon="2.24301">
        <ele>123.5</ele>
        <time>2014-05-18T12:51:23.73</time>
      </trkpt>
      <trkpt lat="50.05263" lon="2.24292">
        <ele>124.3</ele>
        <time>2014-05-18T12:51:30.73</time>
      </trkpt>
      <trkpt lat="50.05262" lon="2.24282">
        <ele>124.9</ele>
        <time>2014-05-18T12:51:37.73</time>
      </trkpt>
      <trkpt lat="50.05263" lon="2.24272">
        <ele>125.3</ele>
        <time>2014-05-18T12:51:44.73</time>
      </trkpt>
      <trkpt lat="50.05259" lon="2.24266">
        <ele>125.6</ele>
        <time>2014-05-18T12:51:51.73</time>
      </trkpt>
      <trkpt lat="50.05259" lon="2.24265">
        <ele>125.7</ele>
        <time>2014-05-18T12:51:58.73</time>
      </trkpt>
      <trkpt lat="50.05255" lon="2.24262">
        <ele>126.6</ele>
        <time>2014-05-18T12:52:05.75</time>
      </trkpt>
      <trkpt lat="50.05255" lon="2.24259">
        <ele>127.1</ele>
        <time>2014-05-18T12:52:09.74</time>
      </trkpt>
      <trkpt lat="50.05257" lon="2.24249">
        <ele>126.6</ele>
        <time>2014-05-18T12:52:16.73</time>
      </trkpt>
      <trkpt lat="50.05253" lon="2.24253">
        <ele>128.3</ele>
        <time>2014-05-18T12:52:19.75</time>
      </trkpt>
      <trkpt lat="50.05254" lon="2.24252">
        <ele>129</ele>
        <time>2014-05-18T12:52:26.75</time>
      </trkpt>
      <trkpt lat="50.05252" lon="2.24243">
        <ele>129.2</ele>
        <time>2014-05-18T12:52:29.74</time>
      </trkpt>
      <trkpt lat="50.05256" lon="2.24243">
        <ele>129.6</ele>
        <time>2014-05-18T12:52:36.75</time>
      </trkpt>
      <trkpt lat="50.05257" lon="2.24243">
        <ele>128.5</ele>
        <time>2014-05-18T12:52:39.75</time>
      </trkpt>
      <trkpt lat="50.05252" lon="2.24234">
        <ele>128.2</ele>
        <time>2014-05-18T12:52:44.75</time>
      </trkpt>
      <trkpt lat="50.05246" lon="2.24227">
        <ele>127.7</ele>
        <time>2014-05-18T12:52:51.73</time>
      </trkpt>
      <trkpt lat="50.05241" lon="2.24219">
        <ele>127.4</ele>
        <time>2014-05-18T12:52:57.74</time>
      </trkpt>
      <trkpt lat="50.05238" lon="2.24209">
        <ele>127.4</ele>
        <time>2014-05-18T12:53:04.73</time>
      </trkpt>
      <trkpt lat="50.05235" lon="2.24201">
        <ele>127.4</ele>
        <time>2014-05-18T12:53:11.73</time>
      </trkpt>
      <trkpt lat="50.05233" lon="2.24194">
        <ele>127.4</ele>
        <time>2014-05-18T12:53:18.73</time>
      </trkpt>
      <trkpt lat="50.05234" lon="2.24186">
        <ele>127.6</ele>
        <time>2014-05-18T12:53:25.73</time>
      </trkpt>
      <trkpt lat="50.05231" lon="2.24175">
        <ele>127.6</ele>
        <time>2014-05-18T12:53:32.73</time>
      </trkpt>
      <trkpt lat="50.05229" lon="2.24163">
        <ele>127.5</ele>
        <time>2014-05-18T12:53:38.73</time>
      </trkpt>
      <trkpt lat="50.05224" lon="2.24154">
        <ele>127.5</ele>
        <time>2014-05-18T12:53:44.73</time>
      </trkpt>
      <trkpt lat="50.05219" lon="2.24145">
        <ele>127.4</ele>
        <time>2014-05-18T12:53:50.73</time>
      </trkpt>
      <trkpt lat="50.05217" lon="2.24134">
        <ele>127.4</ele>
        <time>2014-05-18T12:53:56.73</time>
      </trkpt>
      <trkpt lat="50.05218" lon="2.24121">
        <ele>127.2</ele>
        <time>2014-05-18T12:54:03.73</time>
      </trkpt>
      <trkpt lat="50.05216" lon="2.24109">
        <ele>127.2</ele>
        <time>2014-05-18T12:54:09.73</time>
      </trkpt>
      <trkpt lat="50.0521" lon="2.241">
        <ele>127.4</ele>
        <time>2014-05-18T12:54:15.73</time>
      </trkpt>
      <trkpt lat="50.05207" lon="2.2409">
        <ele>127.5</ele>
        <time>2014-05-18T12:54:22.73</time>
      </trkpt>
      <trkpt lat="50.05203" lon="2.24081">
        <ele>127.6</ele>
        <time>2014-05-18T12:54:27.73</time>
      </trkpt>
      <trkpt lat="50.05202" lon="2.24069">
        <ele>127.6</ele>
        <time>2014-05-18T12:54:33.73</time>
      </trkpt>
      <trkpt lat="50.05203" lon="2.24057">
        <ele>128.2</ele>
        <time>2014-05-18T12:54:38.73</time>
      </trkpt>
      <trkpt lat="50.05199" lon="2.24047">
        <ele>128.3</ele>
        <time>2014-05-18T12:54:45.73</time>
      </trkpt>
      <trkpt lat="50.05198" lon="2.24034">
        <ele>128.5</ele>
        <time>2014-05-18T12:54:51.73</time>
      </trkpt>
      <trkpt lat="50.05198" lon="2.24023">
        <ele>128.7</ele>
        <time>2014-05-18T12:54:57.73</time>
      </trkpt>
      <trkpt lat="50.05196" lon="2.24011">
        <ele>129</ele>
        <time>2014-05-18T12:55:02.73</time>
      </trkpt>
      <trkpt lat="50.05193" lon="2.24">
        <ele>129</ele>
        <time>2014-05-18T12:55:08.73</time>
      </trkpt>
      <trkpt lat="50.05191" lon="2.23989">
        <ele>129.2</ele>
        <time>2014-05-18T12:55:12.73</time>
      </trkpt>
      <trkpt lat="50.05192" lon="2.23978">
        <ele>129.4</ele>
        <time>2014-05-18T12:55:18.73</time>
      </trkpt>
      <trkpt lat="50.05193" lon="2.23965">
        <ele>129.1</ele>
        <time>2014-05-18T12:55:24.73</time>
      </trkpt>
      <trkpt lat="50.05194" lon="2.23953">
        <ele>129</ele>
        <time>2014-05-18T12:55:28.73</time>
      </trkpt>
      <trkpt lat="50.05195" lon="2.23943">
        <ele>129.5</ele>
        <time>2014-05-18T12:55:35.73</time>
      </trkpt>
      <trkpt lat="50.05196" lon="2.23935">
        <ele>129.7</ele>
        <time>2014-05-18T12:55:42.73</time>
      </trkpt>
      <trkpt lat="50.05196" lon="2.23924">
        <ele>129.4</ele>
        <time>2014-05-18T12:55:47.73</time>
      </trkpt>
      <trkpt lat="50.05198" lon="2.23912">
        <ele>128.8</ele>
        <time>2014-05-18T12:55:53.73</time>
      </trkpt>
      <trkpt lat="50.05198" lon="2.23899">
        <ele>128.6</ele>
        <time>2014-05-18T12:55:59.73</time>
      </trkpt>
      <trkpt lat="50.05199" lon="2.23887">
        <ele>128.3</ele>
        <time>2014-05-18T12:56:04.73</time>
      </trkpt>
      <trkpt lat="50.05203" lon="2.23877">
        <ele>128.2</ele>
        <time>2014-05-18T12:56:09.73</time>
      </trkpt>
      <trkpt lat="50.05204" lon="2.23863">
        <ele>128.1</ele>
        <time>2014-05-18T12:56:15.73</time>
      </trkpt>
      <trkpt lat="50.05206" lon="2.23853">
        <ele>128</ele>
        <time>2014-05-18T12:56:22.73</time>
      </trkpt>
      <trkpt lat="50.05207" lon="2.23842">
        <ele>127.8</ele>
        <time>2014-05-18T12:56:27.74</time>
      </trkpt>
      <trkpt lat="50.05209" lon="2.23831">
        <ele>127.4</ele>
        <time>2014-05-18T12:56:32.73</time>
      </trkpt>
      <trkpt lat="50.05211" lon="2.23818">
        <ele>126.9</ele>
        <time>2014-05-18T12:56:39.73</time>
      </trkpt>
      <trkpt lat="50.05215" lon="2.23807">
        <ele>126.5</ele>
        <time>2014-05-18T12:56:44.73</time>
      </trkpt>
      <trkpt lat="50.05217" lon="2.23797">
        <ele>126.2</ele>
        <time>2014-05-18T12:56:50.73</time>
      </trkpt>
      <trkpt lat="50.05221" lon="2.23787">
        <ele>126</ele>
        <time>2014-05-18T12:56:55.73</time>
      </trkpt>
      <trkpt lat="50.05223" lon="2.23776">
        <ele>126</ele>
        <time>2014-05-18T12:57:00.77</time>
      </trkpt>
      <trkpt lat="50.05224" lon="2.23765">
        <ele>126.1</ele>
        <time>2014-05-18T12:57:07.73</time>
      </trkpt>
      <trkpt lat="50.05226" lon="2.23753">
        <ele>125.2</ele>
        <time>2014-05-18T12:57:12.73</time>
      </trkpt>
      <trkpt lat="50.05228" lon="2.23742">
        <ele>125.2</ele>
        <time>2014-05-18T12:57:17.76</time>
      </trkpt>
      <trkpt lat="50.0523" lon="2.23729">
        <ele>125</ele>
        <time>2014-05-18T12:57:24.75</time>
      </trkpt>
      <trkpt lat="50.05231" lon="2.23716">
        <ele>125</ele>
        <time>2014-05-18T12:57:30.77</time>
      </trkpt>
      <trkpt lat="50.05232" lon="2.23704">
        <ele>125</ele>
        <time>2014-05-18T12:57:36.74</time>
      </trkpt>
      <trkpt lat="50.05236" lon="2.23693">
        <ele>124</ele>
        <time>2014-05-18T12:57:42.73</time>
      </trkpt>
      <trkpt lat="50.05237" lon="2.23681">
        <ele>123.7</ele>
        <time>2014-05-18T12:57:47.73</time>
      </trkpt>
      <trkpt lat="50.05238" lon="2.23669">
        <ele>122.9</ele>
        <time>2014-05-18T12:57:53.73</time>
      </trkpt>
      <trkpt lat="50.05239" lon="2.23657">
        <ele>122.5</ele>
        <time>2014-05-18T12:57:58.73</time>
      </trkpt>
      <trkpt lat="50.05239" lon="2.23646">
        <ele>122.3</ele>
        <time>2014-05-18T12:58:04.73</time>
      </trkpt>
      <trkpt lat="50.05239" lon="2.23633">
        <ele>121.9</ele>
        <time>2014-05-18T12:58:10.73</time>
      </trkpt>
      <trkpt lat="50.05238" lon="2.23621">
        <ele>121.2</ele>
        <time>2014-05-18T12:58:15.73</time>
      </trkpt>
      <trkpt lat="50.05237" lon="2.23609">
        <ele>121.1</ele>
        <time>2014-05-18T12:58:21.73</time>
      </trkpt>
      <trkpt lat="50.05236" lon="2.23597">
        <ele>120.2</ele>
        <time>2014-05-18T12:58:27.73</time>
      </trkpt>
      <trkpt lat="50.05234" lon="2.23585">
        <ele>119.8</ele>
        <time>2014-05-18T12:58:32.73</time>
      </trkpt>
      <trkpt lat="50.05233" lon="2.23574">
        <ele>119.4</ele>
        <time>2014-05-18T12:58:37.73</time>
      </trkpt>
      <trkpt lat="50.05233" lon="2.23561">
        <ele>119</ele>
        <time>2014-05-18T12:58:43.73</time>
      </trkpt>
      <trkpt lat="50.05232" lon="2.23549">
        <ele>118.8</ele>
        <time>2014-05-18T12:58:48.73</time>
      </trkpt>
      <trkpt lat="50.0523" lon="2.23538">
        <ele>118.8</ele>
        <time>2014-05-18T12:58:55.73</time>
      </trkpt>
      <trkpt lat="50.0523" lon="2.23526">
        <ele>118.6</ele>
        <time>2014-05-18T12:59:02.73</time>
      </trkpt>
      <trkpt lat="50.0523" lon="2.23513">
        <ele>118.2</ele>
        <time>2014-05-18T12:59:08.73</time>
      </trkpt>
      <trkpt lat="50.05232" lon="2.23501">
        <ele>118.4</ele>
        <time>2014-05-18T12:59:13.72</time>
      </trkpt>
      <trkpt lat="50.05232" lon="2.23488">
        <ele>118.5</ele>
        <time>2014-05-18T12:59:18.72</time>
      </trkpt>
      <trkpt lat="50.05229" lon="2.23477">
        <ele>118.3</ele>
        <time>2014-05-18T12:59:25.72</time>
      </trkpt>
      <trkpt lat="50.05231" lon="2.23464">
        <ele>118.1</ele>
        <time>2014-05-18T12:59:30.72</time>
      </trkpt>
      <trkpt lat="50.05233" lon="2.23452">
        <ele>118.1</ele>
        <time>2014-05-18T12:59:36.72</time>
      </trkpt>
      <trkpt lat="50.05233" lon="2.2344">
        <ele>117.9</ele>
        <time>2014-05-18T12:59:42.72</time>
      </trkpt>
      <trkpt lat="50.05235" lon="2.23429">
        <ele>118.1</ele>
        <time>2014-05-18T12:59:48.72</time>
      </trkpt>
      <trkpt lat="50.05235" lon="2.23417">
        <ele>118.1</ele>
        <time>2014-05-18T12:59:54.72</time>
      </trkpt>
      <trkpt lat="50.05236" lon="2.23405">
        <ele>117.9</ele>
        <time>2014-05-18T12:59:59.72</time>
      </trkpt>
      <trkpt lat="50.05237" lon="2.23393">
        <ele>118.3</ele>
        <time>2014-05-18T13:00:05.85</time>
      </trkpt>
      <trkpt lat="50.05239" lon="2.23381">
        <ele>117.9</ele>
        <time>2014-05-18T13:00:11.72</time>
      </trkpt>
      <trkpt lat="50.0524" lon="2.23369">
        <ele>117.6</ele>
        <time>2014-05-18T13:00:17.72</time>
      </trkpt>
      <trkpt lat="50.0524" lon="2.23356">
        <ele>117.2</ele>
        <time>2014-05-18T13:00:24.72</time>
      </trkpt>
      <trkpt lat="50.05241" lon="2.23345">
        <ele>117.2</ele>
        <time>2014-05-18T13:00:30.72</time>
      </trkpt>
      <trkpt lat="50.05244" lon="2.23332">
        <ele>117.1</ele>
        <time>2014-05-18T13:00:37.72</time>
      </trkpt>
      <trkpt lat="50.05244" lon="2.2332">
        <ele>116.9</ele>
        <time>2014-05-18T13:00:44.72</time>
      </trkpt>
      <trkpt lat="50.05246" lon="2.23309">
        <ele>117.1</ele>
        <time>2014-05-18T13:00:49.78</time>
      </trkpt>
      <trkpt lat="50.05248" lon="2.23298">
        <ele>117.7</ele>
        <time>2014-05-18T13:00:54.72</time>
      </trkpt>
      <trkpt lat="50.05248" lon="2.23287">
        <ele>117.4</ele>
        <time>2014-05-18T13:01:00.74</time>
      </trkpt>
      <trkpt lat="50.05249" lon="2.23274">
        <ele>117.4</ele>
        <time>2014-05-18T13:01:06.72</time>
      </trkpt>
      <trkpt lat="50.0525" lon="2.23263">
        <ele>116.7</ele>
        <time>2014-05-18T13:01:13.72</time>
      </trkpt>
      <trkpt lat="50.0525" lon="2.23251">
        <ele>116.4</ele>
        <time>2014-05-18T13:01:19.72</time>
      </trkpt>
      <trkpt lat="50.05247" lon="2.2324">
        <ele>116.9</ele>
        <time>2014-05-18T13:01:25.72</time>
      </trkpt>
      <trkpt lat="50.05248" lon="2.23228">
        <ele>116.6</ele>
        <time>2014-05-18T13:01:31.72</time>
      </trkpt>
      <trkpt lat="50.05247" lon="2.23216">
        <ele>116.2</ele>
        <time>2014-05-18T13:01:36.72</time>
      </trkpt>
      <trkpt lat="50.05247" lon="2.23204">
        <ele>116</ele>
        <time>2014-05-18T13:01:41.72</time>
      </trkpt>
      <trkpt lat="50.05245" lon="2.23192">
        <ele>115.5</ele>
        <time>2014-05-18T13:01:47.72</time>
      </trkpt>
      <trkpt lat="50.05242" lon="2.23181">
        <ele>114.9</ele>
        <time>2014-05-18T13:01:53.72</time>
      </trkpt>
      <trkpt lat="50.0524" lon="2.2317">
        <ele>114.3</ele>
        <time>2014-05-18T13:01:59.72</time>
      </trkpt>
      <trkpt lat="50.05236" lon="2.23159">
        <ele>113.8</ele>
        <time>2014-05-18T13:02:05.72</time>
      </trkpt>
      <trkpt lat="50.05234" lon="2.23148">
        <ele>113.1</ele>
        <time>2014-05-18T13:02:11.72</time>
      </trkpt>
      <trkpt lat="50.05231" lon="2.23137">
        <ele>112.8</ele>
        <time>2014-05-18T13:02:16.72</time>
      </trkpt>
      <trkpt lat="50.05228" lon="2.23125">
        <ele>112.4</ele>
        <time>2014-05-18T13:02:21.72</time>
      </trkpt>
      <trkpt lat="50.05226" lon="2.23114">
        <ele>112</ele>
        <time>2014-05-18T13:02:27.72</time>
      </trkpt>
      <trkpt lat="50.05225" lon="2.23102">
        <ele>111.5</ele>
        <time>2014-05-18T13:02:33.72</time>
      </trkpt>
      <trkpt lat="50.05222" lon="2.23093">
        <ele>112</ele>
        <time>2014-05-18T13:02:40.76</time>
      </trkpt>
      <trkpt lat="50.05219" lon="2.23082">
        <ele>111.4</ele>
        <time>2014-05-18T13:02:45.72</time>
      </trkpt>
      <trkpt lat="50.05215" lon="2.23074">
        <ele>111.5</ele>
        <time>2014-05-18T13:02:52.72</time>
      </trkpt>
      <trkpt lat="50.05215" lon="2.23061">
        <ele>112</ele>
        <time>2014-05-18T13:02:58.72</time>
      </trkpt>
      <trkpt lat="50.05215" lon="2.2305">
        <ele>112.1</ele>
        <time>2014-05-18T13:03:03.72</time>
      </trkpt>
      <trkpt lat="50.05215" lon="2.23038">
        <ele>112.1</ele>
        <time>2014-05-18T13:03:08.72</time>
      </trkpt>
      <trkpt lat="50.05216" lon="2.23025">
        <ele>112.3</ele>
        <time>2014-05-18T13:03:13.72</time>
      </trkpt>
      <trkpt lat="50.05217" lon="2.23014">
        <ele>112.7</ele>
        <time>2014-05-18T13:03:20.72</time>
      </trkpt>
      <trkpt lat="50.05221" lon="2.23004">
        <ele>113</ele>
        <time>2014-05-18T13:03:25.72</time>
      </trkpt>
      <trkpt lat="50.05224" lon="2.22993">
        <ele>113.2</ele>
        <time>2014-05-18T13:03:30.72</time>
      </trkpt>
      <trkpt lat="50.05225" lon="2.22982">
        <ele>113.4</ele>
        <time>2014-05-18T13:03:37.72</time>
      </trkpt>
      <trkpt lat="50.05229" lon="2.22971">
        <ele>113.8</ele>
        <time>2014-05-18T13:03:42.72</time>
      </trkpt>
      <trkpt lat="50.0523" lon="2.22958">
        <ele>114.8</ele>
        <time>2014-05-18T13:03:49.72</time>
      </trkpt>
      <trkpt lat="50.05232" lon="2.22947">
        <ele>115.6</ele>
        <time>2014-05-18T13:03:54.72</time>
      </trkpt>
      <trkpt lat="50.05233" lon="2.22936">
        <ele>116.8</ele>
        <time>2014-05-18T13:04:00.72</time>
      </trkpt>
      <trkpt lat="50.05234" lon="2.22924">
        <ele>117.3</ele>
        <time>2014-05-18T13:04:07.72</time>
      </trkpt>
      <trkpt lat="50.05236" lon="2.22913">
        <ele>117.7</ele>
        <time>2014-05-18T13:04:13.72</time>
      </trkpt>
      <trkpt lat="50.05236" lon="2.229">
        <ele>118</ele>
        <time>2014-05-18T13:04:19.72</time>
      </trkpt>
      <trkpt lat="50.05237" lon="2.22886">
        <ele>118.6</ele>
        <time>2014-05-18T13:04:26.72</time>
      </trkpt>
      <trkpt lat="50.05238" lon="2.22874">
        <ele>118.7</ele>
        <time>2014-05-18T13:04:32.72</time>
      </trkpt>
      <trkpt lat="50.05238" lon="2.22863">
        <ele>118.4</ele>
        <time>2014-05-18T13:04:39.72</time>
      </trkpt>
      <trkpt lat="50.0524" lon="2.22852">
        <ele>118.5</ele>
        <time>2014-05-18T13:04:45.72</time>
      </trkpt>
      <trkpt lat="50.0524" lon="2.2284">
        <ele>118</ele>
        <time>2014-05-18T13:04:52.72</time>
      </trkpt>
      <trkpt lat="50.0524" lon="2.22829">
        <ele>117.9</ele>
        <time>2014-05-18T13:04:57.72</time>
      </trkpt>
      <trkpt lat="50.05238" lon="2.22816">
        <ele>117.3</ele>
        <time>2014-05-18T13:05:04.72</time>
      </trkpt>
      <trkpt lat="50.05239" lon="2.22805">
        <ele>116.5</ele>
        <time>2014-05-18T13:05:10.72</time>
      </trkpt>
      <trkpt lat="50.05236" lon="2.22793">
        <ele>115.9</ele>
        <time>2014-05-18T13:05:17.72</time>
      </trkpt>
      <trkpt lat="50.05237" lon="2.2278">
        <ele>115.4</ele>
        <time>2014-05-18T13:05:23.72</time>
      </trkpt>
      <trkpt lat="50.05236" lon="2.22769">
        <ele>114.9</ele>
        <time>2014-05-18T13:05:30.72</time>
      </trkpt>
      <trkpt lat="50.05236" lon="2.22758">
        <ele>114.5</ele>
        <time>2014-05-18T13:05:35.72</time>
      </trkpt>
      <trkpt lat="50.05233" lon="2.22748">
        <ele>113</ele>
        <time>2014-05-18T13:05:42.72</time>
      </trkpt>
      <trkpt lat="50.05233" lon="2.22736">
        <ele>111.8</ele>
        <time>2014-05-18T13:05:49.72</time>
      </trkpt>
      <trkpt lat="50.05232" lon="2.22723">
        <ele>110.9</ele>
        <time>2014-05-18T13:05:56.72</time>
      </trkpt>
      <trkpt lat="50.05229" lon="2.22711">
        <ele>109.7</ele>
        <time>2014-05-18T13:06:02.72</time>
      </trkpt>
      <trkpt lat="50.05227" lon="2.227">
        <ele>107.7</ele>
        <time>2014-05-18T13:06:09.72</time>
      </trkpt>
      <trkpt lat="50.05228" lon="2.22688">
        <ele>106.9</ele>
        <time>2014-05-18T13:06:14.72</time>
      </trkpt>
      <trkpt lat="50.05227" lon="2.22677">
        <ele>105.3</ele>
        <time>2014-05-18T13:06:21.72</time>
      </trkpt>
      <trkpt lat="50.05229" lon="2.22666">
        <ele>104.4</ele>
        <time>2014-05-18T13:06:26.72</time>
      </trkpt>
      <trkpt lat="50.0523" lon="2.22654">
        <ele>102.8</ele>
        <time>2014-05-18T13:06:33.72</time>
      </trkpt>
      <trkpt lat="50.05232" lon="2.22644">
        <ele>101.2</ele>
        <time>2014-05-18T13:06:40.72</time>
      </trkpt>
      <trkpt lat="50.05234" lon="2.22631">
        <ele>100.3</ele>
        <time>2014-05-18T13:06:46.72</time>
      </trkpt>
      <trkpt lat="50.05234" lon="2.22619">
        <ele>99.4</ele>
        <time>2014-05-18T13:06:53.72</time>
      </trkpt>
      <trkpt lat="50.05236" lon="2.22608">
        <ele>98.1</ele>
        <time>2014-05-18T13:06:59.72</time>
      </trkpt>
      <trkpt lat="50.05237" lon="2.22595">
        <ele>96.9</ele>
        <time>2014-05-18T13:07:06.72</time>
      </trkpt>
      <trkpt lat="50.0524" lon="2.22584">
        <ele>96</ele>
        <time>2014-05-18T13:07:12.72</time>
      </trkpt>
      <trkpt lat="50.05241" lon="2.22572">
        <ele>94.9</ele>
        <time>2014-05-18T13:07:18.72</time>
      </trkpt>
      <trkpt lat="50.05242" lon="2.22562">
        <ele>93.9</ele>
        <time>2014-05-18T13:07:25.72</time>
      </trkpt>
      <trkpt lat="50.05244" lon="2.22551">
        <ele>93.2</ele>
        <time>2014-05-18T13:07:32.72</time>
      </trkpt>
      <trkpt lat="50.05245" lon="2.22539">
        <ele>92.3</ele>
        <time>2014-05-18T13:07:38.72</time>
      </trkpt>
      <trkpt lat="50.05246" lon="2.22529">
        <ele>91.1</ele>
        <time>2014-05-18T13:07:45.72</time>
      </trkpt>
      <trkpt lat="50.05247" lon="2.22517">
        <ele>90.2</ele>
        <time>2014-05-18T13:07:52.72</time>
      </trkpt>
      <trkpt lat="50.05248" lon="2.22506">
        <ele>89.3</ele>
        <time>2014-05-18T13:07:59.72</time>
      </trkpt>
      <trkpt lat="50.05252" lon="2.22495">
        <ele>88.5</ele>
        <time>2014-05-18T13:08:06.72</time>
      </trkpt>
      <trkpt lat="50.05254" lon="2.22483">
        <ele>87.8</ele>
        <time>2014-05-18T13:08:12.72</time>
      </trkpt>
      <trkpt lat="50.05257" lon="2.22472">
        <ele>87.4</ele>
        <time>2014-05-18T13:08:19.72</time>
      </trkpt>
      <trkpt lat="50.05257" lon="2.22461">
        <ele>86.9</ele>
        <time>2014-05-18T13:08:26.72</time>
      </trkpt>
      <trkpt lat="50.0526" lon="2.22449">
        <ele>86.2</ele>
        <time>2014-05-18T13:08:33.72</time>
      </trkpt>
      <trkpt lat="50.05261" lon="2.22437">
        <ele>85.2</ele>
        <time>2014-05-18T13:08:40.78</time>
      </trkpt>
      <trkpt lat="50.05261" lon="2.22426">
        <ele>84.2</ele>
        <time>2014-05-18T13:08:47.72</time>
      </trkpt>
      <trkpt lat="50.05262" lon="2.22414">
        <ele>83.4</ele>
        <time>2014-05-18T13:08:53.74</time>
      </trkpt>
      <trkpt lat="50.05263" lon="2.22402">
        <ele>82.4</ele>
        <time>2014-05-18T13:09:00.72</time>
      </trkpt>
      <trkpt lat="50.05265" lon="2.22391">
        <ele>81.6</ele>
        <time>2014-05-18T13:09:06.72</time>
      </trkpt>
      <trkpt lat="50.05267" lon="2.22379">
        <ele>80.3</ele>
        <time>2014-05-18T13:09:13.72</time>
      </trkpt>
      <trkpt lat="50.05268" lon="2.22367">
        <ele>79.4</ele>
        <time>2014-05-18T13:09:20.72</time>
      </trkpt>
      <trkpt lat="50.0527" lon="2.22355">
        <ele>78.7</ele>
        <time>2014-05-18T13:09:25.72</time>
      </trkpt>
      <trkpt lat="50.05271" lon="2.22344">
        <ele>76.8</ele>
        <time>2014-05-18T13:09:32.72</time>
      </trkpt>
      <trkpt lat="50.05274" lon="2.22332">
        <ele>76.1</ele>
        <time>2014-05-18T13:09:37.72</time>
      </trkpt>
      <trkpt lat="50.05276" lon="2.22321">
        <ele>75.6</ele>
        <time>2014-05-18T13:09:43.72</time>
      </trkpt>
      <trkpt lat="50.05278" lon="2.2231">
        <ele>74.6</ele>
        <time>2014-05-18T13:09:49.72</time>
      </trkpt>
      <trkpt lat="50.05281" lon="2.223">
        <ele>73.1</ele>
        <time>2014-05-18T13:09:56.72</time>
      </trkpt>
      <trkpt lat="50.05282" lon="2.22288">
        <ele>71.5</ele>
        <time>2014-05-18T13:10:02.72</time>
      </trkpt>
      <trkpt lat="50.05283" lon="2.22278">
        <ele>70.5</ele>
        <time>2014-05-18T13:10:09.72</time>
      </trkpt>
      <trkpt lat="50.05285" lon="2.22265">
        <ele>69.7</ele>
        <time>2014-05-18T13:10:15.72</time>
      </trkpt>
      <trkpt lat="50.05287" lon="2.22253">
        <ele>68.5</ele>
        <time>2014-05-18T13:10:22.72</time>
      </trkpt>
      <trkpt lat="50.0529" lon="2.22243">
        <ele>67.9</ele>
        <time>2014-05-18T13:10:27.72</time>
      </trkpt>
      <trkpt lat="50.05293" lon="2.22232">
        <ele>66.8</ele>
        <time>2014-05-18T13:10:33.72</time>
      </trkpt>
      <trkpt lat="50.05298" lon="2.22221">
        <ele>66.3</ele>
        <time>2014-05-18T13:10:39.72</time>
      </trkpt>
      <trkpt lat="50.05301" lon="2.22213">
        <ele>65.5</ele>
        <time>2014-05-18T13:10:46.72</time>
      </trkpt>
      <trkpt lat="50.05304" lon="2.22203">
        <ele>65.1</ele>
        <time>2014-05-18T13:10:52.72</time>
      </trkpt>
      <trkpt lat="50.05307" lon="2.22192">
        <ele>64.7</ele>
        <time>2014-05-18T13:10:59.72</time>
      </trkpt>
      <trkpt lat="50.05303" lon="2.22183">
        <ele>64.2</ele>
        <time>2014-05-18T13:11:06.72</time>
      </trkpt>
      <trkpt lat="50.05295" lon="2.22185">
        <ele>63.9</ele>
        <time>2014-05-18T13:11:12.72</time>
      </trkpt>
      <trkpt lat="50.05286" lon="2.2219">
        <ele>63.4</ele>
        <time>2014-05-18T13:11:18.72</time>
      </trkpt>
      <trkpt lat="50.0528" lon="2.22192">
        <ele>63.5</ele>
        <time>2014-05-18T13:11:25.72</time>
      </trkpt>
      <trkpt lat="50.05273" lon="2.22197">
        <ele>63.4</ele>
        <time>2014-05-18T13:11:32.72</time>
      </trkpt>
      <trkpt lat="50.05266" lon="2.22201">
        <ele>63</ele>
        <time>2014-05-18T13:11:39.72</time>
      </trkpt>
      <trkpt lat="50.0526" lon="2.22208">
        <ele>62.1</ele>
        <time>2014-05-18T13:11:46.72</time>
      </trkpt>
      <trkpt lat="50.05253" lon="2.22213">
        <ele>61.6</ele>
        <time>2014-05-18T13:11:52.72</time>
      </trkpt>
      <trkpt lat="50.05246" lon="2.2222">
        <ele>61.4</ele>
        <time>2014-05-18T13:11:59.72</time>
      </trkpt>
      <trkpt lat="50.0524" lon="2.22227">
        <ele>61.3</ele>
        <time>2014-05-18T13:12:06.72</time>
      </trkpt>
      <trkpt lat="50.05233" lon="2.22231">
        <ele>60.8</ele>
        <time>2014-05-18T13:12:13.72</time>
      </trkpt>
      <trkpt lat="50.05227" lon="2.22239">
        <ele>61.2</ele>
        <time>2014-05-18T13:12:20.72</time>
      </trkpt>
      <trkpt lat="50.05221" lon="2.22245">
        <ele>61.4</ele>
        <time>2014-05-18T13:12:27.72</time>
      </trkpt>
      <trkpt lat="50.05214" lon="2.22251">
        <ele>61.8</ele>
        <time>2014-05-18T13:12:34.72</time>
      </trkpt>
      <trkpt lat="50.05206" lon="2.22254">
        <ele>62.1</ele>
        <time>2014-05-18T13:12:41.72</time>
      </trkpt>
      <trkpt lat="50.05199" lon="2.22259">
        <ele>62.6</ele>
        <time>2014-05-18T13:12:47.72</time>
      </trkpt>
      <trkpt lat="50.05193" lon="2.22263">
        <ele>63</ele>
        <time>2014-05-18T13:12:53.72</time>
      </trkpt>
      <trkpt lat="50.05186" lon="2.22268">
        <ele>63.6</ele>
        <time>2014-05-18T13:12:58.72</time>
      </trkpt>
      <trkpt lat="50.05179" lon="2.22272">
        <ele>63.7</ele>
        <time>2014-05-18T13:13:05.72</time>
      </trkpt>
      <trkpt lat="50.05171" lon="2.22275">
        <ele>64.2</ele>
        <time>2014-05-18T13:13:11.72</time>
      </trkpt>
      <trkpt lat="50.05164" lon="2.22278">
        <ele>64.8</ele>
        <time>2014-05-18T13:13:18.72</time>
      </trkpt>
      <trkpt lat="50.05158" lon="2.22281">
        <ele>65.7</ele>
        <time>2014-05-18T13:13:25.72</time>
      </trkpt>
      <trkpt lat="50.05151" lon="2.22285">
        <ele>66.4</ele>
        <time>2014-05-18T13:13:31.72</time>
      </trkpt>
      <trkpt lat="50.05144" lon="2.22288">
        <ele>67</ele>
        <time>2014-05-18T13:13:37.72</time>
      </trkpt>
      <trkpt lat="50.05137" lon="2.22292">
        <ele>67.8</ele>
        <time>2014-05-18T13:13:43.72</time>
      </trkpt>
      <trkpt lat="50.05131" lon="2.22297">
        <ele>68.2</ele>
        <time>2014-05-18T13:13:50.72</time>
      </trkpt>
      <trkpt lat="50.05124" lon="2.22303">
        <ele>68.6</ele>
        <time>2014-05-18T13:13:56.72</time>
      </trkpt>
      <trkpt lat="50.05118" lon="2.2231">
        <ele>68.9</ele>
        <time>2014-05-18T13:14:01.72</time>
      </trkpt>
      <trkpt lat="50.0511" lon="2.22314">
        <ele>69.2</ele>
        <time>2014-05-18T13:14:08.72</time>
      </trkpt>
      <trkpt lat="50.05103" lon="2.2232">
        <ele>69.6</ele>
        <time>2014-05-18T13:14:15.76</time>
      </trkpt>
      <trkpt lat="50.05096" lon="2.22326">
        <ele>70.1</ele>
        <time>2014-05-18T13:14:21.72</time>
      </trkpt>
      <trkpt lat="50.05089" lon="2.22326">
        <ele>71.2</ele>
        <time>2014-05-18T13:14:27.72</time>
      </trkpt>
      <trkpt lat="50.05085" lon="2.22332">
        <ele>72.6</ele>
        <time>2014-05-18T13:14:34.80</time>
      </trkpt>
      <trkpt lat="50.05079" lon="2.22338">
        <ele>73.8</ele>
        <time>2014-05-18T13:14:40.72</time>
      </trkpt>
      <trkpt lat="50.05072" lon="2.22343">
        <ele>74.8</ele>
        <time>2014-05-18T13:14:47.76</time>
      </trkpt>
      <trkpt lat="50.05064" lon="2.22347">
        <ele>75.8</ele>
        <time>2014-05-18T13:14:53.72</time>
      </trkpt>
      <trkpt lat="50.05057" lon="2.22351">
        <ele>76.1</ele>
        <time>2014-05-18T13:14:58.72</time>
      </trkpt>
      <trkpt lat="50.05049" lon="2.22355">
        <ele>77</ele>
        <time>2014-05-18T13:15:05.76</time>
      </trkpt>
      <trkpt lat="50.05042" lon="2.22359">
        <ele>78</ele>
        <time>2014-05-18T13:15:11.72</time>
      </trkpt>
      <trkpt lat="50.05035" lon="2.22362">
        <ele>79</ele>
        <time>2014-05-18T13:15:18.72</time>
      </trkpt>
      <trkpt lat="50.05028" lon="2.22366">
        <ele>79.3</ele>
        <time>2014-05-18T13:15:24.92</time>
      </trkpt>
      <trkpt lat="50.0502" lon="2.22368">
        <ele>80</ele>
        <time>2014-05-18T13:15:31.72</time>
      </trkpt>
      <trkpt lat="50.05014" lon="2.22374">
        <ele>80.4</ele>
        <time>2014-05-18T13:15:38.72</time>
      </trkpt>
      <trkpt lat="50.05008" lon="2.2238">
        <ele>80.5</ele>
        <time>2014-05-18T13:15:44.72</time>
      </trkpt>
      <trkpt lat="50.05" lon="2.22386">
        <ele>81.1</ele>
        <time>2014-05-18T13:15:51.72</time>
      </trkpt>
      <trkpt lat="50.04992" lon="2.22391">
        <ele>82</ele>
        <time>2014-05-18T13:15:56.72</time>
      </trkpt>
      <trkpt lat="50.04986" lon="2.22396">
        <ele>82.9</ele>
        <time>2014-05-18T13:16:03.72</time>
      </trkpt>
      <trkpt lat="50.04979" lon="2.22402">
        <ele>83.4</ele>
        <time>2014-05-18T13:16:10.72</time>
      </trkpt>
      <trkpt lat="50.04973" lon="2.2241">
        <ele>84.2</ele>
        <time>2014-05-18T13:16:17.72</time>
      </trkpt>
      <trkpt lat="50.04967" lon="2.22418">
        <ele>84.9</ele>
        <time>2014-05-18T13:16:23.72</time>
      </trkpt>
      <trkpt lat="50.04959" lon="2.22422">
        <ele>85.4</ele>
        <time>2014-05-18T13:16:29.72</time>
      </trkpt>
      <trkpt lat="50.04955" lon="2.22433">
        <ele>86</ele>
        <time>2014-05-18T13:16:34.72</time>
      </trkpt>
      <trkpt lat="50.0495" lon="2.22441">
        <ele>86.6</ele>
        <time>2014-05-18T13:16:41.72</time>
      </trkpt>
      <trkpt lat="50.04945" lon="2.2245">
        <ele>86.5</ele>
        <time>2014-05-18T13:16:47.72</time>
      </trkpt>
      <trkpt lat="50.04939" lon="2.22459">
        <ele>86.4</ele>
        <time>2014-05-18T13:16:54.72</time>
      </trkpt>
      <trkpt lat="50.04934" lon="2.22467">
        <ele>86.3</ele>
        <time>2014-05-18T13:17:00.72</time>
      </trkpt>
      <trkpt lat="50.0493" lon="2.22478">
        <ele>86.3</ele>
        <time>2014-05-18T13:17:06.72</time>
      </trkpt>
      <trkpt lat="50.04925" lon="2.22487">
        <ele>86.3</ele>
        <time>2014-05-18T13:17:13.72</time>
      </trkpt>
      <trkpt lat="50.0492" lon="2.22496">
        <ele>86.8</ele>
        <time>2014-05-18T13:17:19.72</time>
      </trkpt>
      <trkpt lat="50.04914" lon="2.22503">
        <ele>86.6</ele>
        <time>2014-05-18T13:17:26.72</time>
      </trkpt>
      <trkpt lat="50.04909" lon="2.22511">
        <ele>86.6</ele>
        <time>2014-05-18T13:17:32.72</time>
      </trkpt>
      <trkpt lat="50.04901" lon="2.22517">
        <ele>86.6</ele>
        <time>2014-05-18T13:17:37.72</time>
      </trkpt>
      <trkpt lat="50.04895" lon="2.22524">
        <ele>86.6</ele>
        <time>2014-05-18T13:17:43.72</time>
      </trkpt>
      <trkpt lat="50.04887" lon="2.22527">
        <ele>86.1</ele>
        <time>2014-05-18T13:17:50.72</time>
      </trkpt>
      <trkpt lat="50.04879" lon="2.22532">
        <ele>86.3</ele>
        <time>2014-05-18T13:17:57.72</time>
      </trkpt>
      <trkpt lat="50.04873" lon="2.22536">
        <ele>86.4</ele>
        <time>2014-05-18T13:18:03.72</time>
      </trkpt>
      <trkpt lat="50.04866" lon="2.22543">
        <ele>86.6</ele>
        <time>2014-05-18T13:18:08.72</time>
      </trkpt>
      <trkpt lat="50.04859" lon="2.22547">
        <ele>87.1</ele>
        <time>2014-05-18T13:18:14.72</time>
      </trkpt>
      <trkpt lat="50.04852" lon="2.22552">
        <ele>87.6</ele>
        <time>2014-05-18T13:18:19.73</time>
      </trkpt>
      <trkpt lat="50.04845" lon="2.2256">
        <ele>88.1</ele>
        <time>2014-05-18T13:18:25.73</time>
      </trkpt>
      <trkpt lat="50.04839" lon="2.22565">
        <ele>88.2</ele>
        <time>2014-05-18T13:18:31.73</time>
      </trkpt>
      <trkpt lat="50.04833" lon="2.22573">
        <ele>88</ele>
        <time>2014-05-18T13:18:38.73</time>
      </trkpt>
      <trkpt lat="50.04826" lon="2.22581">
        <ele>87.9</ele>
        <time>2014-05-18T13:18:44.73</time>
      </trkpt>
      <trkpt lat="50.04821" lon="2.22588">
        <ele>88.1</ele>
        <time>2014-05-18T13:18:51.73</time>
      </trkpt>
      <trkpt lat="50.04815" lon="2.22596">
        <ele>88.1</ele>
        <time>2014-05-18T13:18:58.73</time>
      </trkpt>
      <trkpt lat="50.0481" lon="2.22603">
        <ele>88</ele>
        <time>2014-05-18T13:19:03.73</time>
      </trkpt>
      <trkpt lat="50.04803" lon="2.2261">
        <ele>87.6</ele>
        <time>2014-05-18T13:19:09.73</time>
      </trkpt>
      <trkpt lat="50.04797" lon="2.22616">
        <ele>87.4</ele>
        <time>2014-05-18T13:19:16.73</time>
      </trkpt>
      <trkpt lat="50.0479" lon="2.22623">
        <ele>87.4</ele>
        <time>2014-05-18T13:19:22.73</time>
      </trkpt>
      <trkpt lat="50.04785" lon="2.22632">
        <ele>86.9</ele>
        <time>2014-05-18T13:19:28.76</time>
      </trkpt>
      <trkpt lat="50.04778" lon="2.2264">
        <ele>86.8</ele>
        <time>2014-05-18T13:19:33.76</time>
      </trkpt>
      <trkpt lat="50.04771" lon="2.22645">
        <ele>85.9</ele>
        <time>2014-05-18T13:19:37.73</time>
      </trkpt>
      <trkpt lat="50.04765" lon="2.22653">
        <ele>83.1</ele>
        <time>2014-05-18T13:19:43.75</time>
      </trkpt>
      <trkpt lat="50.04759" lon="2.22659">
        <ele>81.8</ele>
        <time>2014-05-18T13:19:49.75</time>
      </trkpt>
      <trkpt lat="50.04753" lon="2.22666">
        <ele>81.7</ele>
        <time>2014-05-18T13:19:54.73</time>
      </trkpt>
      <trkpt lat="50.04746" lon="2.22675">
        <ele>81.4</ele>
        <time>2014-05-18T13:20:01.96</time>
      </trkpt>
      <trkpt lat="50.0474" lon="2.22683">
        <ele>81.2</ele>
        <time>2014-05-18T13:20:07.73</time>
      </trkpt>
      <trkpt lat="50.04733" lon="2.22688">
        <ele>81.1</ele>
        <time>2014-05-18T13:20:13.73</time>
      </trkpt>
      <trkpt lat="50.04727" lon="2.22695">
        <ele>81.3</ele>
        <time>2014-05-18T13:20:18.74</time>
      </trkpt>
      <trkpt lat="50.04721" lon="2.22701">
        <ele>81.5</ele>
        <time>2014-05-18T13:20:23.74</time>
      </trkpt>
      <trkpt lat="50.04718" lon="2.22707">
        <ele>81.1</ele>
        <time>2014-05-18T13:20:30.73</time>
      </trkpt>
      <trkpt lat="50.04712" lon="2.22712">
        <ele>81</ele>
        <time>2014-05-18T13:20:36.73</time>
      </trkpt>
      <trkpt lat="50.04705" lon="2.22718">
        <ele>81.4</ele>
        <time>2014-05-18T13:20:43.73</time>
      </trkpt>
      <trkpt lat="50.047" lon="2.22727">
        <ele>81.6</ele>
        <time>2014-05-18T13:20:49.73</time>
      </trkpt>
      <trkpt lat="50.04694" lon="2.22737">
        <ele>82.2</ele>
        <time>2014-05-18T13:20:56.73</time>
      </trkpt>
      <trkpt lat="50.0469" lon="2.22746">
        <ele>82.4</ele>
        <time>2014-05-18T13:21:01.73</time>
      </trkpt>
      <trkpt lat="50.04684" lon="2.22753">
        <ele>82.7</ele>
        <time>2014-05-18T13:21:07.73</time>
      </trkpt>
      <trkpt lat="50.04678" lon="2.22759">
        <ele>82.9</ele>
        <time>2014-05-18T13:21:14.73</time>
      </trkpt>
      <trkpt lat="50.04672" lon="2.22768">
        <ele>83.2</ele>
        <time>2014-05-18T13:21:20.73</time>
      </trkpt>
      <trkpt lat="50.04667" lon="2.22775">
        <ele>82.9</ele>
        <time>2014-05-18T13:21:27.73</time>
      </trkpt>
      <trkpt lat="50.04661" lon="2.22783">
        <ele>82.8</ele>
        <time>2014-05-18T13:21:34.73</time>
      </trkpt>
      <trkpt lat="50.04657" lon="2.22789">
        <ele>82.9</ele>
        <time>2014-05-18T13:21:41.73</time>
      </trkpt>
      <trkpt lat="50.0465" lon="2.22799">
        <ele>82.9</ele>
        <time>2014-05-18T13:21:47.73</time>
      </trkpt>
      <trkpt lat="50.04643" lon="2.22807">
        <ele>83.1</ele>
        <time>2014-05-18T13:21:52.73</time>
      </trkpt>
      <trkpt lat="50.04638" lon="2.22813">
        <ele>82.6</ele>
        <time>2014-05-18T13:21:58.73</time>
      </trkpt>
      <trkpt lat="50.04632" lon="2.22822">
        <ele>82.7</ele>
        <time>2014-05-18T13:22:03.73</time>
      </trkpt>
      <trkpt lat="50.04627" lon="2.22831">
        <ele>82.7</ele>
        <time>2014-05-18T13:22:09.73</time>
      </trkpt>
      <trkpt lat="50.04623" lon="2.2284">
        <ele>82.6</ele>
        <time>2014-05-18T13:22:16.73</time>
      </trkpt>
      <trkpt lat="50.04616" lon="2.22846">
        <ele>81.8</ele>
        <time>2014-05-18T13:22:23.73</time>
      </trkpt>
      <trkpt lat="50.04611" lon="2.22856">
        <ele>81.9</ele>
        <time>2014-05-18T13:22:30.73</time>
      </trkpt>
      <trkpt lat="50.04606" lon="2.22865">
        <ele>82.5</ele>
        <time>2014-05-18T13:22:37.73</time>
      </trkpt>
      <trkpt lat="50.04602" lon="2.22876">
        <ele>83.1</ele>
        <time>2014-05-18T13:22:44.73</time>
      </trkpt>
      <trkpt lat="50.04598" lon="2.22885">
        <ele>83.5</ele>
        <time>2014-05-18T13:22:51.73</time>
      </trkpt>
      <trkpt lat="50.04591" lon="2.22893">
        <ele>83.9</ele>
        <time>2014-05-18T13:22:56.73</time>
      </trkpt>
      <trkpt lat="50.04587" lon="2.22904">
        <ele>83.9</ele>
        <time>2014-05-18T13:23:03.73</time>
      </trkpt>
      <trkpt lat="50.04581" lon="2.22912">
        <ele>84</ele>
        <time>2014-05-18T13:23:10.73</time>
      </trkpt>
      <trkpt lat="50.04576" lon="2.22919">
        <ele>83.9</ele>
        <time>2014-05-18T13:23:17.73</time>
      </trkpt>
      <trkpt lat="50.04571" lon="2.22924">
        <ele>83.9</ele>
        <time>2014-05-18T13:23:24.73</time>
      </trkpt>
      <trkpt lat="50.04566" lon="2.22935">
        <ele>84.6</ele>
        <time>2014-05-18T13:23:31.73</time>
      </trkpt>
      <trkpt lat="50.04562" lon="2.2294">
        <ele>83.9</ele>
        <time>2014-05-18T13:23:38.73</time>
      </trkpt>
      <trkpt lat="50.04561" lon="2.22944">
        <ele>83</ele>
        <time>2014-05-18T13:23:45.77</time>
      </trkpt>
      <trkpt lat="50.04568" lon="2.22943">
        <ele>78.4</ele>
        <time>2014-05-18T13:23:49.75</time>
      </trkpt>
      <trkpt lat="50.04565" lon="2.22942">
        <ele>77.7</ele>
        <time>2014-05-18T13:23:51.75</time>
      </trkpt>
      <trkpt lat="50.04552" lon="2.22949">
        <ele>77.1</ele>
        <time>2014-05-18T13:23:53.75</time>
      </trkpt>
      <trkpt lat="50.04545" lon="2.22952">
        <ele>77.2</ele>
        <time>2014-05-18T13:23:59.74</time>
      </trkpt>
      <trkpt lat="50.0454" lon="2.22957">
        <ele>77.3</ele>
        <time>2014-05-18T13:24:06.74</time>
      </trkpt>
      <trkpt lat="50.0454" lon="2.22958">
        <ele>77.6</ele>
        <time>2014-05-18T13:24:13.74</time>
      </trkpt>
      <trkpt lat="50.04535" lon="2.22965">
        <ele>77.3</ele>
        <time>2014-05-18T13:24:20.75</time>
      </trkpt>
      <trkpt lat="50.04527" lon="2.2297">
        <ele>77.1</ele>
        <time>2014-05-18T13:24:26.74</time>
      </trkpt>
      <trkpt lat="50.0452" lon="2.22974">
        <ele>77.1</ele>
        <time>2014-05-18T13:24:30.73</time>
      </trkpt>
      <trkpt lat="50.04513" lon="2.22978">
        <ele>77.1</ele>
        <time>2014-05-18T13:24:37.73</time>
      </trkpt>
      <trkpt lat="50.04507" lon="2.22985">
        <ele>77.1</ele>
        <time>2014-05-18T13:24:43.73</time>
      </trkpt>
      <trkpt lat="50.045" lon="2.22991">
        <ele>77</ele>
        <time>2014-05-18T13:24:50.74</time>
      </trkpt>
      <trkpt lat="50.04494" lon="2.22993">
        <ele>76.9</ele>
        <time>2014-05-18T13:24:57.73</time>
      </trkpt>
      <trkpt lat="50.04488" lon="2.22999">
        <ele>76.8</ele>
        <time>2014-05-18T13:25:04.74</time>
      </trkpt>
      <trkpt lat="50.04482" lon="2.23">
        <ele>76.9</ele>
        <time>2014-05-18T13:25:11.73</time>
      </trkpt>
      <trkpt lat="50.04475" lon="2.23003">
        <ele>76.9</ele>
        <time>2014-05-18T13:25:16.80</time>
      </trkpt>
      <trkpt lat="50.04467" lon="2.23006">
        <ele>76.7</ele>
        <time>2014-05-18T13:25:23.73</time>
      </trkpt>
      <trkpt lat="50.0446" lon="2.23009">
        <ele>76.7</ele>
        <time>2014-05-18T13:25:30.73</time>
      </trkpt>
      <trkpt lat="50.04456" lon="2.23009">
        <ele>76.8</ele>
        <time>2014-05-18T13:25:37.73</time>
      </trkpt>
      <trkpt lat="50.04449" lon="2.23012">
        <ele>77.1</ele>
        <time>2014-05-18T13:25:42.73</time>
      </trkpt>
      <trkpt lat="50.04444" lon="2.23007">
        <ele>77.5</ele>
        <time>2014-05-18T13:25:49.73</time>
      </trkpt>
      <trkpt lat="50.04436" lon="2.23006">
        <ele>78</ele>
        <time>2014-05-18T13:25:55.74</time>
      </trkpt>
      <trkpt lat="50.0443" lon="2.23003">
        <ele>78.5</ele>
        <time>2014-05-18T13:26:02.74</time>
      </trkpt>
      <trkpt lat="50.04424" lon="2.23001">
        <ele>78.8</ele>
        <time>2014-05-18T13:26:09.73</time>
      </trkpt>
      <trkpt lat="50.04422" lon="2.23">
        <ele>79</ele>
        <time>2014-05-18T13:26:16.74</time>
      </trkpt>
      <trkpt lat="50.04418" lon="2.23001">
        <ele>77.9</ele>
        <time>2014-05-18T13:26:23.73</time>
      </trkpt>
      <trkpt lat="50.04411" lon="2.22997">
        <ele>78.1</ele>
        <time>2014-05-18T13:26:27.73</time>
      </trkpt>
      <trkpt lat="50.04403" lon="2.22995">
        <ele>77.1</ele>
        <time>2014-05-18T13:26:34.74</time>
      </trkpt>
      <trkpt lat="50.04395" lon="2.22993">
        <ele>76.1</ele>
        <time>2014-05-18T13:26:40.73</time>
      </trkpt>
      <trkpt lat="50.04387" lon="2.2299">
        <ele>76.2</ele>
        <time>2014-05-18T13:26:45.73</time>
      </trkpt>
      <trkpt lat="50.04378" lon="2.22988">
        <ele>76.1</ele>
        <time>2014-05-18T13:26:51.73</time>
      </trkpt>
      <trkpt lat="50.04371" lon="2.22985">
        <ele>76.5</ele>
        <time>2014-05-18T13:26:55.73</time>
      </trkpt>
      <trkpt lat="50.04364" lon="2.22981">
        <ele>75.9</ele>
        <time>2014-05-18T13:27:00.73</time>
      </trkpt>
      <trkpt lat="50.04357" lon="2.22984">
        <ele>75.1</ele>
        <time>2014-05-18T13:27:07.73</time>
      </trkpt>
      <trkpt lat="50.04349" lon="2.22988">
        <ele>74.6</ele>
        <time>2014-05-18T13:27:14.74</time>
      </trkpt>
      <trkpt lat="50.04341" lon="2.2299">
        <ele>73.8</ele>
        <time>2014-05-18T13:27:20.73</time>
      </trkpt>
      <trkpt lat="50.04334" lon="2.22994">
        <ele>73.1</ele>
        <time>2014-05-18T13:27:26.74</time>
      </trkpt>
      <trkpt lat="50.04327" lon="2.22999">
        <ele>72.1</ele>
        <time>2014-05-18T13:27:32.73</time>
      </trkpt>
      <trkpt lat="50.04319" lon="2.23004">
        <ele>71.1</ele>
        <time>2014-05-18T13:27:38.74</time>
      </trkpt>
      <trkpt lat="50.04313" lon="2.23007">
        <ele>69.9</ele>
        <time>2014-05-18T13:27:45.73</time>
      </trkpt>
      <trkpt lat="50.04306" lon="2.23011">
        <ele>69.1</ele>
        <time>2014-05-18T13:27:50.74</time>
      </trkpt>
      <trkpt lat="50.04299" lon="2.23015">
        <ele>68.4</ele>
        <time>2014-05-18T13:27:56.74</time>
      </trkpt>
      <trkpt lat="50.04291" lon="2.23017">
        <ele>68</ele>
        <time>2014-05-18T13:28:01.73</time>
      </trkpt>
      <trkpt lat="50.04282" lon="2.23016">
        <ele>67.6</ele>
        <time>2014-05-18T13:28:06.73</time>
      </trkpt>
      <trkpt lat="50.04274" lon="2.2302">
        <ele>66.7</ele>
        <time>2014-05-18T13:28:13.73</time>
      </trkpt>
      <trkpt lat="50.04266" lon="2.2302">
        <ele>66.1</ele>
        <time>2014-05-18T13:28:18.73</time>
      </trkpt>
      <trkpt lat="50.04262" lon="2.23021">
        <ele>65.4</ele>
        <time>2014-05-18T13:28:25.73</time>
      </trkpt>
      <trkpt lat="50.04254" lon="2.23024">
        <ele>64.8</ele>
        <time>2014-05-18T13:28:32.74</time>
      </trkpt>
      <trkpt lat="50.04246" lon="2.23025">
        <ele>64</ele>
        <time>2014-05-18T13:28:38.74</time>
      </trkpt>
      <trkpt lat="50.04237" lon="2.23026">
        <ele>63.7</ele>
        <time>2014-05-18T13:28:45.73</time>
      </trkpt>
      <trkpt lat="50.04229" lon="2.23024">
        <ele>64</ele>
        <time>2014-05-18T13:28:51.73</time>
      </trkpt>
      <trkpt lat="50.04222" lon="2.23023">
        <ele>63.8</ele>
        <time>2014-05-18T13:28:58.73</time>
      </trkpt>
      <trkpt lat="50.04217" lon="2.2302">
        <ele>64</ele>
        <time>2014-05-18T13:29:05.73</time>
      </trkpt>
      <trkpt lat="50.04209" lon="2.23019">
        <ele>63.9</ele>
        <time>2014-05-18T13:29:11.73</time>
      </trkpt>
      <trkpt lat="50.04202" lon="2.23017">
        <ele>63.7</ele>
        <time>2014-05-18T13:29:18.73</time>
      </trkpt>
      <trkpt lat="50.04194" lon="2.23019">
        <ele>63.7</ele>
        <time>2014-05-18T13:29:23.80</time>
      </trkpt>
      <trkpt lat="50.04186" lon="2.23019">
        <ele>63.6</ele>
        <time>2014-05-18T13:29:29.73</time>
      </trkpt>
      <trkpt lat="50.04178" lon="2.2302">
        <ele>63</ele>
        <time>2014-05-18T13:29:35.73</time>
      </trkpt>
      <trkpt lat="50.0417" lon="2.2302">
        <ele>62.3</ele>
        <time>2014-05-18T13:29:41.73</time>
      </trkpt>
      <trkpt lat="50.04163" lon="2.23021">
        <ele>62.1</ele>
        <time>2014-05-18T13:29:48.73</time>
      </trkpt>
      <trkpt lat="50.04156" lon="2.23024">
        <ele>61.8</ele>
        <time>2014-05-18T13:29:55.73</time>
      </trkpt>
      <trkpt lat="50.04151" lon="2.23029">
        <ele>61</ele>
        <time>2014-05-18T13:30:02.74</time>
      </trkpt>
      <trkpt lat="50.04145" lon="2.23035">
        <ele>60.5</ele>
        <time>2014-05-18T13:30:09.73</time>
      </trkpt>
      <trkpt lat="50.04143" lon="2.23042">
        <ele>60</ele>
        <time>2014-05-18T13:30:16.74</time>
      </trkpt>
      <trkpt lat="50.04138" lon="2.23052">
        <ele>59.6</ele>
        <time>2014-05-18T13:30:23.73</time>
      </trkpt>
      <trkpt lat="50.04135" lon="2.23063">
        <ele>59.2</ele>
        <time>2014-05-18T13:30:30.73</time>
      </trkpt>
      <trkpt lat="50.04133" lon="2.2307">
        <ele>58.8</ele>
        <time>2014-05-18T13:30:37.73</time>
      </trkpt>
      <trkpt lat="50.04128" lon="2.23074">
        <ele>58.8</ele>
        <time>2014-05-18T13:30:44.74</time>
      </trkpt>
      <trkpt lat="50.04122" lon="2.23082">
        <ele>59.2</ele>
        <time>2014-05-18T13:30:49.73</time>
      </trkpt>
      <trkpt lat="50.04116" lon="2.23084">
        <ele>59.6</ele>
        <time>2014-05-18T13:30:56.74</time>
      </trkpt>
      <trkpt lat="50.04108" lon="2.23089">
        <ele>60.3</ele>
        <time>2014-05-18T13:31:02.74</time>
      </trkpt>
      <trkpt lat="50.04103" lon="2.23087">
        <ele>60.3</ele>
        <time>2014-05-18T13:31:09.74</time>
      </trkpt>
      <trkpt lat="50.04096" lon="2.23088">
        <ele>59.8</ele>
        <time>2014-05-18T13:31:16.74</time>
      </trkpt>
      <trkpt lat="50.04087" lon="2.23089">
        <ele>59.6</ele>
        <time>2014-05-18T13:31:21.73</time>
      </trkpt>
      <trkpt lat="50.0408" lon="2.23086">
        <ele>59.3</ele>
        <time>2014-05-18T13:31:27.73</time>
      </trkpt>
      <trkpt lat="50.04073" lon="2.23083">
        <ele>58.8</ele>
        <time>2014-05-18T13:31:33.73</time>
      </trkpt>
      <trkpt lat="50.04069" lon="2.23076">
        <ele>58.3</ele>
        <time>2014-05-18T13:31:40.73</time>
      </trkpt>
      <trkpt lat="50.0406" lon="2.23074">
        <ele>58.1</ele>
        <time>2014-05-18T13:31:47.73</time>
      </trkpt>
      <trkpt lat="50.04053" lon="2.23074">
        <ele>58.2</ele>
        <time>2014-05-18T13:31:54.73</time>
      </trkpt>
      <trkpt lat="50.04046" lon="2.23075">
        <ele>58.4</ele>
        <time>2014-05-18T13:32:00.73</time>
      </trkpt>
      <trkpt lat="50.04039" lon="2.23077">
        <ele>57.4</ele>
        <time>2014-05-18T13:32:05.73</time>
      </trkpt>
      <trkpt lat="50.04034" lon="2.23083">
        <ele>56.2</ele>
        <time>2014-05-18T13:32:12.73</time>
      </trkpt>
      <trkpt lat="50.04028" lon="2.23089">
        <ele>55.7</ele>
        <time>2014-05-18T13:32:19.73</time>
      </trkpt>
      <trkpt lat="50.04023" lon="2.23097">
        <ele>55.1</ele>
        <time>2014-05-18T13:32:26.74</time>
      </trkpt>
      <trkpt lat="50.04016" lon="2.23102">
        <ele>54.3</ele>
        <time>2014-05-18T13:32:32.73</time>
      </trkpt>
      <trkpt lat="50.04011" lon="2.23104">
        <ele>52.6</ele>
        <time>2014-05-18T13:32:39.73</time>
      </trkpt>
      <trkpt lat="50.04017" lon="2.23104">
        <ele>50.7</ele>
        <time>2014-05-18T13:32:46.77</time>
      </trkpt>
      <trkpt lat="50.04017" lon="2.23104">
        <ele>50.6</ele>
        <time>2014-05-18T13:32:53.73</time>
      </trkpt>
      <trkpt lat="50.04005" lon="2.23114">
        <ele>49.2</ele>
        <time>2014-05-18T13:32:54.75</time>
      </trkpt>
      <trkpt lat="50.04004" lon="2.23118">
        <ele>49.3</ele>
        <time>2014-05-18T13:33:01.73</time>
      </trkpt>
      <trkpt lat="50.03998" lon="2.23123">
        <ele>48.7</ele>
        <time>2014-05-18T13:33:06.76</time>
      </trkpt>
      <trkpt lat="50.03995" lon="2.23133">
        <ele>48.1</ele>
        <time>2014-05-18T13:33:13.76</time>
      </trkpt>
      <trkpt lat="50.03996" lon="2.23141">
        <ele>47.8</ele>
        <time>2014-05-18T13:33:20.72</time>
      </trkpt>
      <trkpt lat="50.03995" lon="2.23151">
        <ele>46.1</ele>
        <time>2014-05-18T13:33:27.74</time>
      </trkpt>
      <trkpt lat="50.03992" lon="2.23162">
        <ele>46.1</ele>
        <time>2014-05-18T13:33:34.72</time>
      </trkpt>
      <trkpt lat="50.0399" lon="2.23174">
        <ele>46.1</ele>
        <time>2014-05-18T13:33:41.72</time>
      </trkpt>
      <trkpt lat="50.03988" lon="2.23182">
        <ele>46.2</ele>
        <time>2014-05-18T13:33:48.72</time>
      </trkpt>
      <trkpt lat="50.03988" lon="2.23193">
        <ele>46.3</ele>
        <time>2014-05-18T13:33:55.75</time>
      </trkpt>
      <trkpt lat="50.03989" lon="2.23204">
        <ele>46.3</ele>
        <time>2014-05-18T13:34:01.72</time>
      </trkpt>
      <trkpt lat="50.03992" lon="2.23217">
        <ele>46.3</ele>
        <time>2014-05-18T13:34:06.72</time>
      </trkpt>
      <trkpt lat="50.03992" lon="2.23228">
        <ele>46.1</ele>
        <time>2014-05-18T13:34:12.72</time>
      </trkpt>
      <trkpt lat="50.03996" lon="2.23236">
        <ele>45.9</ele>
        <time>2014-05-18T13:34:19.72</time>
      </trkpt>
      <trkpt lat="50.04002" lon="2.23245">
        <ele>46.1</ele>
        <time>2014-05-18T13:34:25.72</time>
      </trkpt>
      <trkpt lat="50.04007" lon="2.23251">
        <ele>46.1</ele>
        <time>2014-05-18T13:34:32.72</time>
      </trkpt>
      <trkpt lat="50.04014" lon="2.23256">
        <ele>46</ele>
        <time>2014-05-18T13:34:39.72</time>
      </trkpt>
      <trkpt lat="50.04021" lon="2.23262">
        <ele>46</ele>
        <time>2014-05-18T13:34:45.72</time>
      </trkpt>
      <trkpt lat="50.0403" lon="2.23263">
        <ele>46.3</ele>
        <time>2014-05-18T13:34:51.85</time>
      </trkpt>
      <trkpt lat="50.04038" lon="2.23265">
        <ele>46.5</ele>
        <time>2014-05-18T13:34:57.72</time>
      </trkpt>
      <trkpt lat="50.04045" lon="2.23267">
        <ele>46.7</ele>
        <time>2014-05-18T13:35:03.72</time>
      </trkpt>
      <trkpt lat="50.04054" lon="2.23265">
        <ele>47.3</ele>
        <time>2014-05-18T13:35:10.72</time>
      </trkpt>
      <trkpt lat="50.0406" lon="2.23266">
        <ele>48.2</ele>
        <time>2014-05-18T13:35:17.72</time>
      </trkpt>
      <trkpt lat="50.04066" lon="2.23268">
        <ele>49.3</ele>
        <time>2014-05-18T13:35:24.72</time>
      </trkpt>
      <trkpt lat="50.04073" lon="2.23272">
        <ele>50.6</ele>
        <time>2014-05-18T13:35:30.72</time>
      </trkpt>
      <trkpt lat="50.0408" lon="2.23275">
        <ele>52.8</ele>
        <time>2014-05-18T13:35:37.72</time>
      </trkpt>
      <trkpt lat="50.04088" lon="2.23274">
        <ele>54.1</ele>
        <time>2014-05-18T13:35:44.72</time>
      </trkpt>
      <trkpt lat="50.04094" lon="2.23277">
        <ele>55.5</ele>
        <time>2014-05-18T13:35:51.72</time>
      </trkpt>
      <trkpt lat="50.04102" lon="2.23279">
        <ele>57.4</ele>
        <time>2014-05-18T13:35:58.72</time>
      </trkpt>
      <trkpt lat="50.04109" lon="2.23281">
        <ele>59.8</ele>
        <time>2014-05-18T13:36:05.73</time>
      </trkpt>
      <trkpt lat="50.04115" lon="2.23284">
        <ele>61.1</ele>
        <time>2014-05-18T13:36:12.72</time>
      </trkpt>
      <trkpt lat="50.04124" lon="2.23286">
        <ele>63.1</ele>
        <time>2014-05-18T13:36:19.72</time>
      </trkpt>
      <trkpt lat="50.0413" lon="2.23291">
        <ele>64.5</ele>
        <time>2014-05-18T13:36:26.72</time>
      </trkpt>
      <trkpt lat="50.04137" lon="2.23296">
        <ele>65.7</ele>
        <time>2014-05-18T13:36:33.72</time>
      </trkpt>
      <trkpt lat="50.04143" lon="2.23302">
        <ele>66.8</ele>
        <time>2014-05-18T13:36:40.72</time>
      </trkpt>
      <trkpt lat="50.04149" lon="2.23307">
        <ele>68.1</ele>
        <time>2014-05-18T13:36:46.72</time>
      </trkpt>
      <trkpt lat="50.04156" lon="2.2331">
        <ele>69.1</ele>
        <time>2014-05-18T13:36:53.72</time>
      </trkpt>
      <trkpt lat="50.04161" lon="2.23313">
        <ele>70.3</ele>
        <time>2014-05-18T13:37:00.72</time>
      </trkpt>
      <trkpt lat="50.04168" lon="2.23316">
        <ele>71.2</ele>
        <time>2014-05-18T13:37:06.72</time>
      </trkpt>
      <trkpt lat="50.04175" lon="2.23321">
        <ele>71.8</ele>
        <time>2014-05-18T13:37:12.72</time>
      </trkpt>
      <trkpt lat="50.0418" lon="2.23326">
        <ele>73</ele>
        <time>2014-05-18T13:37:19.72</time>
      </trkpt>
      <trkpt lat="50.04185" lon="2.23335">
        <ele>74.1</ele>
        <time>2014-05-18T13:37:26.72</time>
      </trkpt>
      <trkpt lat="50.04189" lon="2.23344">
        <ele>75.4</ele>
        <time>2014-05-18T13:37:33.72</time>
      </trkpt>
      <trkpt lat="50.04193" lon="2.23351">
        <ele>76.7</ele>
        <time>2014-05-18T13:37:40.72</time>
      </trkpt>
      <trkpt lat="50.042" lon="2.23359">
        <ele>78.2</ele>
        <time>2014-05-18T13:37:47.72</time>
      </trkpt>
      <trkpt lat="50.04204" lon="2.23369">
        <ele>79.2</ele>
        <time>2014-05-18T13:37:52.72</time>
      </trkpt>
      <trkpt lat="50.04209" lon="2.23376">
        <ele>80.7</ele>
        <time>2014-05-18T13:37:59.72</time>
      </trkpt>
      <trkpt lat="50.04213" lon="2.23383">
        <ele>82.1</ele>
        <time>2014-05-18T13:38:06.72</time>
      </trkpt>
      <trkpt lat="50.04217" lon="2.23388">
        <ele>83.2</ele>
        <time>2014-05-18T13:38:13.72</time>
      </trkpt>
      <trkpt lat="50.04222" lon="2.23395">
        <ele>83.8</ele>
        <time>2014-05-18T13:38:20.72</time>
      </trkpt>
      <trkpt lat="50.04228" lon="2.23402">
        <ele>84.7</ele>
        <time>2014-05-18T13:38:27.72</time>
      </trkpt>
      <trkpt lat="50.04231" lon="2.23412">
        <ele>85.8</ele>
        <time>2014-05-18T13:38:34.74</time>
      </trkpt>
      <trkpt lat="50.04237" lon="2.23422">
        <ele>86.9</ele>
        <time>2014-05-18T13:38:41.72</time>
      </trkpt>
      <trkpt lat="50.04242" lon="2.2343">
        <ele>87.2</ele>
        <time>2014-05-18T13:38:48.72</time>
      </trkpt>
      <trkpt lat="50.04247" lon="2.23439">
        <ele>87.7</ele>
        <time>2014-05-18T13:38:55.72</time>
      </trkpt>
      <trkpt lat="50.04251" lon="2.23449">
        <ele>88.1</ele>
        <time>2014-05-18T13:39:02.72</time>
      </trkpt>
      <trkpt lat="50.04256" lon="2.23457">
        <ele>88.4</ele>
        <time>2014-05-18T13:39:09.72</time>
      </trkpt>
      <trkpt lat="50.04261" lon="2.23466">
        <ele>88.8</ele>
        <time>2014-05-18T13:39:16.72</time>
      </trkpt>
      <trkpt lat="50.04264" lon="2.23476">
        <ele>89.3</ele>
        <time>2014-05-18T13:39:22.72</time>
      </trkpt>
      <trkpt lat="50.04268" lon="2.23487">
        <ele>89.9</ele>
        <time>2014-05-18T13:39:29.75</time>
      </trkpt>
      <trkpt lat="50.04273" lon="2.23496">
        <ele>91.2</ele>
        <time>2014-05-18T13:39:36.72</time>
      </trkpt>
      <trkpt lat="50.04276" lon="2.23505">
        <ele>91.7</ele>
        <time>2014-05-18T13:39:43.72</time>
      </trkpt>
      <trkpt lat="50.0428" lon="2.23516">
        <ele>92.2</ele>
        <time>2014-05-18T13:39:50.72</time>
      </trkpt>
      <trkpt lat="50.04282" lon="2.23527">
        <ele>92</ele>
        <time>2014-05-18T13:39:56.72</time>
      </trkpt>
      <trkpt lat="50.04284" lon="2.23539">
        <ele>92.2</ele>
        <time>2014-05-18T13:40:03.72</time>
      </trkpt>
      <trkpt lat="50.04286" lon="2.2355">
        <ele>92.6</ele>
        <time>2014-05-18T13:40:10.72</time>
      </trkpt>
      <trkpt lat="50.04288" lon="2.23562">
        <ele>93</ele>
        <time>2014-05-18T13:40:17.72</time>
      </trkpt>
      <trkpt lat="50.0429" lon="2.23573">
        <ele>93.3</ele>
        <time>2014-05-18T13:40:24.72</time>
      </trkpt>
      <trkpt lat="50.04291" lon="2.23586">
        <ele>93.6</ele>
        <time>2014-05-18T13:40:30.72</time>
      </trkpt>
      <trkpt lat="50.04291" lon="2.23599">
        <ele>94.2</ele>
        <time>2014-05-18T13:40:37.72</time>
      </trkpt>
      <trkpt lat="50.04293" lon="2.23609">
        <ele>94.5</ele>
        <time>2014-05-18T13:40:43.72</time>
      </trkpt>
      <trkpt lat="50.04294" lon="2.23621">
        <ele>94.9</ele>
        <time>2014-05-18T13:40:50.72</time>
      </trkpt>
      <trkpt lat="50.04294" lon="2.23633">
        <ele>95</ele>
        <time>2014-05-18T13:40:56.72</time>
      </trkpt>
      <trkpt lat="50.04297" lon="2.23644">
        <ele>95.2</ele>
        <time>2014-05-18T13:41:03.72</time>
      </trkpt>
      <trkpt lat="50.043" lon="2.23654">
        <ele>95.6</ele>
        <time>2014-05-18T13:41:09.72</time>
      </trkpt>
      <trkpt lat="50.04302" lon="2.23665">
        <ele>96.1</ele>
        <time>2014-05-18T13:41:15.72</time>
      </trkpt>
      <trkpt lat="50.04305" lon="2.23675">
        <ele>96.6</ele>
        <time>2014-05-18T13:41:21.72</time>
      </trkpt>
      <trkpt lat="50.04309" lon="2.23686">
        <ele>96.9</ele>
        <time>2014-05-18T13:41:27.72</time>
      </trkpt>
      <trkpt lat="50.04312" lon="2.23696">
        <ele>97</ele>
        <time>2014-05-18T13:41:33.72</time>
      </trkpt>
      <trkpt lat="50.04316" lon="2.23707">
        <ele>97.8</ele>
        <time>2014-05-18T13:41:40.73</time>
      </trkpt>
      <trkpt lat="50.04318" lon="2.23717">
        <ele>97.7</ele>
        <time>2014-05-18T13:41:46.73</time>
      </trkpt>
      <trkpt lat="50.04322" lon="2.23728">
        <ele>97.9</ele>
        <time>2014-05-18T13:41:53.72</time>
      </trkpt>
      <trkpt lat="50.04325" lon="2.23739">
        <ele>98</ele>
        <time>2014-05-18T13:42:00.72</time>
      </trkpt>
      <trkpt lat="50.04327" lon="2.2375">
        <ele>98.4</ele>
        <time>2014-05-18T13:42:07.74</time>
      </trkpt>
      <trkpt lat="50.0433" lon="2.23761">
        <ele>98.2</ele>
        <time>2014-05-18T13:42:14.72</time>
      </trkpt>
      <trkpt lat="50.04332" lon="2.23771">
        <ele>98</ele>
        <time>2014-05-18T13:42:21.72</time>
      </trkpt>
      <trkpt lat="50.04333" lon="2.23784">
        <ele>97.7</ele>
        <time>2014-05-18T13:42:28.72</time>
      </trkpt>
      <trkpt lat="50.04336" lon="2.23796">
        <ele>97.4</ele>
        <time>2014-05-18T13:42:35.72</time>
      </trkpt>
      <trkpt lat="50.04339" lon="2.23807">
        <ele>97.8</ele>
        <time>2014-05-18T13:42:41.72</time>
      </trkpt>
      <trkpt lat="50.04341" lon="2.23818">
        <ele>97.8</ele>
        <time>2014-05-18T13:42:47.72</time>
      </trkpt>
      <trkpt lat="50.04344" lon="2.23829">
        <ele>98.1</ele>
        <time>2014-05-18T13:42:54.72</time>
      </trkpt>
      <trkpt lat="50.04345" lon="2.23841">
        <ele>98.2</ele>
        <time>2014-05-18T13:43:01.72</time>
      </trkpt>
      <trkpt lat="50.04348" lon="2.23852">
        <ele>98.5</ele>
        <time>2014-05-18T13:43:08.72</time>
      </trkpt>
      <trkpt lat="50.04351" lon="2.23864">
        <ele>98.6</ele>
        <time>2014-05-18T13:43:14.72</time>
      </trkpt>
      <trkpt lat="50.04354" lon="2.23874">
        <ele>98.7</ele>
        <time>2014-05-18T13:43:21.72</time>
      </trkpt>
      <trkpt lat="50.04358" lon="2.23885">
        <ele>99</ele>
        <time>2014-05-18T13:43:27.72</time>
      </trkpt>
      <trkpt lat="50.04363" lon="2.23894">
        <ele>99.3</ele>
        <time>2014-05-18T13:43:34.72</time>
      </trkpt>
      <trkpt lat="50.04366" lon="2.23904">
        <ele>99.7</ele>
        <time>2014-05-18T13:43:41.72</time>
      </trkpt>
      <trkpt lat="50.04371" lon="2.23913">
        <ele>100.2</ele>
        <time>2014-05-18T13:43:48.72</time>
      </trkpt>
      <trkpt lat="50.04377" lon="2.23924">
        <ele>101</ele>
        <time>2014-05-18T13:43:55.72</time>
      </trkpt>
      <trkpt lat="50.04383" lon="2.23928">
        <ele>102</ele>
        <time>2014-05-18T13:44:02.72</time>
      </trkpt>
      <trkpt lat="50.04389" lon="2.23936">
        <ele>102.7</ele>
        <time>2014-05-18T13:44:09.72</time>
      </trkpt>
      <trkpt lat="50.04394" lon="2.23947">
        <ele>103.4</ele>
        <time>2014-05-18T13:44:16.72</time>
      </trkpt>
      <trkpt lat="50.04397" lon="2.23956">
        <ele>104</ele>
        <time>2014-05-18T13:44:23.72</time>
      </trkpt>
      <trkpt lat="50.04401" lon="2.23964">
        <ele>104.8</ele>
        <time>2014-05-18T13:44:30.72</time>
      </trkpt>
      <trkpt lat="50.04403" lon="2.23975">
        <ele>105.3</ele>
        <time>2014-05-18T13:44:36.72</time>
      </trkpt>
      <trkpt lat="50.04408" lon="2.23985">
        <ele>106.3</ele>
        <time>2014-05-18T13:44:43.72</time>
      </trkpt>
      <trkpt lat="50.04412" lon="2.23996">
        <ele>107.2</ele>
        <time>2014-05-18T13:44:50.72</time>
      </trkpt>
      <trkpt lat="50.04414" lon="2.24007">
        <ele>107.8</ele>
        <time>2014-05-18T13:44:57.72</time>
      </trkpt>
      <trkpt lat="50.04415" lon="2.24018">
        <ele>108.4</ele>
        <time>2014-05-18T13:45:03.72</time>
      </trkpt>
      <trkpt lat="50.04415" lon="2.24029">
        <ele>109.1</ele>
        <time>2014-05-18T13:45:10.72</time>
      </trkpt>
      <trkpt lat="50.04415" lon="2.24038">
        <ele>109.8</ele>
        <time>2014-05-18T13:45:17.72</time>
      </trkpt>
      <trkpt lat="50.04417" lon="2.24049">
        <ele>110.1</ele>
        <time>2014-05-18T13:45:24.74</time>
      </trkpt>
      <trkpt lat="50.04417" lon="2.24059">
        <ele>110.9</ele>
        <time>2014-05-18T13:45:31.72</time>
      </trkpt>
      <trkpt lat="50.04418" lon="2.24071">
        <ele>111.5</ele>
        <time>2014-05-18T13:45:38.72</time>
      </trkpt>
      <trkpt lat="50.04418" lon="2.24084">
        <ele>112.2</ele>
        <time>2014-05-18T13:45:45.72</time>
      </trkpt>
      <trkpt lat="50.04418" lon="2.24094">
        <ele>112.9</ele>
        <time>2014-05-18T13:45:52.72</time>
      </trkpt>
      <trkpt lat="50.04418" lon="2.24105">
        <ele>113.5</ele>
        <time>2014-05-18T13:45:59.72</time>
      </trkpt>
      <trkpt lat="50.04418" lon="2.24118">
        <ele>114.2</ele>
        <time>2014-05-18T13:46:06.72</time>
      </trkpt>
      <trkpt lat="50.04419" lon="2.2413">
        <ele>114.7</ele>
        <time>2014-05-18T13:46:12.72</time>
      </trkpt>
      <trkpt lat="50.04418" lon="2.24142">
        <ele>115.1</ele>
        <time>2014-05-18T13:46:18.72</time>
      </trkpt>
      <trkpt lat="50.04418" lon="2.24153">
        <ele>115.7</ele>
        <time>2014-05-18T13:46:24.72</time>
      </trkpt>
      <trkpt lat="50.04415" lon="2.24163">
        <ele>116.5</ele>
        <time>2014-05-18T13:46:31.72</time>
      </trkpt>
      <trkpt lat="50.04416" lon="2.24176">
        <ele>116.9</ele>
        <time>2014-05-18T13:46:37.72</time>
      </trkpt>
      <trkpt lat="50.04419" lon="2.24187">
        <ele>117.4</ele>
        <time>2014-05-18T13:46:43.72</time>
      </trkpt>
      <trkpt lat="50.04423" lon="2.242">
        <ele>118</ele>
        <time>2014-05-18T13:46:50.72</time>
      </trkpt>
      <trkpt lat="50.04428" lon="2.24211">
        <ele>118.4</ele>
        <time>2014-05-18T13:46:55.72</time>
      </trkpt>
      <trkpt lat="50.04432" lon="2.24222">
        <ele>118.9</ele>
        <time>2014-05-18T13:47:01.72</time>
      </trkpt>
      <trkpt lat="50.04435" lon="2.24233">
        <ele>119.1</ele>
        <time>2014-05-18T13:47:05.72</time>
      </trkpt>
      <trkpt lat="50.04439" lon="2.24241">
        <ele>119.6</ele>
        <time>2014-05-18T13:47:11.72</time>
      </trkpt>
      <trkpt lat="50.04446" lon="2.24253">
        <ele>119.9</ele>
        <time>2014-05-18T13:47:17.72</time>
      </trkpt>
      <trkpt lat="50.04449" lon="2.24263">
        <ele>120.2</ele>
        <time>2014-05-18T13:47:24.72</time>
      </trkpt>
      <trkpt lat="50.0445" lon="2.24263">
        <ele>120.2</ele>
        <time>2014-05-18T13:47:31.72</time>
      </trkpt>
      <trkpt lat="50.04456" lon="2.24265">
        <ele>120.3</ele>
        <time>2014-05-18T13:47:35.74</time>
      </trkpt>
      <trkpt lat="50.04452" lon="2.24265">
        <ele>118.9</ele>
        <time>2014-05-18T13:47:39.74</time>
      </trkpt>
      <trkpt lat="50.04456" lon="2.24259">
        <ele>118.6</ele>
        <time>2014-05-18T13:47:46.65</time>
      </trkpt>
      <trkpt lat="50.04454" lon="2.2427">
        <ele>118.3</ele>
        <time>2014-05-18T13:47:51.67</time>
      </trkpt>
      <trkpt lat="50.04458" lon="2.2428">
        <ele>118.6</ele>
        <time>2014-05-18T13:47:57.64</time>
      </trkpt>
      <trkpt lat="50.04465" lon="2.24285">
        <ele>118.9</ele>
        <time>2014-05-18T13:47:59.64</time>
      </trkpt>
      <trkpt lat="50.04472" lon="2.24292">
        <ele>119.5</ele>
        <time>2014-05-18T13:48:06.64</time>
      </trkpt>
      <trkpt lat="50.04479" lon="2.24297">
        <ele>119.9</ele>
        <time>2014-05-18T13:48:12.64</time>
      </trkpt>
      <trkpt lat="50.04485" lon="2.24303">
        <ele>120.1</ele>
        <time>2014-05-18T13:48:19.64</time>
      </trkpt>
      <trkpt lat="50.04492" lon="2.24307">
        <ele>120.3</ele>
        <time>2014-05-18T13:48:26.64</time>
      </trkpt>
      <trkpt lat="50.04498" lon="2.24313">
        <ele>120.5</ele>
        <time>2014-05-18T13:48:32.64</time>
      </trkpt>
      <trkpt lat="50.04504" lon="2.2432">
        <ele>121</ele>
        <time>2014-05-18T13:48:39.64</time>
      </trkpt>
      <trkpt lat="50.04509" lon="2.2433">
        <ele>121.2</ele>
        <time>2014-05-18T13:48:45.64</time>
      </trkpt>
      <trkpt lat="50.04511" lon="2.24341">
        <ele>121.5</ele>
        <time>2014-05-18T13:48:51.64</time>
      </trkpt>
      <trkpt lat="50.04511" lon="2.24351">
        <ele>122</ele>
        <time>2014-05-18T13:48:58.64</time>
      </trkpt>
      <trkpt lat="50.0451" lon="2.24363">
        <ele>123</ele>
        <time>2014-05-18T13:49:03.64</time>
      </trkpt>
      <trkpt lat="50.04508" lon="2.24375">
        <ele>123.5</ele>
        <time>2014-05-18T13:49:10.64</time>
      </trkpt>
      <trkpt lat="50.04507" lon="2.24387">
        <ele>123.6</ele>
        <time>2014-05-18T13:49:17.63</time>
      </trkpt>
      <trkpt lat="50.04507" lon="2.24399">
        <ele>123.6</ele>
        <time>2014-05-18T13:49:24.64</time>
      </trkpt>
      <trkpt lat="50.04507" lon="2.2441">
        <ele>123.6</ele>
        <time>2014-05-18T13:49:30.64</time>
      </trkpt>
      <trkpt lat="50.04505" lon="2.24423">
        <ele>124.2</ele>
        <time>2014-05-18T13:49:36.64</time>
      </trkpt>
      <trkpt lat="50.04504" lon="2.24434">
        <ele>124.4</ele>
        <time>2014-05-18T13:49:41.64</time>
      </trkpt>
      <trkpt lat="50.04503" lon="2.24447">
        <ele>124.4</ele>
        <time>2014-05-18T13:49:48.64</time>
      </trkpt>
      <trkpt lat="50.04502" lon="2.2446">
        <ele>124.1</ele>
        <time>2014-05-18T13:49:54.64</time>
      </trkpt>
      <trkpt lat="50.04502" lon="2.24471">
        <ele>124</ele>
        <time>2014-05-18T13:50:01.64</time>
      </trkpt>
      <trkpt lat="50.04501" lon="2.24482">
        <ele>124.3</ele>
        <time>2014-05-18T13:50:07.63</time>
      </trkpt>
      <trkpt lat="50.045" lon="2.24494">
        <ele>123.9</ele>
        <time>2014-05-18T13:50:13.64</time>
      </trkpt>
      <trkpt lat="50.04498" lon="2.24506">
        <ele>123.7</ele>
        <time>2014-05-18T13:50:19.64</time>
      </trkpt>
      <trkpt lat="50.04499" lon="2.24518">
        <ele>123.3</ele>
        <time>2014-05-18T13:50:25.63</time>
      </trkpt>
      <trkpt lat="50.04497" lon="2.24529">
        <ele>123.3</ele>
        <time>2014-05-18T13:50:30.64</time>
      </trkpt>
      <trkpt lat="50.04497" lon="2.24541">
        <ele>123.3</ele>
        <time>2014-05-18T13:50:35.63</time>
      </trkpt>
      <trkpt lat="50.04497" lon="2.24551">
        <ele>122.6</ele>
        <time>2014-05-18T13:50:42.63</time>
      </trkpt>
      <trkpt lat="50.04496" lon="2.24564">
        <ele>122.2</ele>
        <time>2014-05-18T13:50:48.64</time>
      </trkpt>
      <trkpt lat="50.04496" lon="2.24576">
        <ele>122.3</ele>
        <time>2014-05-18T13:50:55.64</time>
      </trkpt>
      <trkpt lat="50.04495" lon="2.24588">
        <ele>122.2</ele>
        <time>2014-05-18T13:51:00.63</time>
      </trkpt>
      <trkpt lat="50.04496" lon="2.246">
        <ele>121.6</ele>
        <time>2014-05-18T13:51:06.63</time>
      </trkpt>
      <trkpt lat="50.04495" lon="2.24614">
        <ele>121.3</ele>
        <time>2014-05-18T13:51:12.64</time>
      </trkpt>
      <trkpt lat="50.04495" lon="2.24625">
        <ele>121.5</ele>
        <time>2014-05-18T13:51:18.63</time>
      </trkpt>
      <trkpt lat="50.04494" lon="2.24637">
        <ele>121.5</ele>
        <time>2014-05-18T13:51:23.64</time>
      </trkpt>
      <trkpt lat="50.04493" lon="2.24647">
        <ele>121.6</ele>
        <time>2014-05-18T13:51:30.64</time>
      </trkpt>
      <trkpt lat="50.04491" lon="2.24661">
        <ele>121.5</ele>
        <time>2014-05-18T13:51:36.65</time>
      </trkpt>
      <trkpt lat="50.04489" lon="2.24671">
        <ele>121.8</ele>
        <time>2014-05-18T13:51:42.64</time>
      </trkpt>
      <trkpt lat="50.04487" lon="2.24684">
        <ele>121.6</ele>
        <time>2014-05-18T13:51:48.63</time>
      </trkpt>
      <trkpt lat="50.04487" lon="2.24695">
        <ele>121.8</ele>
        <time>2014-05-18T13:51:54.63</time>
      </trkpt>
      <trkpt lat="50.04486" lon="2.24708">
        <ele>122</ele>
        <time>2014-05-18T13:52:00.63</time>
      </trkpt>
      <trkpt lat="50.04485" lon="2.2472">
        <ele>122.7</ele>
        <time>2014-05-18T13:52:05.63</time>
      </trkpt>
      <trkpt lat="50.04484" lon="2.24732">
        <ele>122.9</ele>
        <time>2014-05-18T13:52:11.64</time>
      </trkpt>
      <trkpt lat="50.04483" lon="2.24743">
        <ele>122.6</ele>
        <time>2014-05-18T13:52:17.64</time>
      </trkpt>
      <trkpt lat="50.04484" lon="2.24757">
        <ele>122.1</ele>
        <time>2014-05-18T13:52:24.63</time>
      </trkpt>
      <trkpt lat="50.04484" lon="2.24768">
        <ele>122.4</ele>
        <time>2014-05-18T13:52:30.69</time>
      </trkpt>
      <trkpt lat="50.04483" lon="2.24781">
        <ele>122.1</ele>
        <time>2014-05-18T13:52:36.64</time>
      </trkpt>
      <trkpt lat="50.04481" lon="2.24791">
        <ele>122</ele>
        <time>2014-05-18T13:52:42.63</time>
      </trkpt>
      <trkpt lat="50.04482" lon="2.24804">
        <ele>121.8</ele>
        <time>2014-05-18T13:52:48.63</time>
      </trkpt>
      <trkpt lat="50.04482" lon="2.24816">
        <ele>121.5</ele>
        <time>2014-05-18T13:52:53.64</time>
      </trkpt>
      <trkpt lat="50.04481" lon="2.24829">
        <ele>120.7</ele>
        <time>2014-05-18T13:53:00.63</time>
      </trkpt>
      <trkpt lat="50.04481" lon="2.24841">
        <ele>120.2</ele>
        <time>2014-05-18T13:53:07.63</time>
      </trkpt>
      <trkpt lat="50.04479" lon="2.24853">
        <ele>119.8</ele>
        <time>2014-05-18T13:53:13.64</time>
      </trkpt>
      <trkpt lat="50.04477" lon="2.24865">
        <ele>119.3</ele>
        <time>2014-05-18T13:53:20.64</time>
      </trkpt>
      <trkpt lat="50.04475" lon="2.24877">
        <ele>119.3</ele>
        <time>2014-05-18T13:53:26.64</time>
      </trkpt>
      <trkpt lat="50.04475" lon="2.24889">
        <ele>119.4</ele>
        <time>2014-05-18T13:53:32.64</time>
      </trkpt>
      <trkpt lat="50.04474" lon="2.24901">
        <ele>119.1</ele>
        <time>2014-05-18T13:53:38.64</time>
      </trkpt>
      <trkpt lat="50.04474" lon="2.24913">
        <ele>119.1</ele>
        <time>2014-05-18T13:53:45.64</time>
      </trkpt>
      <trkpt lat="50.04473" lon="2.24927">
        <ele>119.4</ele>
        <time>2014-05-18T13:53:50.64</time>
      </trkpt>
      <trkpt lat="50.04472" lon="2.24938">
        <ele>119.4</ele>
        <time>2014-05-18T13:53:57.63</time>
      </trkpt>
      <trkpt lat="50.04471" lon="2.2495">
        <ele>119.2</ele>
        <time>2014-05-18T13:54:03.63</time>
      </trkpt>
      <trkpt lat="50.04471" lon="2.24962">
        <ele>119.1</ele>
        <time>2014-05-18T13:54:10.64</time>
      </trkpt>
      <trkpt lat="50.0447" lon="2.24975">
        <ele>119.2</ele>
        <time>2014-05-18T13:54:16.64</time>
      </trkpt>
      <trkpt lat="50.04469" lon="2.24986">
        <ele>119.1</ele>
        <time>2014-05-18T13:54:22.64</time>
      </trkpt>
      <trkpt lat="50.04468" lon="2.24998">
        <ele>119.1</ele>
        <time>2014-05-18T13:54:27.63</time>
      </trkpt>
      <trkpt lat="50.04467" lon="2.25009">
        <ele>119.4</ele>
        <time>2014-05-18T13:54:32.64</time>
      </trkpt>
      <trkpt lat="50.04466" lon="2.25022">
        <ele>119.4</ele>
        <time>2014-05-18T13:54:38.64</time>
      </trkpt>
      <trkpt lat="50.04465" lon="2.25037">
        <ele>119.1</ele>
        <time>2014-05-18T13:54:41.63</time>
      </trkpt>
      <trkpt lat="50.04463" lon="2.25052">
        <ele>118.3</ele>
        <time>2014-05-18T13:54:44.64</time>
      </trkpt>
      <trkpt lat="50.04462" lon="2.25055">
        <ele>117.3</ele>
        <time>2014-05-18T13:54:51.63</time>
      </trkpt>
      <trkpt lat="50.04457" lon="2.25052">
        <ele>117.1</ele>
        <time>2014-05-18T13:54:58.64</time>
      </trkpt>
      <trkpt lat="50.0445" lon="2.25051">
        <ele>117.4</ele>
        <time>2014-05-18T13:55:05.63</time>
      </trkpt>
      <trkpt lat="50.04444" lon="2.25044">
        <ele>117.4</ele>
        <time>2014-05-18T13:55:10.64</time>
      </trkpt>
      <trkpt lat="50.04437" lon="2.25038">
        <ele>116.9</ele>
        <time>2014-05-18T13:55:16.64</time>
      </trkpt>
      <trkpt lat="50.04431" lon="2.25031">
        <ele>116.5</ele>
        <time>2014-05-18T13:55:22.64</time>
      </trkpt>
      <trkpt lat="50.04425" lon="2.25024">
        <ele>116.3</ele>
        <time>2014-05-18T13:55:28.64</time>
      </trkpt>
      <trkpt lat="50.04421" lon="2.25018">
        <ele>116.6</ele>
        <time>2014-05-18T13:55:35.63</time>
      </trkpt>
      <trkpt lat="50.04413" lon="2.25012">
        <ele>116.8</ele>
        <time>2014-05-18T13:55:40.64</time>
      </trkpt>
      <trkpt lat="50.04406" lon="2.25007">
        <ele>117</ele>
        <time>2014-05-18T13:55:47.63</time>
      </trkpt>
      <trkpt lat="50.044" lon="2.25003">
        <ele>116.9</ele>
        <time>2014-05-18T13:55:54.63</time>
      </trkpt>
      <trkpt lat="50.04393" lon="2.24997">
        <ele>116.8</ele>
        <time>2014-05-18T13:56:00.63</time>
      </trkpt>
      <trkpt lat="50.04386" lon="2.24995">
        <ele>116.7</ele>
        <time>2014-05-18T13:56:06.64</time>
      </trkpt>
      <trkpt lat="50.04378" lon="2.24994">
        <ele>116.5</ele>
        <time>2014-05-18T13:56:11.63</time>
      </trkpt>
      <trkpt lat="50.04371" lon="2.24992">
        <ele>116.3</ele>
        <time>2014-05-18T13:56:17.63</time>
      </trkpt>
      <trkpt lat="50.04363" lon="2.2499">
        <ele>116.1</ele>
        <time>2014-05-18T13:56:22.64</time>
      </trkpt>
      <trkpt lat="50.04356" lon="2.2499">
        <ele>116</ele>
        <time>2014-05-18T13:56:29.63</time>
      </trkpt>
      <trkpt lat="50.04349" lon="2.24988">
        <ele>115.9</ele>
        <time>2014-05-18T13:56:35.63</time>
      </trkpt>
      <trkpt lat="50.04342" lon="2.24988">
        <ele>115.8</ele>
        <time>2014-05-18T13:56:42.64</time>
      </trkpt>
      <trkpt lat="50.04334" lon="2.24986">
        <ele>116</ele>
        <time>2014-05-18T13:56:48.63</time>
      </trkpt>
      <trkpt lat="50.04327" lon="2.24987">
        <ele>116</ele>
        <time>2014-05-18T13:56:54.63</time>
      </trkpt>
      <trkpt lat="50.04319" lon="2.24986">
        <ele>116</ele>
        <time>2014-05-18T13:56:59.67</time>
      </trkpt>
      <trkpt lat="50.04311" lon="2.24983">
        <ele>116.2</ele>
        <time>2014-05-18T13:57:05.63</time>
      </trkpt>
      <trkpt lat="50.04303" lon="2.24983">
        <ele>116.5</ele>
        <time>2014-05-18T13:57:11.63</time>
      </trkpt>
      <trkpt lat="50.04297" lon="2.24985">
        <ele>116.6</ele>
        <time>2014-05-18T13:57:18.63</time>
      </trkpt>
      <trkpt lat="50.04291" lon="2.24994">
        <ele>116.5</ele>
        <time>2014-05-18T13:57:24.63</time>
      </trkpt>
      <trkpt lat="50.04285" lon="2.25001">
        <ele>116.7</ele>
        <time>2014-05-18T13:57:30.75</time>
      </trkpt>
      <trkpt lat="50.04279" lon="2.25008">
        <ele>116.9</ele>
        <time>2014-05-18T13:57:36.72</time>
      </trkpt>
      <trkpt lat="50.04275" lon="2.25017">
        <ele>117.3</ele>
        <time>2014-05-18T13:57:42.67</time>
      </trkpt>
      <trkpt lat="50.04273" lon="2.25027">
        <ele>117.6</ele>
        <time>2014-05-18T13:57:49.65</time>
      </trkpt>
      <trkpt lat="50.0427" lon="2.25039">
        <ele>117.7</ele>
        <time>2014-05-18T13:57:55.63</time>
      </trkpt>
      <trkpt lat="50.04268" lon="2.2505">
        <ele>117.4</ele>
        <time>2014-05-18T13:58:02.64</time>
      </trkpt>
      <trkpt lat="50.04267" lon="2.25062">
        <ele>117.3</ele>
        <time>2014-05-18T13:58:08.64</time>
      </trkpt>
      <trkpt lat="50.04267" lon="2.25076">
        <ele>116.7</ele>
        <time>2014-05-18T13:58:15.63</time>
      </trkpt>
      <trkpt lat="50.04261" lon="2.25085">
        <ele>116.2</ele>
        <time>2014-05-18T13:58:20.64</time>
      </trkpt>
      <trkpt lat="50.04259" lon="2.25097">
        <ele>116</ele>
        <time>2014-05-18T13:58:27.63</time>
      </trkpt>
      <trkpt lat="50.04258" lon="2.25109">
        <ele>115.7</ele>
        <time>2014-05-18T13:58:33.63</time>
      </trkpt>
      <trkpt lat="50.04256" lon="2.2512">
        <ele>115.5</ele>
        <time>2014-05-18T13:58:39.63</time>
      </trkpt>
      <trkpt lat="50.04252" lon="2.2513">
        <ele>116</ele>
        <time>2014-05-18T13:58:45.63</time>
      </trkpt>
      <trkpt lat="50.04249" lon="2.25141">
        <ele>116</ele>
        <time>2014-05-18T13:58:51.63</time>
      </trkpt>
      <trkpt lat="50.04245" lon="2.25153">
        <ele>115.9</ele>
        <time>2014-05-18T13:58:58.64</time>
      </trkpt>
      <trkpt lat="50.04242" lon="2.25165">
        <ele>115.5</ele>
        <time>2014-05-18T13:59:03.63</time>
      </trkpt>
      <trkpt lat="50.04241" lon="2.25177">
        <ele>114.6</ele>
        <time>2014-05-18T13:59:10.64</time>
      </trkpt>
      <trkpt lat="50.04238" lon="2.25188">
        <ele>114.1</ele>
        <time>2014-05-18T13:59:16.64</time>
      </trkpt>
      <trkpt lat="50.04236" lon="2.252">
        <ele>113.4</ele>
        <time>2014-05-18T13:59:23.63</time>
      </trkpt>
      <trkpt lat="50.04233" lon="2.25211">
        <ele>113.5</ele>
        <time>2014-05-18T13:59:30.77</time>
      </trkpt>
      <trkpt lat="50.0423" lon="2.25222">
        <ele>113.5</ele>
        <time>2014-05-18T13:59:37.63</time>
      </trkpt>
      <trkpt lat="50.04227" lon="2.25232">
        <ele>113.5</ele>
        <time>2014-05-18T13:59:44.64</time>
      </trkpt>
      <trkpt lat="50.04222" lon="2.25242">
        <ele>113.4</ele>
        <time>2014-05-18T13:59:51.63</time>
      </trkpt>
      <trkpt lat="50.04218" lon="2.25251">
        <ele>113</ele>
        <time>2014-05-18T13:59:58.64</time>
      </trkpt>
      <trkpt lat="50.04215" lon="2.25259">
        <ele>112.7</ele>
        <time>2014-05-18T14:00:05.63</time>
      </trkpt>
      <trkpt lat="50.04211" lon="2.25268">
        <ele>112.5</ele>
        <time>2014-05-18T14:00:12.63</time>
      </trkpt>
      <trkpt lat="50.04208" lon="2.25274">
        <ele>111.8</ele>
        <time>2014-05-18T14:00:19.63</time>
      </trkpt>
      <trkpt lat="50.04208" lon="2.25277">
        <ele>111.2</ele>
        <time>2014-05-18T14:00:26.64</time>
      </trkpt>
      <trkpt lat="50.04204" lon="2.25282">
        <ele>110.9</ele>
        <time>2014-05-18T14:00:33.63</time>
      </trkpt>
      <trkpt lat="50.04201" lon="2.25289">
        <ele>110.3</ele>
        <time>2014-05-18T14:00:40.64</time>
      </trkpt>
      <trkpt lat="50.04202" lon="2.25291">
        <ele>110</ele>
        <time>2014-05-18T14:00:47.63</time>
      </trkpt>
      <trkpt lat="50.04195" lon="2.25307">
        <ele>109.2</ele>
        <time>2014-05-18T14:00:49.67</time>
      </trkpt>
      <trkpt lat="50.04191" lon="2.25316">
        <ele>109.2</ele>
        <time>2014-05-18T14:00:54.64</time>
      </trkpt>
      <trkpt lat="50.04186" lon="2.25324">
        <ele>109.1</ele>
        <time>2014-05-18T14:00:59.64</time>
      </trkpt>
      <trkpt lat="50.04182" lon="2.25334">
        <ele>109.1</ele>
        <time>2014-05-18T14:01:06.63</time>
      </trkpt>
      <trkpt lat="50.04175" lon="2.25339">
        <ele>109.1</ele>
        <time>2014-05-18T14:01:13.63</time>
      </trkpt>
      <trkpt lat="50.04168" lon="2.25347">
        <ele>109</ele>
        <time>2014-05-18T14:01:19.64</time>
      </trkpt>
      <trkpt lat="50.04162" lon="2.25353">
        <ele>109</ele>
        <time>2014-05-18T14:01:25.64</time>
      </trkpt>
      <trkpt lat="50.04156" lon="2.25359">
        <ele>108.8</ele>
        <time>2014-05-18T14:01:32.63</time>
      </trkpt>
      <trkpt lat="50.04151" lon="2.25368">
        <ele>108.5</ele>
        <time>2014-05-18T14:01:39.63</time>
      </trkpt>
      <trkpt lat="50.04144" lon="2.25376">
        <ele>108.3</ele>
        <time>2014-05-18T14:01:46.63</time>
      </trkpt>
      <trkpt lat="50.04137" lon="2.25382">
        <ele>107.8</ele>
        <time>2014-05-18T14:01:52.63</time>
      </trkpt>
      <trkpt lat="50.0413" lon="2.25389">
        <ele>107.4</ele>
        <time>2014-05-18T14:01:59.64</time>
      </trkpt>
      <trkpt lat="50.04124" lon="2.25395">
        <ele>107</ele>
        <time>2014-05-18T14:02:05.64</time>
      </trkpt>
      <trkpt lat="50.0412" lon="2.25404">
        <ele>106.3</ele>
        <time>2014-05-18T14:02:11.64</time>
      </trkpt>
      <trkpt lat="50.04114" lon="2.25411">
        <ele>105.7</ele>
        <time>2014-05-18T14:02:17.64</time>
      </trkpt>
      <trkpt lat="50.04107" lon="2.25417">
        <ele>105.3</ele>
        <time>2014-05-18T14:02:24.63</time>
      </trkpt>
      <trkpt lat="50.041" lon="2.25425">
        <ele>105.2</ele>
        <time>2014-05-18T14:02:30.63</time>
      </trkpt>
      <trkpt lat="50.04094" lon="2.25433">
        <ele>104.8</ele>
        <time>2014-05-18T14:02:36.63</time>
      </trkpt>
      <trkpt lat="50.04086" lon="2.25434">
        <ele>104.5</ele>
        <time>2014-05-18T14:02:42.63</time>
      </trkpt>
      <trkpt lat="50.04079" lon="2.2544">
        <ele>104.2</ele>
        <time>2014-05-18T14:02:48.63</time>
      </trkpt>
      <trkpt lat="50.04073" lon="2.25447">
        <ele>103.9</ele>
        <time>2014-05-18T14:02:55.63</time>
      </trkpt>
      <trkpt lat="50.04065" lon="2.25455">
        <ele>103.9</ele>
        <time>2014-05-18T14:03:01.64</time>
      </trkpt>
      <trkpt lat="50.04058" lon="2.25456">
        <ele>103.9</ele>
        <time>2014-05-18T14:03:08.63</time>
      </trkpt>
      <trkpt lat="50.0405" lon="2.25457">
        <ele>103.8</ele>
        <time>2014-05-18T14:03:13.63</time>
      </trkpt>
      <trkpt lat="50.04042" lon="2.2546">
        <ele>103.4</ele>
        <time>2014-05-18T14:03:20.63</time>
      </trkpt>
      <trkpt lat="50.04034" lon="2.25462">
        <ele>103.3</ele>
        <time>2014-05-18T14:03:26.63</time>
      </trkpt>
      <trkpt lat="50.04026" lon="2.25461">
        <ele>102.9</ele>
        <time>2014-05-18T14:03:31.63</time>
      </trkpt>
      <trkpt lat="50.04018" lon="2.25464">
        <ele>103.1</ele>
        <time>2014-05-18T14:03:36.63</time>
      </trkpt>
      <trkpt lat="50.0401" lon="2.25464">
        <ele>102.1</ele>
        <time>2014-05-18T14:03:42.63</time>
      </trkpt>
      <trkpt lat="50.04004" lon="2.2547">
        <ele>101.6</ele>
        <time>2014-05-18T14:03:47.64</time>
      </trkpt>
      <trkpt lat="50.03997" lon="2.25474">
        <ele>99.9</ele>
        <time>2014-05-18T14:03:54.63</time>
      </trkpt>
      <trkpt lat="50.03989" lon="2.25477">
        <ele>98.4</ele>
        <time>2014-05-18T14:04:01.63</time>
      </trkpt>
      <trkpt lat="50.03983" lon="2.25481">
        <ele>96.3</ele>
        <time>2014-05-18T14:04:08.63</time>
      </trkpt>
      <trkpt lat="50.03978" lon="2.25489">
        <ele>95.4</ele>
        <time>2014-05-18T14:04:14.63</time>
      </trkpt>
      <trkpt lat="50.03972" lon="2.25497">
        <ele>94.1</ele>
        <time>2014-05-18T14:04:20.63</time>
      </trkpt>
      <trkpt lat="50.03966" lon="2.25506">
        <ele>93.3</ele>
        <time>2014-05-18T14:04:27.64</time>
      </trkpt>
      <trkpt lat="50.03958" lon="2.25512">
        <ele>91.3</ele>
        <time>2014-05-18T14:04:34.63</time>
      </trkpt>
      <trkpt lat="50.03952" lon="2.25519">
        <ele>90.4</ele>
        <time>2014-05-18T14:04:39.63</time>
      </trkpt>
      <trkpt lat="50.03945" lon="2.25525">
        <ele>89.6</ele>
        <time>2014-05-18T14:04:44.63</time>
      </trkpt>
      <trkpt lat="50.03939" lon="2.25533">
        <ele>88.8</ele>
        <time>2014-05-18T14:04:49.63</time>
      </trkpt>
      <trkpt lat="50.03931" lon="2.25539">
        <ele>88.2</ele>
        <time>2014-05-18T14:04:56.63</time>
      </trkpt>
      <trkpt lat="50.03926" lon="2.25548">
        <ele>87.5</ele>
        <time>2014-05-18T14:05:02.63</time>
      </trkpt>
      <trkpt lat="50.0392" lon="2.25555">
        <ele>86.8</ele>
        <time>2014-05-18T14:05:08.69</time>
      </trkpt>
      <trkpt lat="50.03914" lon="2.25563">
        <ele>86.3</ele>
        <time>2014-05-18T14:05:15.64</time>
      </trkpt>
      <trkpt lat="50.03908" lon="2.2557">
        <ele>86.1</ele>
        <time>2014-05-18T14:05:21.63</time>
      </trkpt>
      <trkpt lat="50.03903" lon="2.25579">
        <ele>85.7</ele>
        <time>2014-05-18T14:05:28.63</time>
      </trkpt>
      <trkpt lat="50.03897" lon="2.25588">
        <ele>85.6</ele>
        <time>2014-05-18T14:05:35.64</time>
      </trkpt>
      <trkpt lat="50.03891" lon="2.25595">
        <ele>85.5</ele>
        <time>2014-05-18T14:05:39.64</time>
      </trkpt>
      <trkpt lat="50.03887" lon="2.25604">
        <ele>85</ele>
        <time>2014-05-18T14:05:45.63</time>
      </trkpt>
      <trkpt lat="50.0388" lon="2.25613">
        <ele>84.9</ele>
        <time>2014-05-18T14:05:52.63</time>
      </trkpt>
      <trkpt lat="50.03876" lon="2.25622">
        <ele>84.5</ele>
        <time>2014-05-18T14:05:59.64</time>
      </trkpt>
      <trkpt lat="50.0387" lon="2.25631">
        <ele>84.1</ele>
        <time>2014-05-18T14:06:04.63</time>
      </trkpt>
      <trkpt lat="50.03865" lon="2.25641">
        <ele>83.1</ele>
        <time>2014-05-18T14:06:11.64</time>
      </trkpt>
      <trkpt lat="50.03859" lon="2.25649">
        <ele>82.6</ele>
        <time>2014-05-18T14:06:18.63</time>
      </trkpt>
      <trkpt lat="50.03854" lon="2.25658">
        <ele>82.1</ele>
        <time>2014-05-18T14:06:25.64</time>
      </trkpt>
      <trkpt lat="50.03848" lon="2.25668">
        <ele>81.8</ele>
        <time>2014-05-18T14:06:32.63</time>
      </trkpt>
      <trkpt lat="50.03843" lon="2.25678">
        <ele>81.7</ele>
        <time>2014-05-18T14:06:38.63</time>
      </trkpt>
      <trkpt lat="50.0384" lon="2.25688">
        <ele>81.6</ele>
        <time>2014-05-18T14:06:43.64</time>
      </trkpt>
      <trkpt lat="50.03841" lon="2.25697">
        <ele>81.4</ele>
        <time>2014-05-18T14:06:50.63</time>
      </trkpt>
      <trkpt lat="50.03845" lon="2.2571">
        <ele>81.3</ele>
        <time>2014-05-18T14:06:56.63</time>
      </trkpt>
      <trkpt lat="50.03846" lon="2.25721">
        <ele>80.6</ele>
        <time>2014-05-18T14:07:02.63</time>
      </trkpt>
      <trkpt lat="50.03844" lon="2.25728">
        <ele>80.1</ele>
        <time>2014-05-18T14:07:09.63</time>
      </trkpt>
      <trkpt lat="50.03838" lon="2.25737">
        <ele>79.8</ele>
        <time>2014-05-18T14:07:15.63</time>
      </trkpt>
      <trkpt lat="50.03834" lon="2.25749">
        <ele>79.5</ele>
        <time>2014-05-18T14:07:22.63</time>
      </trkpt>
      <trkpt lat="50.03831" lon="2.25759">
        <ele>79.1</ele>
        <time>2014-05-18T14:07:28.62</time>
      </trkpt>
      <trkpt lat="50.03828" lon="2.2577">
        <ele>78.7</ele>
        <time>2014-05-18T14:07:34.63</time>
      </trkpt>
      <trkpt lat="50.03823" lon="2.25778">
        <ele>78.5</ele>
        <time>2014-05-18T14:07:41.62</time>
      </trkpt>
      <trkpt lat="50.0382" lon="2.25782">
        <ele>78.4</ele>
        <time>2014-05-18T14:07:48.62</time>
      </trkpt>
      <trkpt lat="50.03812" lon="2.25784">
        <ele>77.8</ele>
        <time>2014-05-18T14:07:55.62</time>
      </trkpt>
      <trkpt lat="50.03805" lon="2.2579">
        <ele>77.2</ele>
        <time>2014-05-18T14:08:00.63</time>
      </trkpt>
      <trkpt lat="50.03797" lon="2.25798">
        <ele>76.3</ele>
        <time>2014-05-18T14:08:04.62</time>
      </trkpt>
      <trkpt lat="50.03789" lon="2.25801">
        <ele>75.4</ele>
        <time>2014-05-18T14:08:08.62</time>
      </trkpt>
      <trkpt lat="50.03781" lon="2.25806">
        <ele>73.6</ele>
        <time>2014-05-18T14:08:13.62</time>
      </trkpt>
      <trkpt lat="50.03774" lon="2.25812">
        <ele>72.7</ele>
        <time>2014-05-18T14:08:16.62</time>
      </trkpt>
      <trkpt lat="50.03767" lon="2.25816">
        <ele>72.1</ele>
        <time>2014-05-18T14:08:21.62</time>
      </trkpt>
      <trkpt lat="50.0376" lon="2.25819">
        <ele>71.1</ele>
        <time>2014-05-18T14:08:28.62</time>
      </trkpt>
      <trkpt lat="50.03753" lon="2.25823">
        <ele>70</ele>
        <time>2014-05-18T14:08:34.62</time>
      </trkpt>
      <trkpt lat="50.03749" lon="2.25822">
        <ele>68.7</ele>
        <time>2014-05-18T14:08:41.63</time>
      </trkpt>
      <trkpt lat="50.03741" lon="2.2583">
        <ele>68.8</ele>
        <time>2014-05-18T14:08:47.63</time>
      </trkpt>
      <trkpt lat="50.03736" lon="2.25837">
        <ele>69.4</ele>
        <time>2014-05-18T14:08:54.62</time>
      </trkpt>
      <trkpt lat="50.0373" lon="2.25845">
        <ele>69.4</ele>
        <time>2014-05-18T14:09:00.62</time>
      </trkpt>
      <trkpt lat="50.03725" lon="2.25854">
        <ele>69.6</ele>
        <time>2014-05-18T14:09:06.62</time>
      </trkpt>
      <trkpt lat="50.03719" lon="2.25861">
        <ele>69.3</ele>
        <time>2014-05-18T14:09:12.62</time>
      </trkpt>
      <trkpt lat="50.03712" lon="2.25866">
        <ele>68.9</ele>
        <time>2014-05-18T14:09:17.62</time>
      </trkpt>
      <trkpt lat="50.03705" lon="2.2587">
        <ele>68.2</ele>
        <time>2014-05-18T14:09:21.62</time>
      </trkpt>
      <trkpt lat="50.03698" lon="2.25872">
        <ele>67.6</ele>
        <time>2014-05-18T14:09:26.62</time>
      </trkpt>
      <trkpt lat="50.03692" lon="2.25874">
        <ele>65.7</ele>
        <time>2014-05-18T14:09:33.62</time>
      </trkpt>
      <trkpt lat="50.03684" lon="2.25871">
        <ele>65.2</ele>
        <time>2014-05-18T14:09:39.62</time>
      </trkpt>
      <trkpt lat="50.03677" lon="2.25869">
        <ele>64.2</ele>
        <time>2014-05-18T14:09:46.62</time>
      </trkpt>
      <trkpt lat="50.03671" lon="2.25864">
        <ele>64.2</ele>
        <time>2014-05-18T14:09:53.63</time>
      </trkpt>
      <trkpt lat="50.03663" lon="2.25862">
        <ele>64.2</ele>
        <time>2014-05-18T14:09:59.62</time>
      </trkpt>
      <trkpt lat="50.03655" lon="2.25863">
        <ele>64.3</ele>
        <time>2014-05-18T14:10:04.62</time>
      </trkpt>
      <trkpt lat="50.03648" lon="2.25858">
        <ele>64.7</ele>
        <time>2014-05-18T14:10:10.63</time>
      </trkpt>
      <trkpt lat="50.0364" lon="2.25853">
        <ele>65</ele>
        <time>2014-05-18T14:10:16.62</time>
      </trkpt>
      <trkpt lat="50.03633" lon="2.25857">
        <ele>64.9</ele>
        <time>2014-05-18T14:10:21.62</time>
      </trkpt>
      <trkpt lat="50.03626" lon="2.25862">
        <ele>64.2</ele>
        <time>2014-05-18T14:10:28.62</time>
      </trkpt>
      <trkpt lat="50.03618" lon="2.25864">
        <ele>63.9</ele>
        <time>2014-05-18T14:10:34.62</time>
      </trkpt>
      <trkpt lat="50.03611" lon="2.25865">
        <ele>63.9</ele>
        <time>2014-05-18T14:10:40.63</time>
      </trkpt>
      <trkpt lat="50.03603" lon="2.2587">
        <ele>63.7</ele>
        <time>2014-05-18T14:10:47.62</time>
      </trkpt>
      <trkpt lat="50.03595" lon="2.25872">
        <ele>63.2</ele>
        <time>2014-05-18T14:10:52.62</time>
      </trkpt>
      <trkpt lat="50.03591" lon="2.25879">
        <ele>63.1</ele>
        <time>2014-05-18T14:10:59.62</time>
      </trkpt>
      <trkpt lat="50.03589" lon="2.25881">
        <ele>62.9</ele>
        <time>2014-05-18T14:11:06.62</time>
      </trkpt>
      <trkpt lat="50.03591" lon="2.25878">
        <ele>59.6</ele>
        <time>2014-05-18T14:11:12.65</time>
      </trkpt>
      <trkpt lat="50.03591" lon="2.25879">
        <ele>59.4</ele>
        <time>2014-05-18T14:11:19.64</time>
      </trkpt>
      <trkpt lat="50.03586" lon="2.25881">
        <ele>58.4</ele>
        <time>2014-05-18T14:11:20.65</time>
      </trkpt>
      <trkpt lat="50.03588" lon="2.25876">
        <ele>58</ele>
        <time>2014-05-18T14:11:26.65</time>
      </trkpt>
      <trkpt lat="50.03589" lon="2.25876">
        <ele>55.8</ele>
        <time>2014-05-18T14:11:32.65</time>
      </trkpt>
      <trkpt lat="50.03582" lon="2.25885">
        <ele>54.9</ele>
        <time>2014-05-18T14:11:36.65</time>
      </trkpt>
      <trkpt lat="50.03567" lon="2.25889">
        <ele>55.1</ele>
        <time>2014-05-18T14:11:43.66</time>
      </trkpt>
      <trkpt lat="50.03559" lon="2.25892">
        <ele>54.7</ele>
        <time>2014-05-18T14:11:49.64</time>
      </trkpt>
      <trkpt lat="50.03553" lon="2.25895">
        <ele>54.6</ele>
        <time>2014-05-18T14:11:56.64</time>
      </trkpt>
      <trkpt lat="50.03553" lon="2.25894">
        <ele>54.7</ele>
        <time>2014-05-18T14:12:03.64</time>
      </trkpt>
      <trkpt lat="50.03559" lon="2.2589">
        <ele>54.5</ele>
        <time>2014-05-18T14:12:10.64</time>
      </trkpt>
      <trkpt lat="50.03567" lon="2.2589">
        <ele>54.3</ele>
        <time>2014-05-18T14:12:17.64</time>
      </trkpt>
      <trkpt lat="50.03572" lon="2.25893">
        <ele>54.2</ele>
        <time>2014-05-18T14:12:24.64</time>
      </trkpt>
      <trkpt lat="50.03574" lon="2.25897">
        <ele>54</ele>
        <time>2014-05-18T14:12:31.64</time>
      </trkpt>
      <trkpt lat="50.03576" lon="2.25904">
        <ele>53.9</ele>
        <time>2014-05-18T14:12:38.64</time>
      </trkpt>
      <trkpt lat="50.0358" lon="2.25914">
        <ele>53.9</ele>
        <time>2014-05-18T14:12:44.64</time>
      </trkpt>
      <trkpt lat="50.03582" lon="2.25926">
        <ele>53.9</ele>
        <time>2014-05-18T14:12:48.67</time>
      </trkpt>
      <trkpt lat="50.03585" lon="2.25937">
        <ele>54.1</ele>
        <time>2014-05-18T14:12:53.64</time>
      </trkpt>
      <trkpt lat="50.03591" lon="2.25949">
        <ele>54.1</ele>
        <time>2014-05-18T14:12:57.64</time>
      </trkpt>
      <trkpt lat="50.03595" lon="2.25954">
        <ele>54</ele>
        <time>2014-05-18T14:13:04.64</time>
      </trkpt>
      <trkpt lat="50.03603" lon="2.25958">
        <ele>53.8</ele>
        <time>2014-05-18T14:13:09.64</time>
      </trkpt>
      <trkpt lat="50.03608" lon="2.25964">
        <ele>53.4</ele>
        <time>2014-05-18T14:13:16.64</time>
      </trkpt>
      <trkpt lat="50.03609" lon="2.25973">
        <ele>53</ele>
        <time>2014-05-18T14:13:23.64</time>
      </trkpt>
      <trkpt lat="50.03609" lon="2.25982">
        <ele>52.7</ele>
        <time>2014-05-18T14:13:30.64</time>
      </trkpt>
      <trkpt lat="50.03614" lon="2.2599">
        <ele>52.3</ele>
        <time>2014-05-18T14:13:37.66</time>
      </trkpt>
      <trkpt lat="50.03615" lon="2.26003">
        <ele>52.3</ele>
        <time>2014-05-18T14:13:43.64</time>
      </trkpt>
      <trkpt lat="50.03618" lon="2.26012">
        <ele>52.3</ele>
        <time>2014-05-18T14:13:50.64</time>
      </trkpt>
      <trkpt lat="50.03621" lon="2.2602">
        <ele>52.2</ele>
        <time>2014-05-18T14:13:57.64</time>
      </trkpt>
      <trkpt lat="50.03624" lon="2.26029">
        <ele>52.2</ele>
        <time>2014-05-18T14:14:04.64</time>
      </trkpt>
      <trkpt lat="50.03623" lon="2.26041">
        <ele>52.4</ele>
        <time>2014-05-18T14:14:11.64</time>
      </trkpt>
      <trkpt lat="50.03629" lon="2.2605">
        <ele>52.6</ele>
        <time>2014-05-18T14:14:16.64</time>
      </trkpt>
      <trkpt lat="50.03631" lon="2.2606">
        <ele>52.6</ele>
        <time>2014-05-18T14:14:23.64</time>
      </trkpt>
      <trkpt lat="50.03628" lon="2.26068">
        <ele>52.6</ele>
        <time>2014-05-18T14:14:30.64</time>
      </trkpt>
      <trkpt lat="50.03627" lon="2.26074">
        <ele>53</ele>
        <time>2014-05-18T14:14:37.64</time>
      </trkpt>
      <trkpt lat="50.03626" lon="2.26087">
        <ele>53.2</ele>
        <time>2014-05-18T14:14:41.64</time>
      </trkpt>
      <trkpt lat="50.0363" lon="2.26097">
        <ele>54.3</ele>
        <time>2014-05-18T14:14:46.64</time>
      </trkpt>
      <trkpt lat="50.03631" lon="2.26109">
        <ele>54.8</ele>
        <time>2014-05-18T14:14:53.64</time>
      </trkpt>
      <trkpt lat="50.03628" lon="2.26116">
        <ele>55.7</ele>
        <time>2014-05-18T14:15:00.64</time>
      </trkpt>
      <trkpt lat="50.03626" lon="2.26129">
        <ele>56</ele>
        <time>2014-05-18T14:15:07.64</time>
      </trkpt>
      <trkpt lat="50.03625" lon="2.2614">
        <ele>56.2</ele>
        <time>2014-05-18T14:15:13.64</time>
      </trkpt>
      <trkpt lat="50.03621" lon="2.26152">
        <ele>56.3</ele>
        <time>2014-05-18T14:15:20.64</time>
      </trkpt>
      <trkpt lat="50.0362" lon="2.26165">
        <ele>56.6</ele>
        <time>2014-05-18T14:15:26.64</time>
      </trkpt>
      <trkpt lat="50.03618" lon="2.26177">
        <ele>56.9</ele>
        <time>2014-05-18T14:15:32.64</time>
      </trkpt>
      <trkpt lat="50.03615" lon="2.26187">
        <ele>57.2</ele>
        <time>2014-05-18T14:15:38.64</time>
      </trkpt>
      <trkpt lat="50.03615" lon="2.26198">
        <ele>57.5</ele>
        <time>2014-05-18T14:15:45.64</time>
      </trkpt>
      <trkpt lat="50.03612" lon="2.26205">
        <ele>57.6</ele>
        <time>2014-05-18T14:15:52.64</time>
      </trkpt>
      <trkpt lat="50.03608" lon="2.26214">
        <ele>57.7</ele>
        <time>2014-05-18T14:15:59.64</time>
      </trkpt>
      <trkpt lat="50.03605" lon="2.26224">
        <ele>57.9</ele>
        <time>2014-05-18T14:16:06.64</time>
      </trkpt>
      <trkpt lat="50.03601" lon="2.26234">
        <ele>58</ele>
        <time>2014-05-18T14:16:13.64</time>
      </trkpt>
      <trkpt lat="50.03601" lon="2.26243">
        <ele>57.8</ele>
        <time>2014-05-18T14:16:20.64</time>
      </trkpt>
      <trkpt lat="50.03594" lon="2.26249">
        <ele>57.7</ele>
        <time>2014-05-18T14:16:25.64</time>
      </trkpt>
      <trkpt lat="50.03589" lon="2.26257">
        <ele>57.5</ele>
        <time>2014-05-18T14:16:31.64</time>
      </trkpt>
      <trkpt lat="50.03589" lon="2.26268">
        <ele>57.3</ele>
        <time>2014-05-18T14:16:37.64</time>
      </trkpt>
      <trkpt lat="50.03586" lon="2.26281">
        <ele>56.9</ele>
        <time>2014-05-18T14:16:44.64</time>
      </trkpt>
      <trkpt lat="50.03584" lon="2.26293">
        <ele>56.7</ele>
        <time>2014-05-18T14:16:51.64</time>
      </trkpt>
      <trkpt lat="50.03582" lon="2.26305">
        <ele>56.7</ele>
        <time>2014-05-18T14:16:58.64</time>
      </trkpt>
      <trkpt lat="50.03579" lon="2.26314">
        <ele>57.1</ele>
        <time>2014-05-18T14:17:05.64</time>
      </trkpt>
      <trkpt lat="50.03574" lon="2.26322">
        <ele>58</ele>
        <time>2014-05-18T14:17:11.64</time>
      </trkpt>
      <trkpt lat="50.03571" lon="2.26331">
        <ele>58.4</ele>
        <time>2014-05-18T14:17:18.64</time>
      </trkpt>
      <trkpt lat="50.03566" lon="2.26341">
        <ele>59.2</ele>
        <time>2014-05-18T14:17:24.64</time>
      </trkpt>
      <trkpt lat="50.03562" lon="2.26351">
        <ele>59.9</ele>
        <time>2014-05-18T14:17:29.64</time>
      </trkpt>
      <trkpt lat="50.03558" lon="2.26363">
        <ele>60.5</ele>
        <time>2014-05-18T14:17:34.64</time>
      </trkpt>
      <trkpt lat="50.03559" lon="2.26368">
        <ele>60.7</ele>
        <time>2014-05-18T14:17:41.64</time>
      </trkpt>
      <trkpt lat="50.03557" lon="2.26375">
        <ele>60.9</ele>
        <time>2014-05-18T14:17:48.64</time>
      </trkpt>
      <trkpt lat="50.03551" lon="2.26384">
        <ele>61.2</ele>
        <time>2014-05-18T14:17:54.64</time>
      </trkpt>
      <trkpt lat="50.0355" lon="2.26397">
        <ele>61.6</ele>
        <time>2014-05-18T14:18:00.64</time>
      </trkpt>
      <trkpt lat="50.03551" lon="2.26407">
        <ele>61.7</ele>
        <time>2014-05-18T14:18:07.64</time>
      </trkpt>
      <trkpt lat="50.03554" lon="2.26419">
        <ele>62.2</ele>
        <time>2014-05-18T14:18:13.64</time>
      </trkpt>
      <trkpt lat="50.03553" lon="2.2643">
        <ele>62.5</ele>
        <time>2014-05-18T14:18:18.64</time>
      </trkpt>
      <trkpt lat="50.0355" lon="2.2644">
        <ele>62.6</ele>
        <time>2014-05-18T14:18:23.64</time>
      </trkpt>
      <trkpt lat="50.03551" lon="2.26453">
        <ele>63.6</ele>
        <time>2014-05-18T14:18:30.64</time>
      </trkpt>
      <trkpt lat="50.03553" lon="2.26463">
        <ele>63.8</ele>
        <time>2014-05-18T14:18:35.64</time>
      </trkpt>
      <trkpt lat="50.03555" lon="2.26474">
        <ele>64.5</ele>
        <time>2014-05-18T14:18:42.64</time>
      </trkpt>
      <trkpt lat="50.03557" lon="2.26483">
        <ele>65.2</ele>
        <time>2014-05-18T14:18:49.64</time>
      </trkpt>
      <trkpt lat="50.03557" lon="2.26495">
        <ele>65.6</ele>
        <time>2014-05-18T14:18:56.64</time>
      </trkpt>
      <trkpt lat="50.03561" lon="2.26504">
        <ele>65.7</ele>
        <time>2014-05-18T14:19:01.64</time>
      </trkpt>
      <trkpt lat="50.03564" lon="2.26517">
        <ele>65.9</ele>
        <time>2014-05-18T14:19:08.64</time>
      </trkpt>
      <trkpt lat="50.03566" lon="2.26528">
        <ele>66.1</ele>
        <time>2014-05-18T14:19:14.64</time>
      </trkpt>
      <trkpt lat="50.03569" lon="2.2654">
        <ele>66.1</ele>
        <time>2014-05-18T14:19:20.64</time>
      </trkpt>
      <trkpt lat="50.03572" lon="2.26546">
        <ele>66.1</ele>
        <time>2014-05-18T14:19:27.64</time>
      </trkpt>
      <trkpt lat="50.03576" lon="2.26555">
        <ele>66.2</ele>
        <time>2014-05-18T14:19:34.64</time>
      </trkpt>
      <trkpt lat="50.03581" lon="2.26565">
        <ele>66.4</ele>
        <time>2014-05-18T14:19:40.64</time>
      </trkpt>
      <trkpt lat="50.03586" lon="2.26575">
        <ele>66.5</ele>
        <time>2014-05-18T14:19:47.64</time>
      </trkpt>
      <trkpt lat="50.03591" lon="2.26584">
        <ele>66.2</ele>
        <time>2014-05-18T14:19:54.64</time>
      </trkpt>
      <trkpt lat="50.03594" lon="2.26594">
        <ele>66.3</ele>
        <time>2014-05-18T14:20:01.66</time>
      </trkpt>
      <trkpt lat="50.03599" lon="2.26603">
        <ele>65.6</ele>
        <time>2014-05-18T14:20:08.64</time>
      </trkpt>
      <trkpt lat="50.03603" lon="2.26613">
        <ele>64.9</ele>
        <time>2014-05-18T14:20:14.64</time>
      </trkpt>
      <trkpt lat="50.03607" lon="2.26619">
        <ele>64.4</ele>
        <time>2014-05-18T14:20:21.64</time>
      </trkpt>
      <trkpt lat="50.03612" lon="2.26629">
        <ele>64.2</ele>
        <time>2014-05-18T14:20:27.64</time>
      </trkpt>
      <trkpt lat="50.03618" lon="2.26636">
        <ele>63.4</ele>
        <time>2014-05-18T14:20:33.64</time>
      </trkpt>
      <trkpt lat="50.03616" lon="2.26645">
        <ele>63.2</ele>
        <time>2014-05-18T14:20:40.64</time>
      </trkpt>
      <trkpt lat="50.03622" lon="2.26651">
        <ele>65.2</ele>
        <time>2014-05-18T14:20:44.66</time>
      </trkpt>
      <trkpt lat="50.03622" lon="2.26657">
        <ele>65.1</ele>
        <time>2014-05-18T14:20:51.66</time>
      </trkpt>
      <trkpt lat="50.03623" lon="2.26656">
        <ele>64.1</ele>
        <time>2014-05-18T14:20:54.65</time>
      </trkpt>
      <trkpt lat="50.03621" lon="2.26656">
        <ele>64</ele>
        <time>2014-05-18T14:21:01.64</time>
      </trkpt>
      <trkpt lat="50.03624" lon="2.26659">
        <ele>62.8</ele>
        <time>2014-05-18T14:21:08.64</time>
      </trkpt>
      <trkpt lat="50.03626" lon="2.26666">
        <ele>61.9</ele>
        <time>2014-05-18T14:21:15.64</time>
      </trkpt>
      <trkpt lat="50.03626" lon="2.26678">
        <ele>62.3</ele>
        <time>2014-05-18T14:21:21.64</time>
      </trkpt>
      <trkpt lat="50.0363" lon="2.26687">
        <ele>62.3</ele>
        <time>2014-05-18T14:21:28.64</time>
      </trkpt>
      <trkpt lat="50.03632" lon="2.26694">
        <ele>62.2</ele>
        <time>2014-05-18T14:21:35.64</time>
      </trkpt>
      <trkpt lat="50.03639" lon="2.267">
        <ele>61.8</ele>
        <time>2014-05-18T14:21:41.64</time>
      </trkpt>
      <trkpt lat="50.03641" lon="2.26711">
        <ele>61.3</ele>
        <time>2014-05-18T14:21:47.64</time>
      </trkpt>
      <trkpt lat="50.03644" lon="2.26723">
        <ele>61.4</ele>
        <time>2014-05-18T14:21:54.64</time>
      </trkpt>
      <trkpt lat="50.03647" lon="2.26734">
        <ele>61.2</ele>
        <time>2014-05-18T14:22:01.70</time>
      </trkpt>
      <trkpt lat="50.03648" lon="2.26747">
        <ele>60.5</ele>
        <time>2014-05-18T14:22:07.64</time>
      </trkpt>
      <trkpt lat="50.03652" lon="2.26758">
        <ele>60.2</ele>
        <time>2014-05-18T14:22:11.64</time>
      </trkpt>
      <trkpt lat="50.03655" lon="2.2677">
        <ele>60.4</ele>
        <time>2014-05-18T14:22:18.64</time>
      </trkpt>
      <trkpt lat="50.03658" lon="2.2678">
        <ele>60.4</ele>
        <time>2014-05-18T14:22:24.64</time>
      </trkpt>
      <trkpt lat="50.0366" lon="2.26794">
        <ele>60</ele>
        <time>2014-05-18T14:22:31.64</time>
      </trkpt>
      <trkpt lat="50.03663" lon="2.26806">
        <ele>59.9</ele>
        <time>2014-05-18T14:22:38.64</time>
      </trkpt>
      <trkpt lat="50.03664" lon="2.26817">
        <ele>58.6</ele>
        <time>2014-05-18T14:22:45.64</time>
      </trkpt>
      <trkpt lat="50.03669" lon="2.26826">
        <ele>58.4</ele>
        <time>2014-05-18T14:22:52.68</time>
      </trkpt>
      <trkpt lat="50.03675" lon="2.26833">
        <ele>58.4</ele>
        <time>2014-05-18T14:22:59.64</time>
      </trkpt>
      <trkpt lat="50.03678" lon="2.26843">
        <ele>58.7</ele>
        <time>2014-05-18T14:23:05.64</time>
      </trkpt>
      <trkpt lat="50.03683" lon="2.26852">
        <ele>58.8</ele>
        <time>2014-05-18T14:23:10.64</time>
      </trkpt>
      <trkpt lat="50.03687" lon="2.26862">
        <ele>58.6</ele>
        <time>2014-05-18T14:23:17.64</time>
      </trkpt>
      <trkpt lat="50.03689" lon="2.26873">
        <ele>58.6</ele>
        <time>2014-05-18T14:23:24.64</time>
      </trkpt>
      <trkpt lat="50.03692" lon="2.26883">
        <ele>58.7</ele>
        <time>2014-05-18T14:23:31.64</time>
      </trkpt>
      <trkpt lat="50.03695" lon="2.26895">
        <ele>58.8</ele>
        <time>2014-05-18T14:23:37.64</time>
      </trkpt>
      <trkpt lat="50.03698" lon="2.26905">
        <ele>58.7</ele>
        <time>2014-05-18T14:23:42.64</time>
      </trkpt>
      <trkpt lat="50.03701" lon="2.26915">
        <ele>59.3</ele>
        <time>2014-05-18T14:23:49.64</time>
      </trkpt>
      <trkpt lat="50.03701" lon="2.26924">
        <ele>59</ele>
        <time>2014-05-18T14:23:56.64</time>
      </trkpt>
      <trkpt lat="50.03706" lon="2.26936">
        <ele>58.6</ele>
        <time>2014-05-18T14:24:02.68</time>
      </trkpt>
      <trkpt lat="50.03706" lon="2.26948">
        <ele>58.8</ele>
        <time>2014-05-18T14:24:09.64</time>
      </trkpt>
      <trkpt lat="50.03709" lon="2.2696">
        <ele>59</ele>
        <time>2014-05-18T14:24:16.62</time>
      </trkpt>
      <trkpt lat="50.0371" lon="2.26967">
        <ele>58.9</ele>
        <time>2014-05-18T14:24:23.64</time>
      </trkpt>
      <trkpt lat="50.03716" lon="2.26967">
        <ele>58.7</ele>
        <time>2014-05-18T14:24:30.64</time>
      </trkpt>
      <trkpt lat="50.03724" lon="2.26966">
        <ele>58.3</ele>
        <time>2014-05-18T14:24:37.64</time>
      </trkpt>
      <trkpt lat="50.03727" lon="2.26964">
        <ele>58.3</ele>
        <time>2014-05-18T14:24:44.64</time>
      </trkpt>
      <trkpt lat="50.03735" lon="2.26962">
        <ele>58.6</ele>
        <time>2014-05-18T14:24:51.64</time>
      </trkpt>
      <trkpt lat="50.03739" lon="2.26965">
        <ele>58.5</ele>
        <time>2014-05-18T14:24:58.62</time>
      </trkpt>
      <trkpt lat="50.03745" lon="2.26973">
        <ele>58.6</ele>
        <time>2014-05-18T14:25:04.64</time>
      </trkpt>
      <trkpt lat="50.03749" lon="2.26974">
        <ele>58.6</ele>
        <time>2014-05-18T14:25:11.62</time>
      </trkpt>
      <trkpt lat="50.03747" lon="2.2697">
        <ele>58.3</ele>
        <time>2014-05-18T14:25:13.65</time>
      </trkpt>
      <trkpt lat="50.03751" lon="2.2697">
        <ele>58.9</ele>
        <time>2014-05-18T14:25:20.62</time>
      </trkpt>
      <trkpt lat="50.03752" lon="2.26967">
        <ele>59.4</ele>
        <time>2014-05-18T14:25:26.66</time>
      </trkpt>
      <trkpt lat="50.03747" lon="2.26969">
        <ele>59.9</ele>
        <time>2014-05-18T14:25:33.64</time>
      </trkpt>
      <trkpt lat="50.03739" lon="2.2697">
        <ele>58.8</ele>
        <time>2014-05-18T14:25:39.64</time>
      </trkpt>
      <trkpt lat="50.03731" lon="2.26971">
        <ele>58.4</ele>
        <time>2014-05-18T14:25:44.64</time>
      </trkpt>
      <trkpt lat="50.03723" lon="2.26971">
        <ele>58.6</ele>
        <time>2014-05-18T14:25:51.64</time>
      </trkpt>
      <trkpt lat="50.03719" lon="2.26971">
        <ele>58.7</ele>
        <time>2014-05-18T14:25:58.64</time>
      </trkpt>
      <trkpt lat="50.03715" lon="2.26972">
        <ele>59.1</ele>
        <time>2014-05-18T14:26:05.62</time>
      </trkpt>
      <trkpt lat="50.03715" lon="2.26971">
        <ele>59</ele>
        <time>2014-05-18T14:26:12.62</time>
      </trkpt>
      <trkpt lat="50.03718" lon="2.26973">
        <ele>59</ele>
        <time>2014-05-18T14:26:19.64</time>
      </trkpt>
      <trkpt lat="50.0372" lon="2.26979">
        <ele>58.8</ele>
        <time>2014-05-18T14:26:26.62</time>
      </trkpt>
      <trkpt lat="50.03717" lon="2.26984">
        <ele>59</ele>
        <time>2014-05-18T14:26:33.64</time>
      </trkpt>
      <trkpt lat="50.03714" lon="2.26994">
        <ele>59.4</ele>
        <time>2014-05-18T14:26:40.62</time>
      </trkpt>
      <trkpt lat="50.03714" lon="2.27004">
        <ele>59.7</ele>
        <time>2014-05-18T14:26:47.64</time>
      </trkpt>
      <trkpt lat="50.03717" lon="2.27012">
        <ele>60</ele>
        <time>2014-05-18T14:26:54.62</time>
      </trkpt>
      <trkpt lat="50.03719" lon="2.2702">
        <ele>60.3</ele>
        <time>2014-05-18T14:27:01.64</time>
      </trkpt>
      <trkpt lat="50.03723" lon="2.27027">
        <ele>60.5</ele>
        <time>2014-05-18T14:27:08.62</time>
      </trkpt>
      <trkpt lat="50.03727" lon="2.27035">
        <ele>60.8</ele>
        <time>2014-05-18T14:27:15.62</time>
      </trkpt>
      <trkpt lat="50.03729" lon="2.27043">
        <ele>60.8</ele>
        <time>2014-05-18T14:27:22.64</time>
      </trkpt>
      <trkpt lat="50.0373" lon="2.27051">
        <ele>60.9</ele>
        <time>2014-05-18T14:27:29.64</time>
      </trkpt>
      <trkpt lat="50.03733" lon="2.27058">
        <ele>61.2</ele>
        <time>2014-05-18T14:27:36.64</time>
      </trkpt>
      <trkpt lat="50.03733" lon="2.2706">
        <ele>61.3</ele>
        <time>2014-05-18T14:27:43.64</time>
      </trkpt>
      <trkpt lat="50.03731" lon="2.27075">
        <ele>61.5</ele>
        <time>2014-05-18T14:27:44.65</time>
      </trkpt>
      <trkpt lat="50.03732" lon="2.27072">
        <ele>61.9</ele>
        <time>2014-05-18T14:27:51.62</time>
      </trkpt>
      <trkpt lat="50.0374" lon="2.27072">
        <ele>62.5</ele>
        <time>2014-05-18T14:27:57.62</time>
      </trkpt>
      <trkpt lat="50.03741" lon="2.27071">
        <ele>61.8</ele>
        <time>2014-05-18T14:28:04.62</time>
      </trkpt>
      <trkpt lat="50.03741" lon="2.2708">
        <ele>61.8</ele>
        <time>2014-05-18T14:28:11.62</time>
      </trkpt>
      <trkpt lat="50.03737" lon="2.27086">
        <ele>61.4</ele>
        <time>2014-05-18T14:28:18.62</time>
      </trkpt>
      <trkpt lat="50.03731" lon="2.2709">
        <ele>60.6</ele>
        <time>2014-05-18T14:28:25.62</time>
      </trkpt>
      <trkpt lat="50.03726" lon="2.27092">
        <ele>59.7</ele>
        <time>2014-05-18T14:28:32.62</time>
      </trkpt>
      <trkpt lat="50.03717" lon="2.27093">
        <ele>60.5</ele>
        <time>2014-05-18T14:28:37.62</time>
      </trkpt>
      <trkpt lat="50.0371" lon="2.27099">
        <ele>60.9</ele>
        <time>2014-05-18T14:28:44.64</time>
      </trkpt>
      <trkpt lat="50.03706" lon="2.27101">
        <ele>60.8</ele>
        <time>2014-05-18T14:28:51.62</time>
      </trkpt>
      <trkpt lat="50.03699" lon="2.27104">
        <ele>60.6</ele>
        <time>2014-05-18T14:28:58.62</time>
      </trkpt>
      <trkpt lat="50.03691" lon="2.27103">
        <ele>59.8</ele>
        <time>2014-05-18T14:29:05.62</time>
      </trkpt>
      <trkpt lat="50.03686" lon="2.271">
        <ele>59.2</ele>
        <time>2014-05-18T14:29:12.62</time>
      </trkpt>
      <trkpt lat="50.03679" lon="2.27101">
        <ele>59.2</ele>
        <time>2014-05-18T14:29:19.62</time>
      </trkpt>
      <trkpt lat="50.03672" lon="2.27106">
        <ele>59.2</ele>
        <time>2014-05-18T14:29:25.62</time>
      </trkpt>
      <trkpt lat="50.03665" lon="2.27107">
        <ele>59</ele>
        <time>2014-05-18T14:29:32.64</time>
      </trkpt>
      <trkpt lat="50.0366" lon="2.27105">
        <ele>58.8</ele>
        <time>2014-05-18T14:29:39.62</time>
      </trkpt>
      <trkpt lat="50.03653" lon="2.27105">
        <ele>58.9</ele>
        <time>2014-05-18T14:29:46.62</time>
      </trkpt>
      <trkpt lat="50.03646" lon="2.27111">
        <ele>58.7</ele>
        <time>2014-05-18T14:29:53.62</time>
      </trkpt>
      <trkpt lat="50.03639" lon="2.27118">
        <ele>58.9</ele>
        <time>2014-05-18T14:29:58.62</time>
      </trkpt>
      <trkpt lat="50.03631" lon="2.27121">
        <ele>59.2</ele>
        <time>2014-05-18T14:30:03.62</time>
      </trkpt>
      <trkpt lat="50.03625" lon="2.27127">
        <ele>59.1</ele>
        <time>2014-05-18T14:30:08.62</time>
      </trkpt>
      <trkpt lat="50.0362" lon="2.27135">
        <ele>59.1</ele>
        <time>2014-05-18T14:30:15.62</time>
      </trkpt>
      <trkpt lat="50.03612" lon="2.2714">
        <ele>59.9</ele>
        <time>2014-05-18T14:30:20.62</time>
      </trkpt>
      <trkpt lat="50.03612" lon="2.27148">
        <ele>60.6</ele>
        <time>2014-05-18T14:30:27.67</time>
      </trkpt>
      <trkpt lat="50.03608" lon="2.27159">
        <ele>60.9</ele>
        <time>2014-05-18T14:30:32.62</time>
      </trkpt>
      <trkpt lat="50.03601" lon="2.27167">
        <ele>61.3</ele>
        <time>2014-05-18T14:30:38.66</time>
      </trkpt>
      <trkpt lat="50.03595" lon="2.27177">
        <ele>61.8</ele>
        <time>2014-05-18T14:30:43.62</time>
      </trkpt>
      <trkpt lat="50.03589" lon="2.27187">
        <ele>62.6</ele>
        <time>2014-05-18T14:30:50.62</time>
      </trkpt>
      <trkpt lat="50.03589" lon="2.27198">
        <ele>63.2</ele>
        <time>2014-05-18T14:30:57.62</time>
      </trkpt>
      <trkpt lat="50.03584" lon="2.27205">
        <ele>63.3</ele>
        <time>2014-05-18T14:31:04.62</time>
      </trkpt>
      <trkpt lat="50.03579" lon="2.27211">
        <ele>63.2</ele>
        <time>2014-05-18T14:31:11.65</time>
      </trkpt>
      <trkpt lat="50.03575" lon="2.27218">
        <ele>63.5</ele>
        <time>2014-05-18T14:31:18.62</time>
      </trkpt>
      <trkpt lat="50.03575" lon="2.27227">
        <ele>63.8</ele>
        <time>2014-05-18T14:31:25.62</time>
      </trkpt>
      <trkpt lat="50.03573" lon="2.27229">
        <ele>64</ele>
        <time>2014-05-18T14:31:32.62</time>
      </trkpt>
      <trkpt lat="50.03581" lon="2.27228">
        <ele>64.5</ele>
        <time>2014-05-18T14:31:38.62</time>
      </trkpt>
      <trkpt lat="50.03589" lon="2.2723">
        <ele>64.9</ele>
        <time>2014-05-18T14:31:43.62</time>
      </trkpt>
      <trkpt lat="50.03594" lon="2.27225">
        <ele>65.1</ele>
        <time>2014-05-18T14:31:50.62</time>
      </trkpt>
      <trkpt lat="50.03596" lon="2.27237">
        <ele>65.6</ele>
        <time>2014-05-18T14:31:55.62</time>
      </trkpt>
      <trkpt lat="50.036" lon="2.27248">
        <ele>65.9</ele>
        <time>2014-05-18T14:32:02.64</time>
      </trkpt>
      <trkpt lat="50.03606" lon="2.27251">
        <ele>65.6</ele>
        <time>2014-05-18T14:32:09.62</time>
      </trkpt>
      <trkpt lat="50.03607" lon="2.27262">
        <ele>65.5</ele>
        <time>2014-05-18T14:32:13.62</time>
      </trkpt>
      <trkpt lat="50.03609" lon="2.27273">
        <ele>65.5</ele>
        <time>2014-05-18T14:32:18.62</time>
      </trkpt>
      <trkpt lat="50.03613" lon="2.27285">
        <ele>65.6</ele>
        <time>2014-05-18T14:32:24.62</time>
      </trkpt>
      <trkpt lat="50.03619" lon="2.27294">
        <ele>65.6</ele>
        <time>2014-05-18T14:32:29.62</time>
      </trkpt>
      <trkpt lat="50.0362" lon="2.27305">
        <ele>65.8</ele>
        <time>2014-05-18T14:32:33.62</time>
      </trkpt>
      <trkpt lat="50.03625" lon="2.27316">
        <ele>66.4</ele>
        <time>2014-05-18T14:32:38.66</time>
      </trkpt>
      <trkpt lat="50.03627" lon="2.27325">
        <ele>66.8</ele>
        <time>2014-05-18T14:32:45.64</time>
      </trkpt>
      <trkpt lat="50.03626" lon="2.27338">
        <ele>66.7</ele>
        <time>2014-05-18T14:32:52.62</time>
      </trkpt>
      <trkpt lat="50.03623" lon="2.27356">
        <ele>66.6</ele>
        <time>2014-05-18T14:32:56.62</time>
      </trkpt>
      <trkpt lat="50.03623" lon="2.27368">
        <ele>67.2</ele>
        <time>2014-05-18T14:33:03.62</time>
      </trkpt>
      <trkpt lat="50.0362" lon="2.27379">
        <ele>67.1</ele>
        <time>2014-05-18T14:33:10.65</time>
      </trkpt>
      <trkpt lat="50.03615" lon="2.27389">
        <ele>67.1</ele>
        <time>2014-05-18T14:33:17.62</time>
      </trkpt>
      <trkpt lat="50.03613" lon="2.27397">
        <ele>67.1</ele>
        <time>2014-05-18T14:33:24.62</time>
      </trkpt>
      <trkpt lat="50.03613" lon="2.27402">
        <ele>67.2</ele>
        <time>2014-05-18T14:33:31.62</time>
      </trkpt>
      <trkpt lat="50.03612" lon="2.27413">
        <ele>67.3</ele>
        <time>2014-05-18T14:33:38.62</time>
      </trkpt>
      <trkpt lat="50.0361" lon="2.27426">
        <ele>67.6</ele>
        <time>2014-05-18T14:33:45.62</time>
      </trkpt>
      <trkpt lat="50.03611" lon="2.2744">
        <ele>68.1</ele>
        <time>2014-05-18T14:33:51.62</time>
      </trkpt>
      <trkpt lat="50.03611" lon="2.27452">
        <ele>68.5</ele>
        <time>2014-05-18T14:33:57.62</time>
      </trkpt>
      <trkpt lat="50.03616" lon="2.27465">
        <ele>68.8</ele>
        <time>2014-05-18T14:34:04.62</time>
      </trkpt>
      <trkpt lat="50.03618" lon="2.27477">
        <ele>69.1</ele>
        <time>2014-05-18T14:34:10.62</time>
      </trkpt>
      <trkpt lat="50.03623" lon="2.27486">
        <ele>69.1</ele>
        <time>2014-05-18T14:34:15.62</time>
      </trkpt>
      <trkpt lat="50.03626" lon="2.27499">
        <ele>69</ele>
        <time>2014-05-18T14:34:21.62</time>
      </trkpt>
      <trkpt lat="50.03627" lon="2.27511">
        <ele>69.2</ele>
        <time>2014-05-18T14:34:27.62</time>
      </trkpt>
      <trkpt lat="50.03624" lon="2.27519">
        <ele>69.5</ele>
        <time>2014-05-18T14:34:34.62</time>
      </trkpt>
      <trkpt lat="50.03622" lon="2.27525">
        <ele>69.8</ele>
        <time>2014-05-18T14:34:41.62</time>
      </trkpt>
      <trkpt lat="50.03622" lon="2.27536">
        <ele>70.4</ele>
        <time>2014-05-18T14:34:48.62</time>
      </trkpt>
      <trkpt lat="50.03627" lon="2.27545">
        <ele>70.5</ele>
        <time>2014-05-18T14:34:52.62</time>
      </trkpt>
      <trkpt lat="50.03633" lon="2.27552">
        <ele>70.4</ele>
        <time>2014-05-18T14:34:57.62</time>
      </trkpt>
      <trkpt lat="50.03629" lon="2.27554">
        <ele>70.8</ele>
        <time>2014-05-18T14:35:04.62</time>
      </trkpt>
      <trkpt lat="50.03626" lon="2.27558">
        <ele>71.5</ele>
        <time>2014-05-18T14:35:10.65</time>
      </trkpt>
      <trkpt lat="50.03621" lon="2.27567">
        <ele>72</ele>
        <time>2014-05-18T14:35:17.62</time>
      </trkpt>
      <trkpt lat="50.03618" lon="2.27573">
        <ele>72</ele>
        <time>2014-05-18T14:35:24.62</time>
      </trkpt>
      <trkpt lat="50.03615" lon="2.27584">
        <ele>72.3</ele>
        <time>2014-05-18T14:35:30.62</time>
      </trkpt>
      <trkpt lat="50.03616" lon="2.27592">
        <ele>72.6</ele>
        <time>2014-05-18T14:35:37.62</time>
      </trkpt>
      <trkpt lat="50.03618" lon="2.27603">
        <ele>72.6</ele>
        <time>2014-05-18T14:35:43.62</time>
      </trkpt>
      <trkpt lat="50.03618" lon="2.27615">
        <ele>72.5</ele>
        <time>2014-05-18T14:35:50.62</time>
      </trkpt>
      <trkpt lat="50.03617" lon="2.27627">
        <ele>72.6</ele>
        <time>2014-05-18T14:35:57.62</time>
      </trkpt>
      <trkpt lat="50.03615" lon="2.27639">
        <ele>72.6</ele>
        <time>2014-05-18T14:36:04.62</time>
      </trkpt>
      <trkpt lat="50.03617" lon="2.27648">
        <ele>72.7</ele>
        <time>2014-05-18T14:36:11.62</time>
      </trkpt>
      <trkpt lat="50.03618" lon="2.27658">
        <ele>72.9</ele>
        <time>2014-05-18T14:36:18.62</time>
      </trkpt>
      <trkpt lat="50.03618" lon="2.27669">
        <ele>73</ele>
        <time>2014-05-18T14:36:24.62</time>
      </trkpt>
      <trkpt lat="50.03618" lon="2.27682">
        <ele>73.3</ele>
        <time>2014-05-18T14:36:31.62</time>
      </trkpt>
      <trkpt lat="50.03618" lon="2.27694">
        <ele>73.7</ele>
        <time>2014-05-18T14:36:37.62</time>
      </trkpt>
      <trkpt lat="50.03618" lon="2.27707">
        <ele>73.9</ele>
        <time>2014-05-18T14:36:43.62</time>
      </trkpt>
      <trkpt lat="50.03617" lon="2.27719">
        <ele>74.1</ele>
        <time>2014-05-18T14:36:49.62</time>
      </trkpt>
      <trkpt lat="50.03611" lon="2.27727">
        <ele>74.5</ele>
        <time>2014-05-18T14:36:55.62</time>
      </trkpt>
      <trkpt lat="50.03608" lon="2.27735">
        <ele>75</ele>
        <time>2014-05-18T14:37:02.62</time>
      </trkpt>
      <trkpt lat="50.03605" lon="2.27746">
        <ele>75.2</ele>
        <time>2014-05-18T14:37:09.62</time>
      </trkpt>
      <trkpt lat="50.03603" lon="2.27755">
        <ele>75.2</ele>
        <time>2014-05-18T14:37:16.62</time>
      </trkpt>
      <trkpt lat="50.03603" lon="2.27759">
        <ele>75.2</ele>
        <time>2014-05-18T14:37:23.62</time>
      </trkpt>
      <trkpt lat="50.03603" lon="2.27766">
        <ele>75.4</ele>
        <time>2014-05-18T14:37:30.62</time>
      </trkpt>
      <trkpt lat="50.03602" lon="2.27777">
        <ele>75.5</ele>
        <time>2014-05-18T14:37:37.62</time>
      </trkpt>
      <trkpt lat="50.03593" lon="2.2778">
        <ele>75.6</ele>
        <time>2014-05-18T14:37:41.62</time>
      </trkpt>
      <trkpt lat="50.03589" lon="2.2779">
        <ele>75.7</ele>
        <time>2014-05-18T14:37:47.62</time>
      </trkpt>
      <trkpt lat="50.0358" lon="2.27794">
        <ele>75.8</ele>
        <time>2014-05-18T14:37:52.62</time>
      </trkpt>
      <trkpt lat="50.03588" lon="2.27799">
        <ele>76.1</ele>
        <time>2014-05-18T14:37:57.62</time>
      </trkpt>
      <trkpt lat="50.03589" lon="2.27802">
        <ele>76.2</ele>
        <time>2014-05-18T14:38:04.62</time>
      </trkpt>
      <trkpt lat="50.03592" lon="2.27817">
        <ele>76.4</ele>
        <time>2014-05-18T14:38:07.64</time>
      </trkpt>
      <trkpt lat="50.03596" lon="2.27827">
        <ele>76.4</ele>
        <time>2014-05-18T14:38:13.66</time>
      </trkpt>
      <trkpt lat="50.03592" lon="2.27839">
        <ele>75.9</ele>
        <time>2014-05-18T14:38:20.62</time>
      </trkpt>
      <trkpt lat="50.03585" lon="2.27842">
        <ele>75.7</ele>
        <time>2014-05-18T14:38:26.62</time>
      </trkpt>
      <trkpt lat="50.03577" lon="2.27843">
        <ele>75.7</ele>
        <time>2014-05-18T14:38:30.62</time>
      </trkpt>
      <trkpt lat="50.0357" lon="2.27847">
        <ele>75.8</ele>
        <time>2014-05-18T14:38:34.62</time>
      </trkpt>
      <trkpt lat="50.03566" lon="2.27855">
        <ele>75.9</ele>
        <time>2014-05-18T14:38:41.62</time>
      </trkpt>
      <trkpt lat="50.03566" lon="2.27853">
        <ele>76.4</ele>
        <time>2014-05-18T14:38:48.62</time>
      </trkpt>
      <trkpt lat="50.03559" lon="2.27861">
        <ele>77.1</ele>
        <time>2014-05-18T14:38:54.62</time>
      </trkpt>
      <trkpt lat="50.03551" lon="2.27869">
        <ele>77.4</ele>
        <time>2014-05-18T14:39:00.62</time>
      </trkpt>
      <trkpt lat="50.03545" lon="2.27874">
        <ele>77.5</ele>
        <time>2014-05-18T14:39:04.62</time>
      </trkpt>
      <trkpt lat="50.03539" lon="2.27884">
        <ele>77.7</ele>
        <time>2014-05-18T14:39:10.62</time>
      </trkpt>
      <trkpt lat="50.03533" lon="2.27891">
        <ele>77.8</ele>
        <time>2014-05-18T14:39:15.62</time>
      </trkpt>
      <trkpt lat="50.03525" lon="2.27893">
        <ele>77.8</ele>
        <time>2014-05-18T14:39:18.62</time>
      </trkpt>
      <trkpt lat="50.03517" lon="2.27896">
        <ele>77.8</ele>
        <time>2014-05-18T14:39:23.62</time>
      </trkpt>
      <trkpt lat="50.0351" lon="2.27897">
        <ele>77.7</ele>
        <time>2014-05-18T14:39:26.62</time>
      </trkpt>
      <trkpt lat="50.03503" lon="2.279">
        <ele>77.8</ele>
        <time>2014-05-18T14:39:32.62</time>
      </trkpt>
      <trkpt lat="50.03495" lon="2.27903">
        <ele>78.1</ele>
        <time>2014-05-18T14:39:37.62</time>
      </trkpt>
      <trkpt lat="50.03486" lon="2.27908">
        <ele>78.4</ele>
        <time>2014-05-18T14:39:42.62</time>
      </trkpt>
      <trkpt lat="50.03488" lon="2.27919">
        <ele>78.6</ele>
        <time>2014-05-18T14:39:48.62</time>
      </trkpt>
      <trkpt lat="50.03481" lon="2.27925">
        <ele>78.8</ele>
        <time>2014-05-18T14:39:54.62</time>
      </trkpt>
      <trkpt lat="50.03473" lon="2.27926">
        <ele>79</ele>
        <time>2014-05-18T14:39:59.62</time>
      </trkpt>
      <trkpt lat="50.03466" lon="2.27928">
        <ele>79</ele>
        <time>2014-05-18T14:40:06.62</time>
      </trkpt>
      <trkpt lat="50.03461" lon="2.27936">
        <ele>79.3</ele>
        <time>2014-05-18T14:40:13.62</time>
      </trkpt>
      <trkpt lat="50.03454" lon="2.27939">
        <ele>79.4</ele>
        <time>2014-05-18T14:40:16.62</time>
      </trkpt>
      <trkpt lat="50.03445" lon="2.2794">
        <ele>79.1</ele>
        <time>2014-05-18T14:40:22.62</time>
      </trkpt>
      <trkpt lat="50.03442" lon="2.27942">
        <ele>78.9</ele>
        <time>2014-05-18T14:40:29.62</time>
      </trkpt>
      <trkpt lat="50.03435" lon="2.27948">
        <ele>78.7</ele>
        <time>2014-05-18T14:40:34.62</time>
      </trkpt>
      <trkpt lat="50.03426" lon="2.2795">
        <ele>78.8</ele>
        <time>2014-05-18T14:40:38.62</time>
      </trkpt>
      <trkpt lat="50.03419" lon="2.27956">
        <ele>78.9</ele>
        <time>2014-05-18T14:40:44.62</time>
      </trkpt>
      <trkpt lat="50.03411" lon="2.27962">
        <ele>78.9</ele>
        <time>2014-05-18T14:40:48.62</time>
      </trkpt>
      <trkpt lat="50.03405" lon="2.2797">
        <ele>78.8</ele>
        <time>2014-05-18T14:40:52.62</time>
      </trkpt>
      <trkpt lat="50.03404" lon="2.27981">
        <ele>79</ele>
        <time>2014-05-18T14:40:59.62</time>
      </trkpt>
      <trkpt lat="50.03401" lon="2.27992">
        <ele>79.4</ele>
        <time>2014-05-18T14:41:05.62</time>
      </trkpt>
      <trkpt lat="50.03402" lon="2.28004">
        <ele>79.6</ele>
        <time>2014-05-18T14:41:11.62</time>
      </trkpt>
      <trkpt lat="50.03397" lon="2.28012">
        <ele>79.6</ele>
        <time>2014-05-18T14:41:17.62</time>
      </trkpt>
      <trkpt lat="50.0339" lon="2.28016">
        <ele>79.8</ele>
        <time>2014-05-18T14:41:21.62</time>
      </trkpt>
      <trkpt lat="50.03386" lon="2.28013">
        <ele>80.3</ele>
        <time>2014-05-18T14:41:28.62</time>
      </trkpt>
      <trkpt lat="50.03378" lon="2.28017">
        <ele>80.5</ele>
        <time>2014-05-18T14:41:31.62</time>
      </trkpt>
      <trkpt lat="50.03383" lon="2.28033">
        <ele>80.6</ele>
        <time>2014-05-18T14:41:35.62</time>
      </trkpt>
      <trkpt lat="50.03388" lon="2.28046">
        <ele>80.8</ele>
        <time>2014-05-18T14:41:40.62</time>
      </trkpt>
      <trkpt lat="50.03397" lon="2.28052">
        <ele>81</ele>
        <time>2014-05-18T14:41:42.62</time>
      </trkpt>
      <trkpt lat="50.03405" lon="2.2806">
        <ele>81.3</ele>
        <time>2014-05-18T14:41:45.62</time>
      </trkpt>
      <trkpt lat="50.03414" lon="2.28069">
        <ele>81.8</ele>
        <time>2014-05-18T14:41:49.62</time>
      </trkpt>
      <trkpt lat="50.03419" lon="2.28078">
        <ele>82.2</ele>
        <time>2014-05-18T14:41:54.62</time>
      </trkpt>
      <trkpt lat="50.03427" lon="2.28086">
        <ele>82.6</ele>
        <time>2014-05-18T14:41:59.62</time>
      </trkpt>
      <trkpt lat="50.03433" lon="2.28095">
        <ele>83.3</ele>
        <time>2014-05-18T14:42:05.62</time>
      </trkpt>
      <trkpt lat="50.03437" lon="2.28106">
        <ele>83.9</ele>
        <time>2014-05-18T14:42:10.62</time>
      </trkpt>
      <trkpt lat="50.03439" lon="2.28114">
        <ele>84.6</ele>
        <time>2014-05-18T14:42:17.62</time>
      </trkpt>
      <trkpt lat="50.03437" lon="2.28116">
        <ele>85.4</ele>
        <time>2014-05-18T14:42:24.64</time>
      </trkpt>
      <trkpt lat="50.03435" lon="2.28124">
        <ele>85.4</ele>
        <time>2014-05-18T14:42:31.62</time>
      </trkpt>
      <trkpt lat="50.03433" lon="2.2813">
        <ele>85.6</ele>
        <time>2014-05-18T14:42:38.62</time>
      </trkpt>
      <trkpt lat="50.03427" lon="2.28135">
        <ele>86</ele>
        <time>2014-05-18T14:42:45.62</time>
      </trkpt>
      <trkpt lat="50.0342" lon="2.28133">
        <ele>85.8</ele>
        <time>2014-05-18T14:42:52.62</time>
      </trkpt>
      <trkpt lat="50.03418" lon="2.28131">
        <ele>85.5</ele>
        <time>2014-05-18T14:42:59.62</time>
      </trkpt>
      <trkpt lat="50.03415" lon="2.28128">
        <ele>84.5</ele>
        <time>2014-05-18T14:43:04.66</time>
      </trkpt>
      <trkpt lat="50.03407" lon="2.28127">
        <ele>83.8</ele>
        <time>2014-05-18T14:43:08.64</time>
      </trkpt>
      <trkpt lat="50.03409" lon="2.28125">
        <ele>83.7</ele>
        <time>2014-05-18T14:43:15.62</time>
      </trkpt>
      <trkpt lat="50.03413" lon="2.28124">
        <ele>83.5</ele>
        <time>2014-05-18T14:43:22.64</time>
      </trkpt>
      <trkpt lat="50.03406" lon="2.28116">
        <ele>83.1</ele>
        <time>2014-05-18T14:43:25.65</time>
      </trkpt>
      <trkpt lat="50.03414" lon="2.28124">
        <ele>80.5</ele>
        <time>2014-05-18T14:43:32.60</time>
      </trkpt>
      <trkpt lat="50.03421" lon="2.28129">
        <ele>79.4</ele>
        <time>2014-05-18T14:43:39.60</time>
      </trkpt>
      <trkpt lat="50.03416" lon="2.28125">
        <ele>78.1</ele>
        <time>2014-05-18T14:43:46.60</time>
      </trkpt>
      <trkpt lat="50.03426" lon="2.28128">
        <ele>78</ele>
        <time>2014-05-18T14:43:52.60</time>
      </trkpt>
      <trkpt lat="50.03426" lon="2.2813">
        <ele>78.2</ele>
        <time>2014-05-18T14:43:59.60</time>
      </trkpt>
      <trkpt lat="50.0341" lon="2.28125">
        <ele>77.7</ele>
        <time>2014-05-18T14:44:07.60</time>
      </trkpt>
      <trkpt lat="50.03414" lon="2.28126">
        <ele>77.4</ele>
        <time>2014-05-18T14:44:14.60</time>
      </trkpt>
      <trkpt lat="50.03412" lon="2.28126">
        <ele>76.3</ele>
        <time>2014-05-18T14:44:21.60</time>
      </trkpt>
      <trkpt lat="50.03421" lon="2.28137">
        <ele>76.2</ele>
        <time>2014-05-18T14:44:25.60</time>
      </trkpt>
      <trkpt lat="50.03417" lon="2.28137">
        <ele>74.2</ele>
        <time>2014-05-18T14:44:32.60</time>
      </trkpt>
      <trkpt lat="50.03419" lon="2.2814">
        <ele>74.1</ele>
        <time>2014-05-18T14:44:39.60</time>
      </trkpt>
      <trkpt lat="50.0342" lon="2.28142">
        <ele>72.1</ele>
        <time>2014-05-18T14:44:41.62</time>
      </trkpt>
      <trkpt lat="50.03424" lon="2.28144">
        <ele>72.1</ele>
        <time>2014-05-18T14:44:48.60</time>
      </trkpt>
      <trkpt lat="50.03427" lon="2.28135">
        <ele>70.5</ele>
        <time>2014-05-18T14:44:53.62</time>
      </trkpt>
      <trkpt lat="50.0342" lon="2.28131">
        <ele>70.2</ele>
        <time>2014-05-18T14:44:55.60</time>
      </trkpt>
      <trkpt lat="50.03422" lon="2.28131">
        <ele>70.1</ele>
        <time>2014-05-18T14:45:02.60</time>
      </trkpt>
      <trkpt lat="50.03429" lon="2.28132">
        <ele>70.1</ele>
        <time>2014-05-18T14:45:09.60</time>
      </trkpt>
      <trkpt lat="50.03424" lon="2.28131">
        <ele>69.6</ele>
        <time>2014-05-18T14:45:16.60</time>
      </trkpt>
      <trkpt lat="50.03433" lon="2.28137">
        <ele>69.5</ele>
        <time>2014-05-18T14:45:20.62</time>
      </trkpt>
      <trkpt lat="50.03436" lon="2.28138">
        <ele>69.8</ele>
        <time>2014-05-18T14:45:27.60</time>
      </trkpt>
      <trkpt lat="50.03442" lon="2.28138">
        <ele>69.5</ele>
        <time>2014-05-18T14:45:34.60</time>
      </trkpt>
      <trkpt lat="50.03439" lon="2.28136">
        <ele>69.6</ele>
        <time>2014-05-18T14:45:41.60</time>
      </trkpt>
      <trkpt lat="50.03426" lon="2.2813">
        <ele>69.6</ele>
        <time>2014-05-18T14:45:43.60</time>
      </trkpt>
      <trkpt lat="50.03425" lon="2.2813">
        <ele>69.6</ele>
        <time>2014-05-18T14:45:50.60</time>
      </trkpt>
      <trkpt lat="50.03429" lon="2.28133">
        <ele>69.1</ele>
        <time>2014-05-18T14:45:57.60</time>
      </trkpt>
      <trkpt lat="50.03433" lon="2.28133">
        <ele>68.3</ele>
        <time>2014-05-18T14:46:04.60</time>
      </trkpt>
      <trkpt lat="50.03431" lon="2.28133">
        <ele>67.1</ele>
        <time>2014-05-18T14:46:11.61</time>
      </trkpt>
      <trkpt lat="50.03429" lon="2.28132">
        <ele>67</ele>
        <time>2014-05-18T14:46:18.60</time>
      </trkpt>
      <trkpt lat="50.03436" lon="2.28134">
        <ele>66.8</ele>
        <time>2014-05-18T14:46:25.60</time>
      </trkpt>
      <trkpt lat="50.03437" lon="2.28135">
        <ele>66.4</ele>
        <time>2014-05-18T14:46:32.60</time>
      </trkpt>
      <trkpt lat="50.03434" lon="2.28134">
        <ele>65.8</ele>
        <time>2014-05-18T14:46:39.60</time>
      </trkpt>
      <trkpt lat="50.03434" lon="2.28134">
        <ele>65.2</ele>
        <time>2014-05-18T14:46:46.60</time>
      </trkpt>
      <trkpt lat="50.0343" lon="2.28129">
        <ele>63.7</ele>
        <time>2014-05-18T14:46:52.62</time>
      </trkpt>
      <trkpt lat="50.0344" lon="2.28136">
        <ele>64.2</ele>
        <time>2014-05-18T14:46:59.62</time>
      </trkpt>
      <trkpt lat="50.03437" lon="2.28136">
        <ele>64.3</ele>
        <time>2014-05-18T14:47:06.60</time>
      </trkpt>
      <trkpt lat="50.03437" lon="2.28133">
        <ele>63.6</ele>
        <time>2014-05-18T14:47:13.60</time>
      </trkpt>
      <trkpt lat="50.03431" lon="2.28127">
        <ele>62</ele>
        <time>2014-05-18T14:47:19.62</time>
      </trkpt>
      <trkpt lat="50.03423" lon="2.28125">
        <ele>62.2</ele>
        <time>2014-05-18T14:47:22.62</time>
      </trkpt>
      <trkpt lat="50.03421" lon="2.28125">
        <ele>62.3</ele>
        <time>2014-05-18T14:47:29.60</time>
      </trkpt>
      <trkpt lat="50.03422" lon="2.28129">
        <ele>61.9</ele>
        <time>2014-05-18T14:47:30.62</time>
      </trkpt>
      <trkpt lat="50.03418" lon="2.28122">
        <ele>61.7</ele>
        <time>2014-05-18T14:47:37.60</time>
      </trkpt>
      <trkpt lat="50.03421" lon="2.28113">
        <ele>61.9</ele>
        <time>2014-05-18T14:47:44.60</time>
      </trkpt>
      <trkpt lat="50.03418" lon="2.28107">
        <ele>61.8</ele>
        <time>2014-05-18T14:47:51.60</time>
      </trkpt>
      <trkpt lat="50.03423" lon="2.28115">
        <ele>61.1</ele>
        <time>2014-05-18T14:47:57.60</time>
      </trkpt>
      <trkpt lat="50.03436" lon="2.2812">
        <ele>60.8</ele>
        <time>2014-05-18T14:48:00.60</time>
      </trkpt>
      <trkpt lat="50.03444" lon="2.28126">
        <ele>60.6</ele>
        <time>2014-05-18T14:48:03.65</time>
      </trkpt>
      <trkpt lat="50.03444" lon="2.28126">
        <ele>60.6</ele>
        <time>2014-05-18T14:48:05.7</time>
      </trkpt>
    </trkseg>
  </trk>
</gpx>